GFSGBSN_700_rhum_000.txt.gz
RH
23 21 20 19 20 24 28 31 34 20 31 47 54 67 68 68 67 64 67 58 48 40 38 38 36 34 53 59 86 94 85 55 55 70 67 76 67 49 64 92 100 72 80 72 57 58 61
24 20 21 19 20 20 28 31 38 20 24 40 54 68 74 77 73 72 71 62 52 44 41 37 45 59 54 72 52 67 87 78 62 56 58 70 75 74 95 98 98 83 87 84 67 61 67
25 22 20 22 21 19 23 34 37 26 18 31 47 67 70 76 72 77 82 70 57 47 45 46 84 85 74 63 57 57 53 58 60 55 55 65 75 87 88 97 98 98 95 91 72 66 78
23 22 19 24 21 21 19 30 37 36 15 24 37 50 69 82 84 90 91 77 71 69 56 63 88 82 84 59 59 56 60 63 58 52 49 67 72 91 99 99 98 98 99 83 76 87 75
20 20 18 22 24 22 20 22 40 40 19 17 25 36 63 86 80 97 100 97 92 73 80 82 84 90 74 55 50 62 64 58 59 64 51 76 66 97 98 99 100 100 87 81 74 86 79
16 18 18 20 25 22 24 21 38 41 34 15 19 28 70 83 88 100 100 99 96 98 98 99 99 95 72 58 59 60 71 66 65 78 84 83 74 99 100 97 95 90 83 73 74 72 64
12 13 17 19 25 24 25 21 29 46 46 20 16 16 71 89 92 95 100 100 99 100 95 77 80 79 75 64 61 61 67 74 73 82 90 86 92 98 97 100 89 72 71 76 71 70 73
15 14 15 18 25 26 26 24 24 48 49 32 18 9 73 87 94 100 99 99 98 100 97 90 96 96 94 85 68 72 76 74 75 67 97 99 97 97 100 96 86 81 75 72 65 70 78
15 16 16 16 25 27 26 27 22 47 53 53 23 11 73 82 92 96 99 98 98 98 98 96 98 97 96 85 64 80 75 71 66 64 99 90 89 100 100 99 100 84 81 67 66 79 82
11 18 15 15 25 27 27 30 23 51 58 67 51 21 39 84 68 95 99 98 98 98 98 93 98 93 93 93 71 66 87 73 89 92 99 99 98 100 96 99 98 80 84 83 82 90 70
13 17 19 14 20 25 30 32 26 59 63 62 68 29 19 17 62 82 99 98 98 98 95 86 92 98 85 77 80 65 85 87 78 96 98 82 99 100 99 96 96 79 82 87 91 91 85
34 13 24 16 17 22 34 35 33 64 65 63 72 26 19 23 35 62 97 98 98 98 92 92 97 96 92 83 76 80 95 89 91 97 98 88 98 99 99 98 97 94 90 92 90 83 68
95 19 24 23 17 22 40 36 44 67 69 64 73 21 19 26 45 68 94 98 98 97 93 98 95 97 97 67 91 92 89 80 93 98 96 97 99 99 99 100 99 90 93 98 94 83 59
93 95 25 29 18 24 45 40 54 72 74 69 72 22 19 38 63 82 98 98 98 97 95 95 96 98 98 98 96 90 100 98 96 99 77 97 100 100 99 96 97 86 83 59 62 58 46
99 95 87 43 27 28 49 43 58 77 78 70 71 23 24 56 66 86 98 98 92 97 97 96 98 97 100 98 91 97 96 90 90 99 92 97 99 99 97 98 85 99 98 73 60 61 49
98 97 93 95 85 33 53 47 65 80 84 71 76 25 45 66 75 100 98 97 97 98 98 100 86 94 84 88 80 97 86 77 90 94 100 92 99 100 100 98 98 98 93 85 73 60 56
99 97 90 98 98 48 53 50 70 79 86 74 78 29 60 86 100 100 98 98 98 99 94 84 81 84 82 85 76 89 80 87 62 86 98 91 88 98 100 98 96 97 98 93 68 60 44
98 99 92 99 100 68 53 53 72 78 91 78 68 48 75 100 100 99 98 98 98 97 77 74 71 79 74 88 93 89 77 91 66 85 96 80 73 98 96 93 89 86 80 79 67 64 57
97 100 98 94 99 81 52 57 75 78 92 80 54 74 98 100 97 99 98 98 99 98 86 85 73 82 54 74 81 96 88 62 60 81 86 83 72 82 96 89 88 97 92 86 66 56 54
93 99 99 100 100 79 54 60 79 81 92 82 45 98 99 100 100 99 99 99 99 83 93 99 78 81 53 53 75 70 96 72 89 85 82 81 75 56 60 64 73 81 83 80 79 67 55
84 98 100 100 100 82 58 59 82 82 93 87 42 86 96 98 95 100 99 99 99 99 97 100 89 74 72 82 86 93 93 91 88 85 82 92 71 73 66 60 61 64 65 66 74 68 58
38 97 100 100 100 95 61 58 84 81 90 94 55 58 90 87 76 91 100 98 99 100 98 99 99 85 86 67 62 83 69 91 88 96 81 90 78 66 66 66 65 63 58 57 60 68 61
43 97 98 100 100 96 62 64 83 81 78 92 74 35 74 73 67 86 100 99 99 100 98 99 99 98 98 85 74 60 77 88 78 81 79 95 82 73 61 60 69 68 65 59 55 57 54
49 96 99 100 99 91 63 70 76 74 72 94 92 47 35 41 61 99 100 99 99 99 99 100 99 99 83 80 76 78 91 100 100 97 83 96 89 75 77 74 66 52 49 48 50 49 53
40 96 99 100 100 94 76 70 76 70 69 93 91 60 39 50 64 97 97 99 100 100 100 97 91 88 97 99 96 100 100 100 100 100 100 96 93 86 72 91 53 42 49 48 48 43 40
51 93 98 99 98 100 71 68 77 67 69 90 85 72 32 43 63 73 90 99 100 100 100 100 90 83 87 96 93 89 99 99 99 100 100 100 100 99 92 56 47 38 39 36 37 34 27
18 90 98 99 100 100 67 72 76 67 66 84 87 80 28 38 61 51 68 96 100 100 99 99 99 100 99 99 94 84 91 84 92 97 99 99 98 97 84 80 41 36 35 33 43 38 31
22 88 97 99 99 98 74 75 76 67 62 71 91 81 31 38 56 48 54 99 100 99 98 95 100 100 100 100 97 94 91 72 79 80 84 92 77 66 81 98 91 44 42 45 41 37 42
18 81 97 98 98 99 80 74 76 66 57 60 89 80 42 44 55 48 48 75 99 96 99 98 89 98 99 98 88 98 91 92 77 73 72 68 67 72 68 66 53 49 50 50 45 44 51

GFSGBSN_700_rhum_003.txt.gz
RH
28 29 26 21 20 18 17 19 30 32 31 23 36 48 67 75 75 75 71 65 60 58 51 42 40 42 47 55 74 89 75 51 55 63 66 61 58 67 85 100 97 87 76 71 72 68 73
22 30 30 26 20 22 18 16 23 35 36 20 27 42 63 77 82 79 80 70 61 60 51 41 42 58 50 71 52 82 85 66 64 54 60 69 62 66 94 97 95 90 85 77 72 73 72
10 22 28 27 20 22 21 20 17 31 36 28 18 32 52 73 83 75 82 76 73 67 54 42 43 68 74 51 50 45 53 46 55 74 58 59 79 82 89 90 90 97 88 85 74 70 68
10 14 19 24 22 20 25 22 20 22 38 38 16 21 38 61 81 80 92 85 77 71 59 45 61 76 89 58 62 49 47 54 49 44 46 54 82 71 95 87 96 94 94 91 79 74 70
12 11 16 19 21 21 25 24 24 22 36 41 31 16 25 44 87 89 99 99 94 84 68 69 71 79 92 54 56 59 58 53 54 54 51 56 59 73 77 99 89 100 95 96 80 70 70
13 12 12 15 19 21 26 27 26 26 28 46 44 21 18 28 79 95 100 100 99 99 99 88 95 95 87 62 53 55 56 55 60 77 64 60 68 74 77 99 98 95 98 82 84 66 71
25 13 12 13 14 18 23 30 26 31 27 50 50 38 19 16 52 76 83 99 99 100 92 81 80 77 82 70 58 55 53 53 66 96 92 87 82 98 74 70 97 96 89 74 75 63 63
59 27 11 14 15 15 19 30 27 33 30 50 56 54 26 14 44 73 91 98 99 99 100 95 98 91 89 84 82 69 55 62 94 99 100 98 97 85 70 73 98 90 83 68 65 67 66
90 60 21 12 17 17 17 27 28 33 34 48 61 66 47 21 37 75 90 98 100 100 98 98 99 98 98 97 95 84 63 65 100 99 95 97 70 68 91 89 99 92 94 76 69 70 70
100 88 50 14 20 17 16 23 28 32 35 51 66 70 75 38 25 56 60 90 100 99 98 95 79 94 99 98 94 90 81 79 94 97 92 96 93 99 92 96 99 96 79 66 68 70 60
99 98 90 45 17 24 16 24 26 31 37 59 70 70 74 42 27 25 47 67 100 99 96 92 97 96 92 98 96 71 60 82 95 99 94 85 81 84 99 94 99 98 99 75 82 72 83
97 99 98 90 59 27 16 33 27 33 40 69 72 73 75 33 24 32 44 83 100 98 93 95 98 93 95 97 91 90 70 66 100 98 92 78 77 99 96 98 96 93 92 91 85 71 63
98 97 98 95 96 74 39 55 54 44 57 80 80 75 81 28 29 55 70 99 98 97 91 98 95 96 96 94 97 92 100 96 97 98 98 95 93 99 94 100 100 100 100 86 72 70 50
94 98 98 99 89 95 59 95 88 70 83 96 96 82 82 35 41 84 87 100 98 94 88 94 97 97 97 97 96 94 100 99 96 88 99 92 92 97 90 98 98 96 97 52 58 54 41
36 96 98 99 88 88 100 99 98 86 88 100 100 94 79 33 56 89 100 100 97 98 93 97 98 98 97 96 72 77 94 97 89 81 99 95 92 97 99 100 91 96 95 63 50 46 40
31 78 98 100 99 94 100 99 99 93 96 100 100 99 91 34 69 100 100 98 98 97 98 97 90 90 95 92 73 87 96 86 81 93 100 98 95 90 98 100 100 100 77 68 57 51 46
79 57 98 99 95 99 98 98 100 95 100 100 100 99 81 67 91 100 98 98 99 97 99 94 76 77 74 69 73 81 75 63 69 85 97 99 98 100 100 99 97 92 96 73 51 48 39
95 35 96 98 95 98 100 95 100 93 100 100 100 100 81 89 100 98 98 98 98 98 99 92 73 64 57 60 71 76 63 65 60 78 98 99 99 100 99 98 92 87 82 66 51 55 47
90 57 85 98 97 98 99 94 100 94 99 100 100 99 78 99 99 98 99 98 98 98 99 82 76 70 63 64 68 75 70 60 84 71 99 96 100 100 100 94 99 97 79 72 63 54 47
97 84 60 98 100 97 99 98 100 97 100 99 100 90 100 100 98 100 99 98 98 98 95 78 84 85 83 75 71 78 82 72 68 74 100 99 94 67 55 58 84 93 88 70 62 55 47
96 99 63 96 100 99 99 98 99 99 100 100 99 98 99 98 96 98 99 98 99 100 82 89 98 93 89 73 74 86 81 86 77 79 98 98 79 64 58 57 70 70 77 82 77 68 55
91 82 82 96 98 98 98 100 97 100 100 100 99 96 87 100 100 98 99 98 98 99 100 98 98 96 97 76 64 75 76 80 97 92 83 98 87 71 67 64 62 63 67 72 71 70 63
91 98 68 93 95 98 100 100 100 100 100 99 99 100 65 81 95 94 85 93 99 100 99 94 96 98 94 87 83 88 77 85 91 77 80 100 97 68 60 68 68 64 60 64 66 66 61
92 96 96 86 99 98 99 100 98 100 100 97 100 100 93 48 83 93 87 97 99 99 99 96 98 100 93 100 91 85 99 99 99 94 78 88 91 79 78 64 66 51 50 56 59 58 63
90 93 90 85 98 90 99 100 94 100 100 95 100 100 100 65 56 86 81 99 99 100 99 100 96 93 100 100 99 100 100 94 100 99 97 96 98 92 83 83 70 56 54 53 57 47 50
88 98 65 95 98 100 98 87 91 98 100 87 98 100 100 73 62 66 92 99 99 100 100 99 100 100 100 100 99 97 99 98 100 98 100 99 99 99 84 60 63 44 39 41 51 50 42
92 99 47 91 98 86 90 100 96 91 98 84 93 100 100 84 42 70 93 97 99 100 99 100 100 100 100 100 99 94 98 97 98 98 99 100 100 99 94 95 68 52 40 40 47 45 38
67 89 28 83 99 99 98 99 92 82 96 82 84 100 100 82 43 72 82 92 99 100 100 99 100 99 99 99 100 88 82 84 87 93 97 97 99 98 99 99 86 57 50 46 47 40 39
32 56 41 33 98 100 99 99 90 86 92 75 78 100 100 75 48 70 63 81 99 100 100 98 92 84 89 97 90 82 82 73 68 79 95 93 78 71 75 77 58 53 52 49 51 54 49

GFSGBSN_700_rhum_006.txt.gz
RH
9 10 20 22 25 28 23 22 20 19 27 35 33 24 40 57 73 74 70 65 59 63 62 61 56 51 48 46 45 58 72 54 42 47 58 64 63 64 75 86 97 92 92 82 76 65 62
11 9 9 17 22 25 25 22 22 21 22 34 38 22 30 48 68 74 71 61 62 64 64 60 56 49 44 42 44 45 44 51 63 52 62 71 87 76 88 93 91 96 83 77 78 71 69
16 13 10 11 16 24 25 20 24 22 21 29 39 32 20 37 55 73 67 62 61 65 68 66 61 51 45 44 53 50 55 49 56 61 71 96 76 100 100 89 97 100 96 86 76 77 69
38 20 14 12 13 17 23 22 21 25 25 23 41 42 19 22 38 60 77 80 61 75 82 73 62 54 53 46 48 37 48 44 46 48 58 66 98 99 97 100 97 93 89 95 70 79 71
50 43 25 14 12 13 18 21 20 27 27 26 35 45 37 17 24 38 72 88 87 84 95 94 70 65 57 50 48 54 55 56 55 53 49 50 70 76 99 96 96 98 96 80 78 80 78
100 79 53 33 13 12 13 18 21 24 29 32 30 48 52 30 19 23 46 89 88 84 99 100 93 82 70 59 57 59 62 62 58 52 57 64 71 73 74 98 96 99 100 91 83 66 80
94 96 97 73 40 11 13 14 19 22 31 34 32 45 58 47 23 20 26 53 72 85 99 93 97 92 89 70 64 62 61 57 64 58 55 75 79 71 60 54 56 88 91 88 76 80 73
31 90 97 96 74 36 13 15 16 20 30 32 37 38 64 63 36 26 17 40 78 94 99 98 99 99 100 89 83 74 67 63 56 58 64 96 89 34 53 73 90 83 100 89 83 78 74
6 56 96 99 98 68 18 18 16 18 29 30 37 37 70 74 63 39 26 48 87 87 100 98 96 100 97 99 94 85 81 73 60 72 94 86 30 63 91 93 96 93 92 94 91 71 75
1 16 92 99 99 97 73 20 18 18 29 31 35 39 70 77 76 59 35 48 61 82 99 95 88 93 98 99 99 90 98 93 82 86 89 96 65 82 95 94 85 87 75 98 88 90 84
15 2 29 91 93 99 95 89 75 72 81 69 37 42 69 84 80 63 41 36 40 92 97 95 98 92 90 93 96 89 94 98 91 83 91 80 81 88 85 83 80 83 78 94 76 100 85
95 48 6 80 97 98 99 89 99 100 99 92 69 53 76 89 83 52 38 39 62 99 93 90 96 77 92 80 97 96 84 96 91 89 97 88 86 84 74 73 75 79 88 88 100 100 97
82 91 80 16 92 97 98 90 100 100 100 100 94 80 94 95 91 46 44 66 99 98 85 98 91 88 89 97 99 97 96 99 99 99 98 94 70 92 73 85 93 98 99 96 100 99 82
94 95 83 64 99 92 99 92 92 99 100 100 100 97 100 100 98 60 65 98 99 83 87 92 94 97 98 96 97 96 98 96 93 87 99 95 76 67 77 71 89 98 92 100 96 98 58
82 96 91 84 100 96 98 94 96 98 100 99 100 100 100 99 100 86 81 100 89 98 96 97 98 99 100 97 98 95 98 97 86 90 98 95 93 96 66 84 100 98 100 86 100 40 52
93 96 97 98 96 98 98 98 93 91 100 99 100 100 99 99 99 100 96 99 100 98 97 98 97 86 99 97 94 89 89 83 75 84 87 78 97 72 85 99 98 97 76 99 96 56 65
91 96 97 98 88 97 98 91 98 98 99 97 100 100 98 99 98 99 95 100 100 98 98 98 75 89 86 83 72 70 71 68 78 84 97 96 96 100 99 98 95 100 99 96 92 48 56
74 94 97 100 85 97 99 90 100 99 99 98 98 100 98 100 99 98 99 98 98 98 98 97 89 86 64 91 80 72 81 92 75 82 94 95 98 99 96 92 93 92 99 90 54 56 46
65 97 98 99 96 98 97 99 97 98 98 94 99 100 99 99 99 98 93 99 98 98 98 98 71 71 62 59 62 62 84 74 73 77 84 97 99 99 90 100 99 100 97 74 76 57 49
67 94 97 99 93 98 99 99 99 87 99 96 99 99 99 99 93 99 100 98 98 98 98 98 73 76 69 62 58 89 70 68 60 65 81 99 97 99 93 85 79 92 74 59 72 60 48
45 87 97 98 95 98 98 100 98 96 100 95 99 98 98 98 94 98 99 99 99 99 98 91 78 86 76 75 70 62 74 69 71 66 91 98 99 99 68 65 74 76 68 64 69 61 55
59 74 96 98 93 97 96 99 93 99 100 98 100 99 98 96 97 100 90 98 98 98 99 91 71 83 78 80 68 71 70 81 72 83 99 97 90 70 65 67 72 74 68 63 64 63 60
32 71 95 92 74 96 99 98 98 100 98 98 99 99 100 98 87 97 95 98 98 99 98 99 88 88 92 80 93 77 75 67 89 82 80 81 80 78 66 63 63 63 64 68 66 68 70
10 46 87 89 68 95 97 98 98 100 100 100 99 100 99 98 95 81 90 97 94 98 99 97 100 98 89 96 96 87 89 77 72 99 93 68 72 89 66 66 74 54 50 54 58 55 58
8 56 75 83 71 94 99 98 99 92 98 99 99 99 99 98 99 93 79 94 98 98 99 98 100 95 99 89 98 95 99 82 93 95 96 96 84 90 84 72 65 59 53 52 56 54 58
10 18 58 82 40 83 97 99 100 99 94 100 99 100 98 98 99 92 62 83 98 98 99 98 100 100 99 99 99 98 98 89 96 99 98 100 97 94 83 70 74 51 38 42 54 59 54
11 18 58 89 48 83 100 99 99 92 100 98 99 100 100 98 98 97 81 76 99 99 99 99 99 99 99 99 100 91 93 86 96 99 99 100 100 99 96 85 68 61 51 40 51 50 42
12 15 27 62 39 75 95 99 97 100 99 96 99 97 100 98 99 93 77 93 98 99 99 99 100 99 99 100 100 83 91 86 90 91 96 98 98 98 98 94 87 59 59 43 46 44 37
15 15 21 80 48 90 99 98 98 100 96 87 95 95 100 99 97 78 57 83 97 99 99 99 99 98 99 98 91 98 86 87 85 99 96 99 92 94 87 82 65 62 57 55 51 48 49

GFSGBSN_700_rhum_009.txt.gz
RH
31 27 14 11 10 15 24 28 24 20 22 22 24 33 33 24 40 64 70 72 65 61 59 58 56 58 56 54 47 53 50 46 46 42 40 64 77 73 63 67 70 63 55 69 49 46 53
70 40 33 15 12 10 15 23 28 23 22 24 22 32 38 23 30 56 67 73 54 54 58 61 61 59 56 49 51 51 48 46 41 40 46 44 60 73 76 74 89 94 86 72 77 80 70
53 94 53 40 17 13 11 15 24 27 21 26 25 24 40 35 22 41 59 67 63 53 56 60 60 63 56 52 56 55 56 50 46 43 52 56 84 90 88 80 85 97 91 82 66 76 82
16 89 96 74 51 24 13 12 16 24 22 26 28 26 36 43 23 24 41 53 55 70 69 61 61 68 48 54 55 49 52 44 50 52 77 79 98 89 97 92 76 83 84 84 85 75 71
2 7 66 99 99 63 36 12 13 18 22 22 30 31 31 46 41 18 23 35 49 68 79 74 51 68 50 49 53 55 55 54 53 46 60 62 82 98 88 93 91 87 99 96 86 78 80
2 1 20 82 90 98 80 44 12 13 20 22 31 34 33 47 53 36 20 21 32 60 80 83 67 64 60 64 63 59 59 58 68 62 56 44 48 64 75 95 96 87 86 90 95 69 78
2 2 2 10 100 72 100 91 39 12 15 22 28 34 36 38 63 55 30 20 26 38 43 67 83 68 74 84 92 71 66 68 73 75 68 53 58 84 58 62 87 89 80 90 78 85 84
2 2 2 2 72 99 92 100 84 16 14 18 26 34 40 41 63 66 48 31 22 35 55 75 72 72 78 98 98 90 78 75 67 71 66 72 75 59 48 46 57 73 91 72 88 88 95
2 2 3 3 17 88 96 92 99 78 18 19 28 37 39 45 59 71 68 50 34 46 78 75 42 53 70 98 99 98 96 86 72 68 60 54 67 51 62 73 82 82 84 80 76 69 80
3 6 46 29 2 65 76 99 99 94 88 94 92 64 36 44 62 76 72 60 42 55 80 83 64 65 68 99 99 99 99 99 97 90 78 77 61 56 98 88 79 91 67 86 94 92 96
19 77 41 58 62 10 100 98 98 95 93 98 100 97 44 51 71 78 77 61 35 43 93 81 81 71 68 78 96 87 99 99 98 96 95 82 82 58 65 49 91 75 72 87 90 88 99
30 72 78 80 90 68 72 98 98 98 82 97 100 100 87 52 88 92 79 45 65 79 92 84 80 72 74 72 97 100 98 99 98 98 98 88 86 92 77 59 75 83 94 87 92 92 98
24 71 82 84 90 80 50 47 79 98 91 96 97 100 100 100 99 97 70 41 75 93 59 87 82 86 87 94 100 99 99 98 98 98 96 94 80 77 81 79 76 90 96 91 98 97 87
24 84 93 86 92 93 77 94 80 99 99 94 99 100 100 100 100 100 65 57 95 66 60 74 84 94 100 100 98 97 99 97 99 97 90 86 89 67 65 79 76 77 78 85 93 83 66
32 91 96 91 90 96 95 99 85 97 98 86 98 98 90 99 99 100 90 74 46 68 71 79 88 98 97 99 99 99 96 94 76 80 91 95 93 70 66 52 69 67 97 59 95 73 84
27 88 92 93 96 82 95 85 76 98 97 96 99 80 98 98 99 99 100 79 53 57 72 93 98 97 89 97 98 97 93 79 75 66 75 82 97 82 89 92 76 58 65 90 99 98 96
9 52 94 96 97 97 95 98 99 98 96 99 99 77 98 97 99 98 99 94 86 74 73 98 98 97 89 91 82 87 64 60 58 65 94 93 97 85 98 89 89 94 99 90 93 94 99
24 24 58 95 96 97 97 95 98 85 100 99 99 86 99 99 98 98 97 92 84 71 94 99 98 91 84 95 87 80 68 62 74 92 96 94 98 97 78 84 72 93 99 85 77 84 99
9 21 48 90 96 99 91 97 99 74 100 98 98 99 94 99 98 98 93 92 86 87 98 98 98 83 73 85 89 65 64 62 71 93 96 97 97 96 99 99 99 99 96 98 77 76 91
23 14 39 74 98 98 92 99 93 96 96 99 95 98 100 99 99 99 94 96 89 93 97 98 98 77 75 70 71 69 69 64 82 96 97 97 98 98 99 95 90 99 95 82 99 100 51
49 12 40 76 95 97 93 95 100 97 98 98 91 98 79 97 96 90 99 94 99 99 99 99 99 75 76 72 69 67 64 70 82 78 94 98 95 99 100 100 96 56 80 91 100 83 46
49 9 31 79 97 90 89 96 94 94 98 90 80 99 95 95 99 98 99 98 99 96 99 98 98 72 76 79 74 69 64 77 72 85 91 96 97 99 100 92 100 85 93 100 78 54 54
48 32 10 50 82 98 97 97 98 87 100 99 86 84 98 89 98 98 91 87 75 98 98 96 100 93 86 75 78 72 78 74 74 80 83 94 98 99 88 98 98 90 83 66 60 60 49
45 27 9 43 81 96 88 97 100 98 97 98 75 97 99 99 97 95 95 94 93 90 98 94 99 97 75 90 94 90 99 88 78 98 95 90 86 90 68 64 72 58 60 61 54 56 54
73 21 10 22 60 74 74 97 98 98 95 99 83 78 92 99 99 99 98 85 74 85 100 99 97 96 93 98 100 99 96 91 83 86 84 91 95 80 84 75 66 64 58 56 62 55 58
72 37 11 17 42 34 72 98 96 98 99 98 99 99 99 99 98 100 99 90 82 90 98 98 99 100 99 100 99 99 98 98 95 87 92 86 95 90 83 77 74 47 42 47 54 60 60
62 69 18 13 31 33 44 96 98 97 94 89 97 100 100 99 98 99 98 93 86 90 98 99 98 100 98 100 93 98 86 89 86 94 100 99 100 97 84 86 65 60 55 43 58 52 52
64 75 23 13 23 45 42 95 97 99 100 100 100 100 99 99 99 100 96 99 90 96 98 99 99 100 100 100 99 91 97 81 87 87 94 98 98 99 99 94 80 55 57 45 45 37 43
81 53 13 12 16 32 37 96 98 98 99 100 93 100 100 100 98 100 99 87 73 96 98 98 99 99 100 99 98 98 93 92 91 96 93 98 88 83 86 75 69 62 60 52 46 46 47

GFSGBSN_700_rhum_012.txt.gz
RH
24 87 98 89 54 28 14 11 16 27 31 26 24 23 24 35 33 27 39 60 62 64 62 60 60 63 58 53 49 51 51 50 53 54 59 46 54 71 56 52 43 57 47 44 41 40 50
2 15 54 93 99 66 34 16 12 15 28 31 24 26 25 29 39 26 33 59 65 62 50 52 56 59 59 53 58 57 50 46 50 55 55 50 45 51 72 67 64 56 71 60 54 45 45
2 2 10 21 62 100 83 42 17 12 16 28 27 26 30 26 40 35 25 43 62 67 56 51 54 55 46 58 54 55 55 51 50 49 50 51 50 66 82 77 72 73 69 75 60 53 67
1 2 2 3 10 66 100 85 57 18 13 19 27 25 32 32 36 44 26 27 45 58 55 64 68 60 42 49 54 49 52 50 51 55 60 73 66 70 95 97 92 83 80 83 65 76 66
2 2 2 2 2 12 68 100 98 65 19 13 20 24 31 36 37 49 42 21 27 36 45 51 54 59 44 35 47 54 53 50 50 52 64 100 100 91 94 98 97 96 98 95 90 72 84
2 2 2 2 2 3 90 69 99 95 79 16 15 23 28 37 40 51 53 36 22 22 27 36 32 38 37 37 57 62 60 55 56 58 55 80 100 100 99 99 96 90 87 75 75 80 76
3 3 3 2 2 2 4 68 59 92 94 65 18 25 42 39 43 49 62 53 34 30 23 25 35 30 36 46 47 64 76 65 63 75 73 60 70 90 59 60 77 85 88 88 86 94 83
5 4 3 2 2 3 2 34 89 93 99 94 58 74 71 50 46 49 59 62 46 34 31 28 30 33 55 74 72 69 80 80 68 71 84 93 88 74 55 45 58 79 95 88 86 80 86
4 3 2 2 4 5 7 26 90 99 92 99 87 94 90 93 55 45 58 71 60 51 47 42 40 38 41 73 100 99 96 96 93 81 100 97 77 56 57 54 67 60 66 75 82 44 71
3 5 9 12 50 87 45 9 92 99 99 98 93 78 100 100 67 53 56 72 68 54 51 45 40 48 54 62 99 94 92 99 100 92 81 100 84 69 68 83 71 83 69 72 77 94 95
12 35 15 53 86 84 87 82 55 50 94 99 97 87 99 100 77 59 65 75 71 56 63 55 63 59 63 72 74 74 95 100 99 93 92 88 78 68 66 60 74 88 80 76 83 96 92
39 73 35 74 91 83 89 90 29 100 98 98 98 96 90 100 68 75 81 86 72 67 73 60 60 61 68 68 84 87 97 98 99 99 99 98 96 93 75 64 64 95 96 94 93 93 97
74 42 37 91 94 83 88 88 82 82 98 98 98 96 80 100 72 94 97 85 68 74 53 72 58 72 79 78 83 94 97 98 98 99 98 98 97 92 82 86 77 81 89 88 99 95 82
60 43 18 72 96 88 96 92 78 73 90 96 98 90 93 83 100 99 99 81 83 54 52 63 64 81 85 84 94 89 98 97 91 96 97 99 96 96 76 74 80 82 86 79 91 99 71
68 53 13 63 96 94 98 93 99 86 51 98 95 98 98 97 98 99 97 90 57 49 52 58 79 100 99 98 95 93 92 99 98 94 98 96 89 65 64 68 72 81 97 54 88 75 80
58 55 29 41 92 95 98 97 88 91 89 78 99 98 97 99 96 99 98 85 70 58 56 68 75 88 89 71 88 98 98 64 76 69 71 86 86 65 76 88 97 79 64 95 91 99 90
58 63 65 29 73 92 98 96 100 95 63 66 98 97 96 95 100 100 98 86 86 85 81 78 80 95 84 86 90 87 71 60 66 71 75 80 92 91 89 88 80 100 92 79 71 68 98
74 50 78 23 50 75 96 96 94 99 96 96 98 98 94 99 98 98 95 88 99 92 94 89 93 99 91 87 88 92 78 63 63 62 76 79 98 96 83 87 95 87 74 86 79 66 73
80 63 36 26 36 73 98 98 97 98 86 98 99 97 99 99 98 99 93 96 100 99 100 100 94 97 86 83 96 81 78 62 66 93 95 96 98 96 88 95 96 98 90 73 74 68 81
83 73 41 10 36 76 94 98 96 96 98 98 98 98 99 99 98 98 86 99 100 99 100 98 98 96 81 95 89 82 73 68 69 91 96 99 96 94 86 98 88 100 93 89 91 95 80
84 76 49 10 21 80 90 95 86 96 98 88 95 99 83 98 98 97 99 100 99 100 100 97 98 98 84 85 82 74 68 70 74 93 96 98 97 98 96 94 99 98 96 97 99 93 85
83 78 64 10 21 76 88 81 92 98 94 97 100 98 100 76 96 100 99 99 99 100 97 97 98 99 99 81 72 73 74 70 79 81 97 98 94 98 100 89 98 100 89 98 98 100 96
85 84 78 11 11 42 92 85 97 98 92 98 95 99 91 81 88 98 91 87 98 100 88 98 97 100 87 71 70 74 80 89 98 92 98 98 98 99 99 100 100 99 92 87 97 97 99
71 87 76 25 11 38 89 75 97 96 96 96 98 96 95 96 100 88 84 98 95 98 100 100 95 96 94 71 71 84 91 79 94 92 97 98 99 100 99 99 78 69 82 97 95 100 99
83 86 76 68 11 22 48 82 97 98 90 98 88 100 84 95 95 96 98 100 97 77 71 94 95 95 97 90 92 98 90 87 91 81 91 96 99 95 88 82 70 68 64 94 98 75 71
81 83 66 72 11 17 47 83 100 100 100 99 98 96 91 83 91 99 100 100 95 94 94 94 99 98 98 99 99 99 98 85 85 89 88 92 94 100 88 84 75 48 44 57 59 61 59
75 76 75 47 12 14 44 62 96 98 97 98 98 99 98 87 98 100 94 98 98 86 83 90 98 99 100 97 99 98 90 94 90 97 99 97 99 98 98 94 64 57 48 51 60 50 48
75 78 77 49 12 12 22 45 96 98 98 98 96 100 94 99 99 99 95 99 94 99 92 96 98 98 100 99 99 94 99 81 83 84 94 89 86 94 98 89 77 63 58 51 46 44 51
61 67 71 58 12 10 17 40 97 98 98 98 98 100 94 86 99 97 95 100 96 85 81 97 98 99 99 99 97 87 98 93 80 79 83 85 82 82 75 66 62 67 64 52 44 45 46

GFSGBSN_700_rhum_015.txt.gz
RH
1 1 2 28 84 98 90 96 65 23 12 13 28 32 26 28 29 38 32 34 48 68 70 70 68 64 62 58 52 54 52 52 49 46 48 75 70 72 72 63 54 50 39 49 53 45 46
1 2 2 2 3 83 69 98 98 71 25 12 14 30 31 28 30 38 38 30 44 66 72 65 62 60 59 55 55 53 51 53 55 52 52 68 52 57 58 67 75 58 60 52 50 47 48
2 2 2 2 2 3 11 88 100 99 71 28 12 18 32 28 33 36 43 32 35 60 70 66 57 54 50 62 51 51 50 52 54 54 52 52 51 57 64 65 75 71 60 61 61 48 49
2 2 2 2 2 2 2 8 90 100 100 75 35 13 23 29 34 37 44 42 29 43 62 70 70 66 51 52 42 43 52 51 53 55 55 54 68 64 77 97 98 97 85 70 51 53 57
2 2 2 2 2 2 2 2 14 82 99 99 90 83 26 28 30 42 44 52 33 30 46 60 64 54 55 57 52 43 44 55 58 55 56 62 71 97 99 99 98 98 99 91 90 67 62
2 2 2 3 4 3 2 2 2 31 81 98 98 96 97 79 45 45 48 56 46 28 31 42 35 42 39 43 48 57 55 55 57 57 60 59 87 100 99 98 96 98 99 93 83 74 75
2 3 3 3 3 3 3 2 2 9 78 99 99 88 81 98 61 51 52 52 46 40 34 29 39 34 44 46 46 57 54 54 63 64 61 63 80 97 94 98 99 97 89 98 97 92 79
3 3 3 3 3 2 2 2 2 3 36 81 99 98 90 80 100 85 61 54 54 49 45 38 33 33 27 26 38 58 63 66 72 69 66 76 71 64 75 89 90 87 93 91 91 85 82
6 9 47 34 7 4 12 65 30 7 18 68 80 99 97 88 88 100 73 63 66 64 55 50 48 45 41 51 53 58 60 74 83 88 81 75 74 62 72 64 66 70 78 82 77 56 61
7 16 25 55 33 68 76 84 84 75 33 98 82 99 98 95 99 100 94 76 74 69 74 54 48 53 44 54 68 52 56 89 99 99 98 99 98 92 76 75 72 90 78 70 70 82 94
19 72 84 64 32 93 95 96 89 92 80 95 98 100 98 99 72 100 62 89 80 78 77 51 55 54 65 72 66 72 77 100 100 100 100 90 83 72 75 72 67 97 80 87 85 83 86
58 90 78 69 19 84 93 94 82 77 86 58 98 98 98 98 98 93 94 94 86 76 78 70 67 69 72 70 71 76 80 100 99 100 98 94 96 97 84 76 74 89 87 93 100 100 96
66 66 76 62 33 55 95 92 98 74 75 70 78 97 98 95 90 98 100 88 93 80 58 64 56 59 60 83 91 94 94 95 99 100 99 99 98 98 93 87 78 94 98 97 98 97 84
87 78 63 74 65 64 96 95 98 92 90 72 94 95 98 98 100 99 98 96 80 62 55 57 58 69 67 78 81 90 99 97 100 99 98 98 99 83 94 84 79 85 82 91 91 94 83
87 86 81 64 84 60 89 97 96 97 84 79 81 98 98 98 98 100 94 100 73 60 54 52 64 96 96 100 98 97 100 100 87 91 99 98 92 76 71 80 95 98 98 69 84 82 97
87 84 80 59 67 50 89 94 98 98 88 84 84 96 97 99 98 99 100 90 74 58 54 57 57 65 99 100 98 90 77 67 82 81 96 93 95 77 71 76 90 96 83 96 98 96 90
85 87 82 69 36 45 58 83 96 97 97 98 92 96 97 98 100 99 99 89 77 71 65 70 71 76 98 85 76 78 70 58 60 56 76 100 100 82 86 83 63 95 100 97 95 78 91
92 86 87 70 36 27 36 53 89 97 97 98 84 95 98 98 98 99 99 84 81 79 84 93 85 90 100 94 88 85 65 63 60 64 76 72 100 100 81 69 84 76 70 90 95 81 71
90 86 91 75 42 11 30 61 62 97 98 89 84 94 98 100 98 98 87 86 87 82 94 96 93 94 99 95 92 76 79 69 77 60 68 79 97 96 93 97 98 97 94 94 72 82 72
95 83 94 83 57 8 29 53 58 93 98 98 89 98 98 98 98 93 80 85 93 86 94 100 97 99 99 98 84 83 77 72 69 64 80 94 97 95 90 93 97 98 100 92 99 85 78
96 86 94 88 49 10 33 44 58 97 97 88 86 98 88 97 98 92 87 94 88 95 98 98 99 99 98 98 97 85 74 72 84 96 97 98 97 98 97 97 98 97 96 88 99 65 78
95 74 94 90 75 10 28 40 96 100 87 92 98 98 94 95 84 89 94 89 90 98 96 98 98 98 99 96 83 75 73 79 87 92 98 98 98 98 92 98 100 99 97 100 75 82 80
94 90 92 93 88 13 19 48 77 92 95 97 99 98 85 95 98 100 90 86 92 99 98 100 99 100 96 99 98 77 77 82 99 94 99 99 98 98 98 100 99 99 96 99 93 85 82
95 89 94 92 69 20 19 42 81 99 98 99 96 98 98 97 99 89 90 87 95 98 99 93 100 98 95 96 80 72 79 80 95 88 94 99 98 99 99 99 98 95 98 95 97 97 99
90 87 82 92 63 14 13 34 92 97 99 92 96 98 99 94 94 90 91 100 99 96 99 98 86 93 96 99 93 89 92 86 79 81 88 86 98 98 99 91 82 59 94 97 96 97 96
81 82 85 86 71 12 11 50 99 99 99 79 92 95 99 98 94 100 99 100 100 98 91 83 76 86 99 98 99 97 98 99 92 81 89 93 100 99 91 99 78 63 58 86 100 91 81
78 86 58 56 73 15 10 46 95 100 98 94 90 98 100 100 98 97 82 98 99 98 98 82 81 92 97 99 100 99 96 98 89 88 99 98 99 100 97 98 67 72 59 75 96 54 60
67 76 56 68 72 21 9 38 96 100 100 93 86 98 95 91 95 94 90 99 95 96 99 97 99 99 99 99 99 98 98 82 85 80 88 87 95 90 93 92 72 67 60 62 52 47 59
56 81 46 44 66 33 9 27 92 99 99 93 98 99 99 99 100 94 95 91 100 100 100 84 98 99 99 99 94 96 93 97 82 81 81 79 78 79 71 70 65 69 64 48 50 50 54

GFSGBSN_700_rhum_018.txt.gz
RH
2 1 2 2 2 2 4 72 100 99 96 91 67 28 76 30 32 29 32 37 33 34 62 74 75 72 68 57 51 57 58 55 52 72 82 75 77 76 62 61 60 65 52 47 45 45 40
1 1 1 1 2 2 2 2 76 80 80 100 99 75 72 68 35 30 34 34 38 32 48 74 76 68 67 61 65 60 59 58 59 59 60 58 74 94 82 70 69 65 53 52 50 48 43
1 1 1 1 1 1 2 2 2 8 87 99 99 98 80 97 48 33 34 35 42 34 41 73 76 62 55 67 60 57 54 57 59 62 81 85 90 66 53 52 56 51 51 53 51 41 39
1 1 2 2 2 2 1 2 2 2 34 89 99 94 92 73 87 45 35 40 45 39 34 60 81 77 67 59 53 53 51 53 57 60 60 62 67 68 61 56 77 92 98 78 53 46 47
2 2 2 2 2 2 2 2 3 3 2 46 94 99 100 80 87 72 43 48 48 47 36 43 64 73 67 60 65 64 51 45 58 58 60 62 59 59 65 70 78 85 95 96 95 88 75
2 3 3 3 3 3 2 2 3 3 3 2 35 97 99 92 87 78 82 62 56 53 39 38 35 51 52 55 52 55 51 47 51 58 62 61 66 85 98 98 95 81 92 94 94 95 71
3 3 4 6 5 4 4 3 4 3 3 3 11 53 70 98 88 99 99 88 74 58 49 38 39 38 35 38 46 46 48 57 57 60 58 61 74 100 97 95 99 92 90 93 98 94 91
4 5 14 98 92 34 11 40 88 46 70 9 8 37 97 100 98 100 98 94 68 61 51 47 42 37 31 31 40 49 49 54 56 58 64 74 66 64 73 94 99 96 95 99 94 71 57
4 6 35 98 82 72 34 95 93 86 85 88 16 41 99 98 99 99 98 90 76 71 65 54 47 42 37 38 41 44 51 65 75 76 75 74 68 71 70 76 94 95 97 98 75 54 51
5 12 66 75 66 60 41 89 95 90 92 88 83 10 100 97 98 98 86 99 75 82 70 58 48 49 47 52 54 49 55 75 93 87 89 91 81 86 88 86 84 81 75 68 73 89 98
12 52 73 79 78 61 44 78 87 88 91 66 84 17 95 96 98 98 80 98 96 88 93 54 62 57 54 61 66 57 63 96 100 100 94 80 80 78 87 83 92 98 80 77 90 93 94
51 79 76 84 81 72 69 75 79 94 98 75 67 66 100 100 98 98 97 98 99 84 89 72 66 77 92 85 72 76 74 98 100 99 98 96 93 100 97 86 83 95 96 94 97 97 97
80 77 76 83 88 77 81 52 86 98 97 74 73 58 98 100 98 98 96 100 94 88 63 68 77 82 100 98 100 92 86 99 98 100 99 99 98 100 97 93 91 97 98 97 98 97 84
59 82 78 84 90 78 71 68 94 98 97 90 78 79 96 97 98 98 96 95 90 70 64 70 65 76 93 74 92 100 98 100 100 100 98 93 88 74 75 86 87 90 86 93 94 94 86
81 83 84 80 89 75 54 81 84 96 97 92 81 86 94 98 98 98 99 97 72 65 61 56 72 76 83 80 85 100 99 100 100 100 98 90 89 78 70 71 91 99 98 71 92 95 97
77 84 88 83 86 76 42 46 70 75 96 96 90 90 96 96 98 98 99 81 76 70 61 61 51 55 73 92 92 100 83 55 79 86 95 90 96 84 75 86 86 92 95 98 98 96 92
62 87 90 82 89 74 29 35 48 52 96 95 100 89 91 82 98 98 98 89 84 72 60 61 58 58 79 95 100 98 66 52 52 54 74 100 98 91 89 88 73 92 100 99 92 96 91
85 89 90 83 95 77 24 22 36 42 94 98 98 86 85 96 97 98 100 90 81 74 70 68 72 74 81 99 91 87 76 57 63 60 62 89 97 98 82 78 69 79 67 60 87 84 90
90 92 86 81 95 77 10 32 41 40 86 98 95 76 97 96 98 98 98 97 89 81 78 76 86 87 93 99 96 90 86 64 71 79 67 68 98 98 91 90 99 96 88 97 88 84 76
87 94 85 87 90 82 13 58 48 34 78 98 99 87 98 97 98 98 100 93 89 87 91 94 99 95 99 100 100 86 77 77 80 76 78 85 86 93 94 88 96 97 96 97 97 96 80
92 90 82 89 96 84 16 51 31 43 99 98 93 88 96 98 99 100 89 80 86 89 90 91 99 91 99 99 97 99 81 70 85 88 97 97 96 95 95 98 98 97 97 95 96 87 91
89 86 80 90 93 63 17 32 32 94 97 95 95 98 96 84 94 97 85 77 82 84 86 96 94 86 99 99 98 90 74 71 86 92 97 97 97 99 97 97 99 99 99 99 98 99 100
93 88 85 76 91 62 12 19 93 96 98 98 99 98 98 92 97 94 86 84 84 88 87 98 95 99 96 96 98 94 96 88 89 94 100 100 99 98 88 95 98 99 96 98 100 89 94
92 87 90 82 83 67 11 21 87 97 97 97 98 99 97 95 95 82 84 93 95 91 99 97 99 99 97 98 99 99 100 82 76 69 79 91 99 99 95 99 98 95 100 93 72 72 77
91 80 88 69 59 66 10 20 94 100 98 97 97 98 99 95 92 100 97 91 92 91 96 93 97 98 99 99 99 96 84 73 62 61 69 85 100 98 99 99 86 73 99 96 98 82 80
73 57 79 65 73 62 13 15 94 100 83 96 99 99 97 96 91 94 91 90 95 99 98 96 96 90 89 98 99 97 88 94 88 85 87 92 99 100 98 98 89 87 82 99 98 87 80
71 61 75 67 40 62 20 13 82 100 97 91 100 100 100 99 93 85 85 80 98 99 99 98 91 84 89 99 98 97 82 89 84 88 96 98 97 99 98 92 80 75 68 87 78 65 73
69 65 67 60 40 57 29 12 82 100 100 93 100 100 95 99 97 93 89 86 94 98 98 98 98 95 99 98 98 97 85 82 88 83 85 86 92 94 99 97 75 79 70 67 57 50 63
23 58 67 60 41 53 35 10 59 98 100 98 100 93 92 98 93 85 86 87 98 99 98 97 98 93 99 98 98 97 97 93 88 79 75 78 73 82 79 73 73 79 76 63 54 54 58

GFSGBSN_700_rhum_021.txt.gz
RH
1 1 1 1 1 1 1 1 2 2 49 99 100 97 94 76 80 59 38 31 29 38 37 47 63 71 71 58 54 60 59 60 62 77 95 86 69 61 62 54 55 61 47 42 34 32 32
1 1 1 1 1 1 1 1 1 2 7 25 100 54 95 96 75 83 49 35 32 40 37 46 64 71 72 66 68 62 57 62 64 60 92 86 97 85 81 71 75 66 54 52 48 45 44
2 1 1 1 1 1 1 1 1 1 2 2 29 82 100 100 96 86 77 41 38 41 40 40 55 74 64 71 64 62 62 58 61 62 65 80 81 89 87 80 83 76 66 60 46 43 50
2 1 1 2 2 2 2 2 2 2 2 2 2 24 97 99 100 86 84 64 48 47 44 38 47 68 70 62 64 64 61 58 60 63 64 84 96 98 93 71 69 73 68 57 49 42 42
2 2 2 2 3 3 4 3 2 3 3 2 3 4 85 99 100 94 90 82 66 55 58 50 40 48 68 67 68 59 54 54 60 65 69 72 71 78 77 72 67 62 74 73 64 59 63
3 2 2 4 12 9 9 7 6 4 15 21 4 4 5 97 99 98 99 94 86 68 70 95 46 43 47 60 62 68 70 66 58 63 71 68 72 72 72 65 72 65 77 76 75 72 66
3 2 4 13 21 77 63 35 19 13 58 97 77 22 4 71 98 99 99 100 98 82 68 46 45 48 41 43 44 51 55 63 61 64 67 71 75 77 61 71 75 84 93 93 94 88 78
3 3 4 9 19 55 68 58 50 43 85 86 96 87 8 4 90 98 98 92 84 60 57 57 50 44 42 42 44 56 54 53 56 57 64 72 70 60 72 93 100 99 99 97 94 88 78
3 3 4 12 46 78 76 50 56 68 95 89 76 87 52 4 68 98 98 99 90 82 78 59 50 46 46 44 45 42 53 59 57 61 61 62 67 67 72 80 91 100 100 100 98 85 71
4 4 6 16 63 75 71 58 72 79 91 79 95 67 60 24 64 99 98 98 85 79 87 64 52 48 49 46 46 47 47 57 64 65 71 75 68 74 81 86 84 91 86 84 82 95 95
4 5 7 28 75 75 72 66 60 71 81 88 99 78 56 54 64 94 98 98 98 85 73 55 59 61 53 57 59 51 57 73 81 80 77 71 75 80 85 79 93 96 96 92 92 95 100
4 6 11 72 79 76 76 73 67 58 83 96 91 73 69 64 82 97 98 98 100 84 94 69 64 71 74 81 91 68 66 97 98 99 99 98 97 100 95 89 90 94 89 96 96 97 96
5 7 14 79 82 79 82 77 53 77 96 97 100 93 80 68 78 98 98 98 95 78 61 73 77 98 99 100 100 93 99 100 98 99 98 99 95 98 93 100 95 100 97 96 96 97 82
6 8 42 82 85 80 86 68 46 63 84 96 80 93 83 55 97 94 98 98 91 69 64 79 81 100 99 98 100 98 100 99 98 99 99 93 81 70 93 65 79 87 89 84 89 85 71
8 19 79 87 86 82 81 64 37 44 72 96 95 83 90 63 99 97 97 97 70 63 54 59 100 99 99 100 96 99 98 98 98 98 99 92 99 88 77 80 85 98 100 87 94 85 96
13 67 87 91 83 82 79 61 26 78 80 94 100 100 73 97 98 98 98 90 71 62 57 54 72 87 93 92 81 98 88 73 84 95 100 94 90 78 75 80 83 99 98 98 97 96 86
44 96 88 89 80 84 71 52 37 76 79 94 91 97 76 96 99 98 97 95 69 66 61 64 57 62 68 66 79 94 83 53 56 54 91 99 99 84 78 73 59 94 98 97 97 94 86
47 96 87 87 85 91 76 49 27 44 61 95 98 100 76 96 98 97 97 92 73 68 64 62 58 58 67 75 95 98 74 58 60 63 68 64 100 99 66 54 66 75 86 90 97 77 89
44 79 86 82 86 84 73 25 48 39 90 88 97 99 80 88 95 96 97 90 75 73 67 70 71 78 81 87 87 90 84 81 69 70 77 73 97 99 77 84 89 96 82 95 97 98 94
47 81 83 89 86 83 54 14 39 41 43 92 98 96 98 99 98 97 90 91 84 82 77 73 76 85 92 98 97 93 81 76 81 76 84 84 89 80 73 71 96 97 97 97 97 97 82
59 85 80 87 82 82 41 13 51 50 92 97 96 87 97 97 99 87 89 77 83 82 81 86 94 91 97 98 99 99 85 89 82 85 91 99 97 91 85 89 98 98 98 98 97 85 96
25 77 81 90 75 71 29 13 64 94 98 97 100 97 98 90 94 81 84 78 75 76 81 89 87 88 97 97 96 99 88 94 86 76 90 99 94 93 87 93 98 97 97 100 98 99 96
7 32 77 91 66 56 22 15 88 98 96 99 95 96 99 94 93 98 96 78 79 88 86 88 92 96 98 98 95 90 94 96 91 100 100 100 100 99 95 97 98 98 99 99 99 100 93
5 17 45 86 60 65 31 16 76 98 100 97 95 98 99 93 88 81 82 79 81 91 95 94 99 97 99 98 100 93 96 94 96 87 96 97 100 100 98 98 98 98 100 100 99 100 97
4 9 34 78 61 27 25 25 75 95 87 89 99 99 98 91 88 82 81 84 96 96 97 97 92 97 95 99 99 98 80 79 62 66 70 75 89 99 98 99 92 98 99 100 99 99 90
4 4 33 68 63 17 15 12 68 87 78 95 98 98 98 96 90 95 84 88 94 92 97 96 94 99 100 98 95 99 87 86 83 86 93 94 99 100 99 98 97 86 98 96 99 76 80
4 4 14 73 66 32 19 9 54 89 82 97 100 98 98 98 91 92 84 83 92 91 93 98 98 96 93 94 97 97 94 86 79 82 90 94 92 96 93 98 79 77 75 72 66 67 73
5 4 6 24 24 24 25 9 45 86 86 95 100 99 99 99 93 83 83 88 91 95 97 97 97 93 96 99 99 92 96 80 77 77 83 85 90 90 96 96 84 79 68 71 60 59 70
5 4 6 14 44 27 33 25 24 84 98 97 99 100 90 96 96 95 91 89 98 100 99 98 97 98 96 99 98 99 93 94 87 83 76 79 76 80 81 73 73 71 74 68 56 58 70

GFSGBSN_700_rhum_024.txt.gz
RH
4 3 3 2 2 1 1 1 1 1 1 1 2 34 98 100 93 85 85 67 40 36 36 37 46 65 73 61 60 55 60 54 64 88 88 79 69 67 68 61 54 49 40 32 32 29 32
5 4 3 2 2 1 1 1 1 1 1 1 2 18 70 98 86 99 86 95 60 38 39 38 44 71 82 66 67 62 62 65 67 69 93 90 96 96 84 73 72 64 50 46 41 40 40
6 5 4 3 2 1 1 2 2 2 1 1 2 2 14 30 72 82 96 100 87 50 44 40 42 63 76 77 68 66 57 56 70 78 79 92 100 98 98 87 83 73 60 54 43 41 48
7 6 5 4 2 2 4 8 4 4 3 2 3 3 2 3 68 98 99 99 95 73 53 43 41 49 76 71 67 66 66 65 68 77 92 94 85 99 91 91 83 66 57 68 54 42 44
9 7 5 3 3 26 33 46 50 25 9 5 8 31 4 4 22 89 98 98 97 89 71 53 43 42 69 73 67 64 66 65 66 68 83 86 99 98 99 99 96 86 73 85 80 50 60
11 8 5 3 5 30 78 99 98 64 36 26 63 97 56 4 4 99 98 99 99 99 82 92 56 49 50 66 77 66 63 59 61 67 71 75 80 90 79 92 72 68 89 81 74 77 58
12 8 5 3 3 4 15 94 90 62 53 79 94 94 87 37 4 87 98 98 99 100 97 96 47 52 42 55 72 76 76 72 72 72 78 74 79 66 64 74 88 86 91 86 85 84 78
12 8 4 3 4 7 47 87 76 63 60 76 96 85 83 76 16 51 97 98 98 75 74 56 52 49 48 51 63 64 65 69 73 82 94 81 78 66 75 71 74 96 100 96 89 89 82
12 7 4 4 10 61 89 85 73 67 78 79 78 78 94 56 59 56 98 98 99 98 89 66 56 56 54 50 56 61 58 60 68 73 64 70 72 56 62 74 98 99 100 99 99 95 94
11 5 4 6 49 87 95 84 79 74 58 55 79 94 97 54 40 37 79 98 99 98 98 75 55 52 53 50 55 49 60 70 70 66 68 83 80 72 76 85 85 92 90 96 99 98 84
9 4 5 16 96 96 94 84 80 75 57 68 91 97 90 72 70 54 30 98 98 98 94 68 61 61 55 56 58 54 62 80 80 63 68 76 64 70 92 64 82 95 84 93 99 99 98
6 4 11 94 92 96 90 79 80 68 56 80 96 97 77 74 82 68 52 96 98 97 81 74 78 65 62 65 68 63 71 72 89 90 89 97 80 87 88 87 92 90 97 98 100 100 94
4 9 72 92 96 90 76 75 73 60 41 54 75 95 96 83 80 72 98 98 97 95 75 83 86 97 94 99 99 86 90 99 95 99 99 97 93 80 93 98 95 97 96 77 88 94 63
4 36 98 92 94 75 80 78 62 50 42 68 85 96 90 89 73 70 96 98 96 85 97 92 96 99 100 96 99 100 99 98 99 98 96 96 84 83 97 99 98 100 99 72 64 50 40
4 45 96 92 83 78 87 78 66 36 37 71 85 88 93 76 91 94 97 98 94 64 50 83 99 100 98 100 93 100 98 99 99 96 94 100 96 70 63 76 92 95 98 80 93 76 73
4 56 94 88 76 80 77 74 46 30 68 71 94 88 97 66 89 100 97 97 75 62 50 65 100 100 99 99 100 97 99 80 98 98 98 95 97 78 76 75 75 94 97 96 98 81 66
4 72 96 83 82 85 83 71 19 36 53 91 97 98 98 96 83 96 96 96 72 70 60 67 75 95 100 96 93 98 90 61 52 57 99 100 94 88 84 69 75 91 99 98 91 94 64
4 64 97 75 89 84 84 22 27 37 33 75 96 99 99 96 98 99 92 93 69 74 68 66 64 62 77 67 74 83 69 62 56 58 68 78 98 100 88 67 68 84 92 95 96 86 96
4 42 84 83 93 78 72 11 30 71 46 83 96 94 95 98 96 96 96 96 78 69 71 65 60 64 66 69 79 82 76 72 67 63 73 89 98 95 71 77 80 99 72 90 98 98 94
3 20 44 80 93 64 23 13 65 90 90 83 93 97 98 95 94 89 96 95 93 72 68 69 66 74 79 84 84 90 83 81 80 79 88 92 88 78 71 59 73 98 96 98 98 98 80
4 5 16 65 94 38 16 18 61 83 96 96 98 98 100 99 99 97 92 92 76 69 73 73 73 73 85 90 96 94 96 87 79 82 88 94 98 89 66 80 86 85 92 100 98 94 97
4 3 9 45 73 30 16 45 68 88 93 95 95 96 93 100 76 81 94 89 80 74 70 63 84 89 87 94 96 94 90 97 92 93 100 99 98 92 84 78 95 98 94 99 100 100 99
4 3 5 22 32 20 24 48 75 85 83 84 94 93 98 97 80 83 73 75 76 80 83 84 89 90 91 94 99 99 99 99 96 98 97 98 97 99 97 86 86 98 99 100 99 100 99
4 4 3 10 24 12 32 49 67 79 84 83 79 99 88 91 84 86 83 78 82 92 87 84 88 91 93 98 98 98 93 92 94 94 99 99 100 100 98 93 95 98 99 99 98 98 98
5 4 3 5 9 11 21 32 59 75 86 92 89 99 93 90 83 80 76 81 86 88 90 89 92 97 100 96 98 92 87 94 83 85 93 95 100 98 97 99 83 95 96 99 99 86 93
6 4 3 4 5 4 12 17 41 66 76 98 99 90 91 96 88 86 81 80 80 85 90 87 95 98 100 90 96 98 88 83 96 88 99 100 100 100 99 98 86 79 92 81 89 76 89
6 4 4 3 4 5 3 13 27 60 78 95 96 99 100 93 92 83 78 80 84 84 86 95 98 100 99 98 99 98 98 86 86 92 95 93 100 99 99 98 81 73 72 65 74 76 85
6 5 4 3 4 6 5 6 11 52 76 99 99 93 100 98 95 87 88 75 82 87 89 92 98 99 100 97 99 95 99 89 84 72 83 89 98 99 97 99 84 71 73 72 65 73 83
6 5 5 4 4 7 7 6 8 35 73 95 100 84 99 100 100 86 96 98 98 100 98 97 99 98 100 100 96 98 97 92 88 86 78 88 79 90 86 72 75 68 68 64 57 62 74

GFSGBSN_700_rhum_027.txt.gz
RH
7 8 7 6 6 6 5 5 4 3 2 2 1 1 1 2 12 48 98 89 95 89 43 37 37 42 60 69 74 60 64 58 58 87 88 68 53 82 85 73 73 85 76 68 77 83 68
10 9 8 7 7 7 7 6 4 4 3 3 2 1 1 1 5 100 100 96 98 96 74 40 39 44 59 73 81 65 67 65 63 76 88 95 100 98 95 92 87 87 86 78 80 59 43
12 11 10 10 9 8 7 4 4 7 10 10 5 2 1 2 5 84 99 100 95 99 95 42 42 50 62 76 76 74 73 74 69 62 90 100 100 99 96 99 97 76 74 76 47 43 71
13 14 13 11 10 7 8 12 33 55 64 55 16 7 4 4 3 52 67 91 91 99 97 61 46 48 60 66 80 72 70 68 71 69 75 89 95 98 100 100 92 70 90 80 64 66 76
14 16 15 12 8 4 5 53 92 99 95 86 53 25 41 77 32 3 19 83 80 99 100 87 51 44 60 58 76 77 72 73 69 70 90 99 97 100 97 100 94 91 72 64 61 72 77
15 17 15 11 5 3 19 89 100 92 83 82 73 78 89 90 95 20 9 60 95 98 99 99 67 52 50 58 74 69 73 81 73 72 78 96 98 94 99 98 76 61 66 65 59 58 74
16 18 14 7 3 18 94 99 94 94 85 79 83 75 95 92 86 74 19 65 98 99 98 95 62 58 62 54 78 77 75 83 79 77 77 81 95 97 89 85 76 68 71 64 62 66 70
18 17 11 4 5 56 98 96 90 91 85 85 78 84 93 89 65 76 62 99 98 98 98 98 64 54 51 54 76 87 82 80 89 90 100 88 76 80 87 86 84 82 79 72 69 70 70
18 14 6 6 29 96 97 90 86 84 86 93 55 55 83 87 87 55 75 72 98 98 98 98 66 56 66 58 88 79 83 94 94 100 98 99 90 73 91 94 93 85 82 77 76 74 73
18 10 6 32 98 94 88 87 85 80 87 73 57 88 96 94 88 60 55 42 98 98 98 99 90 68 62 66 66 62 72 94 100 97 99 97 90 76 67 94 90 81 76 77 76 80 67
15 7 16 90 96 90 88 79 77 84 88 59 70 89 89 98 87 66 51 31 66 98 96 87 99 94 65 66 86 65 80 93 100 99 93 93 69 96 98 86 94 90 93 90 86 86 93
12 6 33 97 93 87 82 84 86 70 60 65 74 54 77 83 82 78 66 65 97 98 96 100 99 73 72 93 69 77 87 82 98 100 100 90 97 89 97 79 98 97 97 97 93 91 84
8 5 43 94 90 82 82 87 68 62 50 66 59 68 64 81 86 76 98 81 96 97 98 98 99 95 85 98 100 81 99 97 92 99 99 99 100 99 89 100 98 100 96 71 82 92 65
7 5 53 94 89 86 86 84 73 41 43 81 72 52 73 83 91 84 98 97 97 96 96 100 100 95 100 99 100 99 100 98 99 97 93 95 87 96 97 98 97 93 93 64 58 47 39
6 5 72 96 90 90 78 80 45 25 40 83 75 91 96 96 85 82 97 98 97 89 95 99 99 99 99 98 95 100 100 98 96 100 97 85 90 81 99 100 98 99 98 68 80 68 64
7 5 60 95 89 86 74 59 21 31 37 59 91 96 98 95 86 89 98 97 99 93 74 99 97 97 99 100 100 100 96 96 99 100 96 98 90 89 98 99 98 99 92 90 97 79 60
8 4 40 83 88 68 46 13 24 30 37 80 96 96 98 92 94 94 96 97 99 95 100 95 96 96 96 99 98 99 96 88 97 97 99 99 92 97 86 62 79 98 99 96 83 97 65
8 3 16 55 78 33 13 15 30 41 90 81 90 98 91 93 99 99 88 98 100 96 77 91 98 96 97 96 98 92 84 86 77 82 100 100 99 96 88 74 80 77 94 92 96 71 89
8 3 4 19 46 20 12 24 62 88 83 88 88 98 98 84 87 95 96 98 97 89 73 71 83 89 93 92 89 88 88 69 60 58 96 97 97 90 84 81 84 87 85 87 98 97 96
9 4 2 6 16 17 21 38 68 83 78 85 89 95 97 95 93 76 89 97 95 78 72 62 68 70 85 93 89 93 98 79 67 64 85 98 99 72 72 68 79 93 90 95 98 98 84
10 4 2 3 5 15 29 50 67 76 90 82 79 88 82 79 88 93 93 94 86 79 69 69 74 77 96 95 97 99 100 83 80 82 79 92 96 94 96 88 75 93 97 90 99 97 98
10 6 3 2 3 16 36 53 58 76 81 76 94 100 99 85 84 95 94 88 98 73 78 69 81 82 91 100 99 98 100 100 99 89 89 95 95 99 97 82 99 95 99 99 99 98 99
11 8 6 2 2 12 37 51 54 66 81 69 76 94 95 90 100 96 91 98 97 79 72 67 90 92 98 97 91 91 90 91 94 99 95 98 99 99 92 88 80 98 99 99 99 98 99
14 9 9 4 2 2 25 44 53 61 81 75 78 87 89 100 96 99 89 80 74 79 86 83 81 85 93 88 92 91 88 90 96 98 98 96 95 95 93 83 86 87 98 96 98 99 100
18 10 11 9 3 2 4 34 47 57 75 78 87 74 90 100 100 100 83 80 80 88 85 82 85 87 96 92 90 92 90 98 86 97 98 99 97 97 94 84 73 89 96 87 94 95 100
21 11 10 10 5 2 2 10 33 53 67 76 91 100 83 76 73 77 77 74 86 90 88 87 87 92 88 98 89 100 97 83 93 96 99 100 99 99 99 96 81 78 84 84 86 94 93
22 15 9 9 7 3 3 2 22 40 61 82 84 98 96 100 91 81 80 91 80 83 96 94 97 96 92 95 95 99 91 90 84 80 95 99 99 98 99 98 86 76 78 78 88 81 97
23 18 11 8 8 4 4 3 4 28 50 73 85 98 100 99 98 94 99 99 94 96 99 88 93 97 99 99 92 89 98 97 88 84 90 94 97 98 99 99 87 70 77 82 75 67 78
25 19 13 10 7 5 7 7 4 10 39 68 79 92 97 97 100 92 99 93 94 99 98 95 97 97 98 94 90 95 97 99 96 81 80 91 83 88 89 76 78 78 77 73 65 67 76

GFSGBSN_700_rhum_030.txt.gz
RH
10 12 14 15 15 12 11 10 10 9 8 7 6 6 5 3 2 1 3 34 76 88 100 92 48 36 38 54 63 50 66 60 74 80 77 60 23 33 59 64 84 84 73 71 59 56 69
9 12 14 16 16 13 12 11 9 10 19 15 14 15 12 4 2 1 2 15 48 92 98 95 73 39 39 56 78 54 72 65 63 76 80 85 75 64 77 79 78 73 76 79 67 63 51
8 11 14 17 16 14 12 9 7 22 64 88 77 46 16 9 3 2 2 7 90 97 99 99 91 45 40 52 77 52 71 68 69 80 89 97 99 93 92 88 87 81 89 74 64 42 37
7 12 15 17 15 12 8 6 21 61 97 98 94 89 60 56 39 65 23 7 99 99 98 98 97 54 38 46 62 65 77 73 78 63 84 98 99 96 86 84 89 78 83 76 44 44 39
7 12 17 17 13 8 6 33 85 99 98 92 88 86 73 81 81 91 99 11 73 99 98 99 99 72 42 35 57 75 78 75 77 99 81 98 100 99 99 91 93 90 87 70 67 62 62
9 14 18 14 9 8 17 85 98 93 92 90 90 86 82 85 95 94 87 68 24 97 98 99 99 90 55 35 45 68 83 78 69 80 98 98 100 99 92 95 91 81 78 73 64 63 66
11 17 17 10 10 26 76 92 90 92 90 84 86 87 70 86 90 89 81 76 32 94 99 97 98 93 50 33 42 68 81 77 75 76 86 100 100 100 93 87 79 86 74 63 59 58 62
14 19 15 10 38 89 95 93 93 90 83 79 85 94 55 94 92 89 79 78 97 74 98 98 98 100 66 42 48 87 80 87 90 93 99 92 98 91 92 89 86 78 77 73 69 65 65
18 18 12 11 72 94 93 89 86 81 79 80 86 71 55 94 97 94 79 74 77 97 98 99 98 90 64 50 47 70 82 96 98 100 99 98 88 77 90 89 82 75 82 79 75 70 65
20 17 10 16 89 93 87 85 87 93 76 74 69 60 83 87 81 95 86 72 20 97 98 98 98 97 68 72 73 79 89 92 100 99 98 97 96 88 70 96 89 88 78 76 76 77 72
20 14 8 38 93 90 85 85 84 79 66 54 54 62 56 83 72 83 91 51 28 97 98 99 99 97 80 76 76 89 100 100 98 92 99 92 92 98 85 71 88 86 85 84 83 85 86
19 12 7 47 95 84 87 78 81 76 68 49 53 47 52 50 62 81 98 82 35 95 97 98 98 100 86 100 98 75 99 98 98 93 94 93 93 73 79 86 89 92 88 82 82 84 92
18 11 6 35 82 87 76 62 76 30 32 38 50 52 48 57 84 80 97 90 64 96 98 100 99 99 89 100 98 77 98 96 86 94 97 94 93 96 79 84 83 96 88 86 96 96 88
16 9 4 13 40 78 30 52 24 26 29 42 46 76 73 82 96 75 76 74 96 96 98 99 99 98 100 99 95 99 99 98 98 84 86 93 84 92 94 88 94 89 88 76 80 85 66
15 8 4 4 20 24 17 20 23 29 36 80 91 88 96 97 99 67 99 66 80 95 96 99 98 100 99 98 93 95 98 98 96 94 90 86 87 88 98 95 95 98 97 78 85 66 74
14 8 3 2 14 13 12 16 45 92 100 100 80 90 94 88 88 91 95 96 97 97 98 95 94 90 98 95 96 94 91 90 98 97 91 88 86 88 99 99 96 97 88 92 91 97 80
14 9 4 2 11 12 13 55 96 97 100 92 91 85 86 80 94 100 96 97 98 98 98 95 80 96 94 91 92 92 87 89 95 99 92 96 90 93 92 91 80 90 98 96 90 87 91
15 11 5 2 8 15 35 84 90 93 85 96 72 98 85 77 92 83 97 98 97 98 94 96 87 87 90 85 89 92 82 87 88 98 98 95 90 94 79 71 65 88 81 78 87 72 76
16 12 7 1 8 23 49 65 78 76 85 85 81 87 99 64 81 90 97 96 98 97 95 91 96 91 88 88 87 90 88 83 95 92 88 90 95 96 93 86 82 82 80 86 91 88 90
19 13 10 2 3 25 46 59 80 86 78 74 73 82 89 85 77 97 96 96 94 88 92 75 82 89 86 94 87 86 90 86 62 91 98 90 96 70 83 88 88 90 79 82 95 98 88
22 14 12 7 1 16 44 53 66 74 76 64 63 68 86 96 78 90 96 94 97 85 81 89 93 94 88 87 92 94 98 81 68 64 80 94 99 88 74 60 65 62 72 83 98 92 99
24 16 14 10 2 3 35 48 57 67 80 74 56 80 63 75 93 90 96 96 100 90 95 93 74 83 95 90 92 94 98 89 81 80 89 92 98 96 72 66 84 92 84 92 99 100 99
26 20 15 12 7 2 10 42 51 60 71 74 65 61 60 62 85 94 97 99 93 81 74 79 91 95 98 94 90 88 97 97 94 94 91 98 95 87 83 75 80 92 90 93 92 98 96
25 24 18 15 10 4 1 21 46 54 62 66 69 89 91 100 96 98 93 82 81 86 78 74 83 93 92 87 85 86 84 87 88 90 89 84 87 93 89 80 97 81 89 97 89 97 99
25 26 20 17 14 10 3 1 30 49 60 72 67 76 77 89 98 91 85 86 81 86 99 96 82 85 86 85 86 91 83 92 89 91 93 91 98 92 97 91 69 83 87 97 89 90 99
24 26 22 19 16 13 8 2 3 32 53 68 87 87 89 91 96 95 94 79 99 100 88 85 84 81 88 93 77 92 92 91 100 97 98 97 99 99 100 97 91 75 76 84 85 98 91
20 25 23 20 18 15 10 4 2 12 42 64 82 88 97 98 96 87 97 100 100 99 99 99 97 92 88 92 84 91 91 84 86 98 98 98 99 99 100 98 79 67 79 80 84 75 73
19 23 23 21 18 15 13 6 3 2 20 54 88 98 100 96 100 96 95 100 96 94 98 96 92 92 99 98 93 88 78 84 88 89 93 86 90 97 99 99 91 84 81 86 76 74 68
18 22 21 22 18 14 11 6 6 3 3 37 82 100 100 99 100 100 96 82 83 93 97 99 93 93 97 98 94 89 91 94 93 89 85 84 84 92 83 81 81 87 80 77 70 63 67

GFSGBSN_700_rhum_033.txt.gz
RH
8 8 9 11 13 17 16 15 13 11 10 21 27 38 54 34 19 8 4 2 10 79 92 87 98 89 38 34 31 43 66 53 65 60 62 49 34 36 63 29 40 62 49 62 55 41 57
7 7 8 11 16 18 16 13 10 10 23 60 98 97 87 83 36 15 5 3 4 70 80 90 98 97 50 34 40 43 64 66 82 86 96 82 52 33 45 47 73 80 84 75 72 58 58
6 7 9 13 18 17 13 11 11 20 85 100 97 96 92 80 67 60 28 9 4 7 45 91 99 98 75 37 44 40 47 67 66 77 94 91 88 58 62 76 83 85 76 76 56 46 46
6 7 11 18 18 14 12 16 32 96 99 96 92 91 94 82 74 75 78 91 71 5 29 87 99 100 90 45 44 35 52 70 65 64 90 98 98 85 76 89 79 83 82 75 39 44 38
7 10 15 19 15 14 40 92 97 92 90 92 94 89 90 82 77 83 93 73 81 31 73 89 99 98 91 54 36 45 68 70 70 71 84 99 99 97 92 86 78 77 77 64 64 57 62
8 12 19 17 14 26 95 95 90 86 88 85 87 84 79 84 80 78 76 90 74 49 99 98 99 100 92 61 37 53 79 82 77 86 82 95 97 99 100 99 91 73 78 78 77 65 70
10 17 19 14 11 46 92 85 77 75 81 81 81 77 85 74 84 93 81 70 61 32 98 98 96 100 81 57 42 54 85 78 84 99 94 99 98 98 95 73 77 74 88 82 67 66 69
12 20 16 11 15 79 81 77 77 76 80 77 72 73 73 76 93 95 97 95 72 73 94 98 98 98 78 56 41 68 84 85 78 86 96 98 97 87 94 94 90 85 97 87 68 62 63
15 20 14 8 38 86 91 85 78 82 80 70 60 56 58 74 78 84 97 90 74 88 97 98 98 98 85 58 53 60 82 84 82 92 87 80 94 97 99 100 98 89 86 78 69 51 44
19 20 12 6 46 45 82 60 81 84 65 60 50 53 80 76 68 73 92 76 59 95 96 98 98 99 92 76 73 80 94 87 97 99 99 93 87 84 94 89 88 86 80 80 82 76 69
21 18 10 4 33 17 30 20 28 30 36 46 50 54 53 73 49 64 89 67 80 89 96 98 98 99 96 72 73 98 100 100 96 95 96 92 91 86 88 71 90 90 86 81 78 78 79
22 15 9 2 17 12 16 21 22 24 27 36 52 56 54 44 46 68 94 82 54 82 94 98 99 96 99 89 86 97 100 98 99 98 97 94 86 88 92 83 90 92 87 76 71 81 90
22 14 9 1 13 12 14 17 21 29 44 44 87 98 86 51 76 76 95 41 44 94 97 99 99 87 87 98 97 100 99 97 93 98 99 100 93 86 82 80 86 94 86 87 91 92 88
23 14 9 1 12 12 13 45 88 99 93 90 92 94 84 76 77 78 58 41 66 96 98 99 98 93 95 95 97 100 99 99 87 85 94 85 75 83 72 82 74 85 83 74 87 98 82
23 14 9 2 11 18 50 77 81 82 97 91 88 93 93 99 85 80 99 82 90 98 98 98 99 93 100 89 89 100 100 98 83 80 74 81 84 89 87 92 93 93 90 88 90 77 83
24 15 11 2 16 44 68 74 82 86 90 79 84 93 98 92 87 87 92 91 94 98 96 89 94 89 96 92 89 94 92 93 88 77 84 84 85 96 92 95 95 90 79 95 94 98 92
24 17 13 2 20 41 56 76 77 82 69 68 85 82 94 83 93 95 96 98 98 98 95 97 93 97 82 88 86 86 84 90 76 75 91 86 84 86 96 92 78 93 97 92 88 86 96
25 19 14 4 15 39 48 73 79 76 64 68 61 65 76 90 94 97 98 98 97 94 84 87 72 74 79 82 94 84 75 87 95 85 95 94 86 90 81 72 79 77 70 88 82 64 85
25 21 16 9 3 35 47 63 70 61 76 62 32 48 62 82 96 97 98 93 97 96 88 85 84 82 73 84 76 79 84 90 96 98 86 90 93 90 88 82 91 92 88 90 89 88 87
25 24 17 13 2 26 43 50 59 44 55 62 34 54 64 80 89 93 96 92 97 96 91 85 85 80 84 83 86 97 90 89 98 98 95 88 88 70 79 93 86 87 83 83 88 98 87
23 26 20 16 8 4 35 46 57 50 47 53 54 61 63 79 90 91 86 94 95 95 90 92 89 86 89 87 86 91 95 87 94 98 99 97 93 87 67 65 72 69 63 70 84 80 99
21 27 23 18 15 3 14 40 48 54 53 50 49 66 65 82 100 92 86 92 88 79 76 93 92 96 91 87 83 90 88 77 65 78 100 98 91 87 72 85 83 86 79 84 95 92 99
18 27 26 21 17 13 2 19 42 51 54 55 51 60 72 73 94 94 87 85 83 77 81 82 89 94 92 96 98 94 95 86 84 82 75 90 97 93 74 73 80 84 87 92 94 90 100
18 25 28 24 20 17 10 1 19 44 52 54 53 57 70 84 93 92 90 88 81 75 69 76 88 93 90 88 87 93 92 95 98 89 92 86 89 81 79 81 92 84 75 87 87 88 99
20 22 28 28 23 19 16 6 1 20 46 59 64 61 62 80 99 100 89 82 87 75 68 74 83 82 82 85 87 87 91 93 95 97 98 90 86 86 97 91 73 85 81 84 89 83 89
32 18 25 29 27 22 19 15 4 2 22 56 65 69 81 100 99 96 99 93 96 91 91 84 82 81 84 88 81 92 94 91 99 98 99 92 100 97 100 97 89 77 68 84 86 83 80
51 18 21 27 30 25 22 19 13 4 2 29 63 77 77 100 100 100 100 95 100 94 91 98 95 91 84 83 74 82 84 90 89 95 92 100 99 98 98 97 74 64 85 93 83 73 81
64 20 18 23 28 27 23 22 19 10 5 3 44 85 95 83 98 100 98 90 90 97 95 96 93 90 96 94 85 94 84 82 87 94 94 83 91 94 99 99 90 93 92 97 85 72 65
72 27 18 20 26 28 23 22 20 14 8 8 8 85 100 99 91 98 100 100 95 97 96 100 98 94 92 95 93 96 88 91 92 87 94 95 79 93 87 69 85 94 91 91 80 64 66

GFSGBSN_700_rhum_036.txt.gz
RH
8 9 10 11 12 16 19 17 13 11 14 50 100 98 95 94 93 97 44 18 9 3 8 71 93 100 96 66 31 37 36 33 36 38 31 23 20 22 21 27 31 39 38 34 26 29 35
10 11 9 11 15 19 17 12 11 30 69 78 92 96 98 95 85 85 82 56 29 11 3 83 97 100 94 90 39 37 60 71 49 69 49 39 29 27 30 24 39 52 34 39 45 35 32
14 12 10 14 20 18 12 28 62 94 88 85 85 90 93 88 85 85 76 64 61 49 3 80 100 99 89 88 45 41 57 73 73 81 81 79 59 56 42 45 53 66 76 76 58 32 42
14 10 12 19 20 12 9 35 34 50 68 73 77 79 82 85 83 80 75 85 78 81 24 50 100 99 98 97 57 33 53 71 75 90 97 100 91 69 52 81 83 87 86 80 61 37 38
14 10 16 20 14 7 13 42 58 89 76 75 76 75 79 80 82 78 77 79 82 98 65 65 96 99 98 98 66 41 57 64 68 72 95 99 100 81 64 88 90 89 90 82 53 48 44
13 12 20 20 10 7 34 48 70 88 88 84 78 76 76 80 83 83 86 82 81 78 68 29 82 98 97 92 74 40 76 74 74 73 89 99 99 96 84 84 89 71 68 63 65 55 70
14 15 21 17 8 17 30 56 54 80 92 94 79 65 67 67 93 93 89 78 78 71 62 60 93 98 99 99 61 54 81 80 80 92 89 99 100 100 95 81 87 79 80 88 80 78 73
13 18 22 14 5 12 30 37 33 50 67 89 61 49 55 63 80 82 88 98 85 79 58 98 95 98 82 82 58 77 82 86 95 100 97 98 99 98 99 100 99 100 97 84 73 78 78
13 20 21 13 2 12 18 21 31 31 40 41 41 46 51 83 78 70 80 92 85 61 78 97 95 96 84 56 48 72 87 87 96 100 100 97 98 98 98 97 100 99 80 88 86 72 67
14 22 20 12 2 13 13 15 19 27 26 35 43 41 46 51 56 59 77 93 69 73 96 97 98 99 89 62 61 66 98 85 95 100 100 99 97 94 100 98 95 93 79 82 83 76 67
16 22 19 11 7 13 13 25 48 46 50 50 36 41 68 74 57 48 90 70 58 93 96 98 99 98 86 69 71 88 100 98 98 97 97 90 95 91 81 89 97 91 85 79 72 79 80
17 23 18 8 14 27 48 70 72 81 96 98 92 92 90 90 57 79 95 56 83 96 96 98 98 99 94 70 81 95 99 99 99 98 100 92 92 91 83 82 80 92 84 78 73 74 85
17 23 18 7 21 35 68 65 72 84 90 87 84 80 81 90 93 89 86 79 84 91 97 98 99 96 85 96 98 100 98 99 98 99 98 98 90 82 81 89 86 85 75 72 87 98 86
17 24 18 8 24 40 64 68 74 61 64 80 76 80 90 85 97 87 71 63 80 94 96 98 95 95 94 93 100 100 94 99 97 85 93 97 98 88 76 66 62 73 72 62 72 95 87
17 24 19 10 24 39 59 69 70 50 68 67 76 80 68 82 79 79 60 64 89 96 98 99 100 98 98 94 99 97 96 88 91 82 73 88 87 94 88 76 68 84 93 82 86 89 90
17 24 21 12 17 40 52 60 68 51 56 56 60 48 56 84 87 82 85 93 97 99 99 96 93 97 98 88 93 95 95 92 90 78 68 73 84 92 90 93 95 85 81 91 86 99 84
18 23 22 15 6 35 45 35 59 64 43 35 51 69 80 91 95 96 97 99 95 95 95 94 85 96 84 86 85 88 88 85 88 81 79 80 74 95 94 90 84 94 94 86 78 82 94
20 22 25 16 2 30 37 31 46 28 32 42 58 67 88 94 96 92 97 98 95 95 84 88 78 71 77 75 87 84 82 85 74 75 80 82 83 86 84 84 79 92 86 78 80 68 93
23 21 26 18 7 23 36 25 36 29 32 46 59 73 87 85 88 90 100 100 99 82 80 80 71 71 68 78 80 78 82 82 79 88 84 83 82 82 91 77 84 91 80 92 80 79 92
40 20 26 22 15 4 32 33 35 37 28 38 44 50 67 80 82 80 88 97 99 94 82 75 71 76 79 76 80 81 87 92 88 95 90 84 82 66 78 82 74 81 71 74 89 97 86
53 21 23 26 19 7 16 37 38 37 42 41 45 50 61 78 90 97 89 93 93 91 84 77 76 73 80 82 84 91 88 92 97 93 96 94 92 80 72 79 90 86 79 85 87 76 93
56 38 21 27 23 17 3 22 41 39 44 44 46 53 59 72 76 79 76 86 87 94 97 87 89 89 86 84 84 88 84 88 93 97 99 96 90 82 70 72 74 71 66 68 76 83 92
64 50 20 26 28 21 14 2 21 43 40 42 55 56 51 54 65 76 75 74 76 78 90 95 99 92 88 95 90 84 84 79 76 74 88 94 89 91 70 80 78 84 80 94 92 92 95
77 55 25 22 29 26 20 12 2 20 43 45 50 63 66 66 80 82 74 77 73 73 72 75 84 94 97 94 95 95 91 89 89 88 84 82 88 90 79 80 96 88 88 88 90 86 87
92 76 45 20 27 29 25 20 14 2 19 40 51 62 71 78 91 87 75 76 64 67 70 77 85 85 85 89 92 98 99 97 97 96 94 90 87 83 95 94 86 82 85 83 89 69 77
96 93 63 20 23 30 29 24 21 18 4 18 47 59 66 76 82 92 82 74 83 81 71 71 81 82 85 93 93 95 92 99 94 96 96 94 94 98 96 98 94 87 75 79 96 73 76
95 93 78 28 19 26 31 29 25 22 19 7 10 49 65 79 76 89 100 98 93 88 87 93 95 87 83 89 85 89 92 95 98 90 95 99 99 99 99 97 75 62 88 94 88 82 87
96 96 92 44 18 21 29 31 29 26 23 18 9 11 71 84 97 94 99 100 97 91 88 89 94 96 90 90 84 85 94 95 96 98 96 96 99 99 100 98 88 93 90 94 88 82 73
97 96 95 53 19 18 24 29 30 28 26 22 14 10 31 100 91 99 100 99 99 90 88 96 93 95 98 98 89 98 90 94 86 91 93 98 82 84 78 75 82 88 89 91 86 80 68

GFSGBSN_700_rhum_039.txt.gz
RH
26 25 19 14 13 19 20 14 8 12 18 35 80 91 83 82 86 88 93 91 92 57 16 12 96 85 99 99 72 39 29 26 33 29 26 22 18 18 20 20 26 30 32 25 20 19 21
29 24 20 14 18 21 15 8 8 13 26 42 76 86 83 79 84 83 87 86 77 76 40 6 75 76 99 99 96 48 56 34 37 64 33 26 21 20 22 22 26 38 34 31 29 25 23
30 24 17 16 21 18 13 12 18 34 36 74 86 84 72 72 80 83 84 83 75 65 59 60 28 80 100 97 91 61 38 68 51 61 42 30 27 37 35 31 32 43 48 34 32 32 33
33 26 16 20 22 15 9 24 35 47 39 87 94 89 77 72 80 85 83 78 88 92 81 77 73 85 99 91 100 61 45 74 80 83 74 55 55 57 51 57 48 52 65 72 36 27 30
34 28 19 22 18 12 10 37 30 33 38 88 94 89 75 72 80 86 85 79 79 88 86 82 90 99 97 98 94 55 60 87 90 98 99 90 84 85 66 82 88 93 82 70 45 40 45
33 24 19 22 15 6 9 21 17 42 69 88 97 76 54 66 89 96 93 95 92 82 89 83 71 99 93 96 98 54 53 83 82 95 100 98 98 94 94 99 94 91 75 62 60 52 61
37 22 21 21 13 4 12 15 16 20 92 78 50 38 45 57 88 84 86 93 94 79 83 56 52 98 96 97 98 65 73 62 73 86 100 100 96 98 87 66 71 75 73 70 63 66 62
34 22 22 18 8 11 18 19 37 44 97 50 40 40 46 51 94 84 82 83 97 90 67 62 94 98 85 89 98 76 90 78 87 88 99 99 99 98 98 87 91 92 88 86 78 80 84
38 20 23 17 5 19 38 62 71 85 99 74 39 42 47 48 66 55 74 76 88 99 87 48 91 92 100 99 96 83 93 99 90 97 98 100 98 97 96 100 100 93 99 82 84 74 76
39 21 24 16 4 30 55 62 76 95 100 97 90 90 62 49 60 74 74 96 81 86 84 54 95 95 98 100 81 84 98 100 100 99 99 100 99 100 98 99 99 99 95 79 76 80 77
46 22 24 15 4 34 54 71 59 65 94 83 79 79 90 92 93 85 96 76 80 96 85 96 99 98 100 97 70 95 100 100 100 99 99 98 93 87 100 96 98 96 86 80 83 76 71
54 22 24 15 7 36 56 69 46 56 70 76 74 79 72 77 72 92 70 52 94 95 96 97 98 99 97 91 74 97 100 100 100 100 99 96 97 98 93 98 99 92 85 89 83 73 78
59 22 24 14 10 37 60 60 47 52 56 65 70 69 79 84 84 85 89 87 93 95 96 98 98 90 89 100 84 99 98 98 99 99 99 100 100 98 95 86 86 87 93 64 68 93 76
58 24 24 14 13 36 48 50 38 39 47 49 64 85 56 52 63 70 74 74 93 97 97 98 98 97 99 99 100 99 98 86 99 97 94 90 99 94 88 93 82 87 81 52 58 87 85
56 26 24 15 14 35 39 28 29 37 41 51 64 82 72 50 61 71 78 91 96 97 98 99 98 98 99 99 98 99 91 88 97 90 81 89 88 90 87 79 76 83 86 69 72 94 93
57 27 23 16 6 32 31 23 30 47 56 64 75 81 88 87 84 84 97 98 99 100 98 89 88 94 98 98 97 94 98 96 96 82 80 76 81 90 88 92 88 80 71 77 70 66 76
56 39 20 19 6 20 33 23 32 46 58 69 89 82 74 75 77 79 99 99 98 93 90 79 80 90 81 90 88 97 90 79 84 85 76 66 67 95 94 95 90 89 91 79 71 69 85
60 52 21 25 13 5 34 30 34 46 54 68 62 83 96 70 85 68 87 89 92 88 77 68 72 69 71 75 81 70 82 73 84 86 77 77 77 98 99 91 90 97 81 78 60 73 99
69 57 31 22 19 9 15 32 30 37 43 48 56 62 68 80 100 93 93 86 86 80 73 69 72 70 70 66 80 80 78 80 81 85 83 80 75 86 94 88 86 84 91 94 82 78 86
75 58 47 21 27 17 6 27 33 30 33 37 48 65 62 56 79 88 89 87 96 87 78 74 69 71 72 70 77 76 73 72 73 80 82 82 77 67 73 76 71 80 69 69 90 95 84
76 67 54 27 23 24 17 4 35 34 38 38 41 56 61 70 64 67 83 93 81 81 84 81 74 69 74 83 80 80 83 85 87 89 95 93 84 83 83 79 85 80 71 73 78 71 80
80 71 70 42 20 28 22 16 5 41 37 28 36 57 72 66 65 74 76 85 77 77 70 72 75 81 92 84 83 82 81 87 87 90 92 95 91 85 69 67 68 70 70 77 81 79 77
86 74 95 55 20 24 28 21 13 9 43 38 37 51 64 65 67 66 68 72 88 84 87 90 94 96 97 88 87 87 86 88 82 80 89 98 93 85 75 86 80 73 63 64 75 90 96
90 79 91 93 30 19 28 28 21 10 14 44 42 49 52 61 71 72 68 72 73 70 75 94 97 91 90 92 94 94 92 91 88 88 94 91 87 85 80 78 96 85 86 89 90 90 94
91 83 87 95 72 19 24 30 28 22 12 12 45 46 49 54 56 69 72 78 77 67 70 74 77 84 90 93 96 96 96 93 94 93 92 91 97 85 92 97 76 70 96 90 85 78 79
90 85 83 96 95 29 20 27 30 28 24 17 6 45 53 54 65 68 74 76 81 77 75 73 73 80 85 90 92 86 85 81 86 88 90 97 95 90 99 100 94 100 93 89 96 86 89
90 89 90 98 97 69 19 23 29 31 30 26 22 10 27 62 60 68 76 86 92 94 87 75 78 86 87 92 94 91 89 88 95 92 95 96 97 96 100 96 82 85 75 98 89 90 89
92 92 93 96 98 94 31 19 24 29 32 30 27 24 18 8 42 82 87 86 89 97 96 92 90 89 91 92 92 84 90 96 97 90 83 81 90 95 96 98 91 88 95 95 95 95 83
90 92 96 95 98 95 61 27 20 25 30 33 30 26 23 17 11 70 94 95 94 95 96 94 97 96 96 90 84 90 96 96 92 94 94 96 84 90 86 83 80 98 97 89 92 94 79

GFSGBSN_700_rhum_042.txt.gz
RH
48 39 30 23 21 22 19 15 15 32 52 49 46 67 60 87 83 79 78 80 78 80 82 83 20 17 100 99 98 67 52 33 28 26 25 25 21 23 24 28 37 35 34 31 25 26 28
42 41 31 22 22 22 16 10 29 63 64 77 62 98 88 87 82 71 79 86 86 86 82 70 42 62 99 99 95 86 48 32 26 26 26 43 24 27 30 24 26 34 34 27 23 24 24
41 44 31 21 23 18 8 16 32 64 52 91 98 100 88 86 79 76 81 85 83 84 73 66 73 96 100 98 92 99 60 40 28 30 30 34 35 36 37 35 34 43 37 30 21 23 25
36 44 25 22 22 14 9 21 27 51 52 95 89 99 82 74 78 78 79 86 81 87 94 68 81 97 100 100 93 98 61 80 39 48 64 42 35 48 57 52 48 56 56 51 30 24 24
42 50 24 23 18 7 21 38 48 52 51 82 88 94 48 60 68 95 92 85 77 78 92 88 93 100 100 77 97 98 64 79 52 76 83 66 46 58 65 64 69 78 68 55 44 31 28
40 51 24 23 17 9 34 56 56 65 80 90 84 46 32 44 74 87 87 88 91 89 82 77 87 98 99 78 96 79 64 87 74 96 93 90 79 72 72 96 88 90 83 52 41 37 34
39 53 27 23 12 20 42 59 65 59 74 88 84 48 43 44 57 80 77 67 74 87 80 82 66 88 71 93 98 73 89 99 91 99 95 92 93 87 89 91 84 72 71 66 53 59 56
44 57 28 22 7 30 46 59 58 46 84 93 94 92 89 41 49 67 56 68 70 87 76 83 71 98 79 94 98 75 78 96 87 99 99 99 100 96 90 84 93 94 86 74 70 70 74
37 59 26 20 6 35 46 58 46 55 92 86 85 80 86 93 46 58 65 62 78 88 87 68 73 98 97 99 99 89 69 84 81 82 92 99 98 99 99 97 87 96 91 80 78 77 79
37 59 25 18 8 35 39 50 46 57 91 86 75 87 79 91 86 77 72 84 82 89 64 58 97 99 100 92 98 99 98 87 95 88 98 94 89 99 97 99 97 98 87 85 81 80 80
40 57 25 17 11 31 28 38 43 46 68 81 71 83 68 85 84 80 88 71 87 64 71 71 97 99 100 99 92 99 99 100 91 99 99 100 96 85 99 97 99 99 99 91 82 84 82
46 56 24 18 10 28 21 27 34 42 63 65 57 68 80 66 76 53 44 79 98 95 96 97 95 98 98 98 96 98 99 98 99 99 99 97 99 99 99 99 99 98 98 89 88 87 79
45 56 25 19 10 27 24 34 42 47 67 61 59 53 67 73 78 69 72 96 92 92 96 94 97 98 95 92 91 94 99 99 98 98 100 100 99 98 100 98 99 100 97 77 64 77 74
45 57 30 23 11 22 24 37 50 54 63 76 89 61 66 79 82 75 96 93 89 96 100 98 97 96 98 94 89 91 98 100 99 93 94 96 99 99 97 91 81 97 90 56 54 75 74
51 60 42 23 15 14 25 31 46 59 67 78 86 91 61 68 58 74 93 96 96 95 98 98 95 97 100 100 98 98 94 95 82 81 81 90 95 97 91 94 91 93 90 76 64 86 85
59 67 54 23 22 9 24 30 45 56 67 70 74 77 66 57 74 88 88 98 100 96 96 85 87 93 96 89 98 94 96 94 90 90 77 82 90 99 94 92 85 79 75 76 62 72 64
61 71 60 36 24 19 13 27 42 48 59 64 66 75 88 76 86 82 100 89 85 89 83 74 74 88 82 93 92 94 88 91 88 86 88 69 69 99 96 91 87 85 83 70 65 64 77
62 72 66 54 23 25 13 26 29 38 44 59 64 72 72 75 80 84 87 92 89 83 68 59 64 66 80 80 81 76 83 77 90 90 81 71 69 97 94 91 89 92 84 74 56 72 84
59 73 70 66 36 25 23 8 28 30 31 41 60 66 71 66 79 81 78 80 82 76 68 63 68 64 62 70 73 80 82 78 74 85 79 70 72 83 99 92 91 88 87 88 78 67 75
57 76 74 74 59 22 27 19 6 28 32 34 44 58 60 71 80 76 86 82 79 76 73 68 65 68 65 64 67 75 75 74 70 86 84 77 72 66 67 73 72 82 71 80 89 91 76
61 78 78 72 84 31 26 26 17 13 31 33 38 50 55 62 66 77 82 84 81 83 79 73 73 68 70 71 74 77 71 74 72 88 89 85 79 74 74 76 76 84 76 74 73 64 71
71 78 76 71 88 65 21 28 24 10 18 34 36 41 62 60 58 67 76 82 79 72 74 73 74 80 76 73 78 68 68 70 76 87 84 89 87 83 75 71 69 70 70 80 80 77 72
70 77 77 76 77 91 50 25 29 21 6 28 40 42 60 62 60 58 65 70 78 78 82 77 79 80 81 83 84 84 84 80 81 83 92 96 94 84 78 76 87 73 63 65 57 56 70
71 79 79 77 77 81 93 20 28 28 20 6 35 46 58 64 68 65 63 66 84 79 82 94 92 84 87 90 91 95 94 92 94 84 92 93 95 86 81 76 94 75 87 82 88 95 90
84 86 83 78 81 80 97 34 21 30 28 21 8 38 55 60 58 67 72 69 69 74 79 98 94 93 94 97 96 96 93 96 91 90 90 97 94 83 84 100 70 62 88 92 95 96 94
89 88 87 83 83 89 95 81 21 24 30 30 25 16 16 47 56 62 68 73 72 71 74 86 92 88 94 100 98 92 89 88 90 91 89 97 96 88 94 100 98 94 100 96 98 99 96
92 89 88 88 87 90 89 97 57 17 23 29 31 30 25 16 21 58 72 74 82 80 76 80 81 85 91 97 97 94 88 85 95 95 95 97 99 97 99 96 72 90 94 95 100 94 90
91 87 86 89 88 90 92 94 96 60 19 22 25 29 30 29 24 19 71 85 84 91 94 82 86 85 92 96 96 88 84 92 98 90 85 84 89 99 100 98 86 80 95 98 98 96 92
89 90 87 88 88 94 95 94 96 96 92 31 24 25 29 30 30 25 18 68 86 99 94 100 97 92 93 94 89 87 87 95 96 96 94 93 79 82 76 80 82 93 99 97 92 88 93

GFSGBSN_700_rhum_045.txt.gz
RH
23 24 52 46 26 23 17 10 28 41 47 56 76 92 92 85 75 71 78 76 72 72 79 78 78 77 25 92 86 90 78 75 45 30 30 36 25 35 31 38 43 44 42 41 33 35 32
24 27 56 36 24 20 8 28 46 49 62 84 93 91 94 82 79 74 76 72 75 79 84 87 83 69 44 98 87 99 75 80 40 28 28 50 26 31 51 44 46 53 44 35 32 31 31
23 27 56 31 24 11 18 39 52 59 78 76 85 92 98 78 56 63 69 74 78 82 83 83 84 71 55 84 90 94 100 70 43 29 27 69 44 32 30 43 38 53 46 40 28 30 34
22 27 58 28 22 8 32 41 56 54 48 67 81 89 86 37 51 74 83 81 78 78 91 91 70 94 57 72 94 90 96 67 39 47 32 52 74 57 46 46 41 48 56 40 24 24 29
23 28 57 26 19 16 34 41 48 43 49 85 91 92 62 36 52 80 79 84 78 81 84 95 80 96 75 74 98 98 95 84 75 64 53 66 82 83 74 61 69 71 67 49 38 32 30
30 27 56 24 14 29 34 31 34 35 51 90 93 96 94 66 43 59 73 69 59 65 81 82 96 99 85 99 88 90 77 98 73 64 88 93 88 82 74 66 79 89 84 46 30 27 27
35 33 55 24 11 29 25 18 28 37 56 92 77 86 83 96 57 48 69 50 59 73 85 79 80 96 88 81 81 99 64 95 72 78 99 98 88 66 68 71 75 60 43 41 34 38 43
38 42 52 23 11 25 18 26 32 47 60 79 73 84 79 78 92 46 61 64 58 84 79 79 72 100 88 100 99 90 74 99 95 99 99 95 93 71 64 84 74 74 67 63 61 57 56
38 45 50 23 11 24 29 34 40 54 46 56 70 74 64 77 97 86 57 66 76 85 77 71 88 98 96 98 97 86 98 97 99 98 98 100 93 88 82 89 93 96 78 68 68 75 76
40 50 53 23 12 25 30 39 47 55 52 48 61 62 65 80 83 86 76 73 78 78 65 75 97 100 99 98 98 99 99 92 99 98 98 98 96 94 96 92 89 94 89 89 90 82 70
38 50 56 24 14 25 23 33 51 53 62 56 57 60 63 44 54 54 61 71 83 58 83 94 98 96 93 96 93 96 100 98 92 89 90 99 93 99 99 99 99 96 88 89 92 81 81
39 56 59 30 20 20 25 31 47 57 62 72 53 63 68 56 68 72 90 100 95 88 96 96 98 98 92 89 94 92 99 85 96 90 93 86 99 96 99 100 100 99 99 99 88 86 83
43 62 64 48 23 11 25 32 49 60 64 72 58 55 68 71 80 96 91 80 81 91 98 98 98 100 95 99 99 96 99 99 93 98 98 93 99 99 99 99 100 99 99 85 64 77 76
43 64 66 59 24 14 23 33 39 58 58 61 49 43 51 56 80 79 66 55 82 100 100 97 98 99 99 98 97 100 99 79 93 84 97 97 98 99 100 99 89 97 98 69 59 60 60
46 62 67 65 46 23 14 30 35 48 60 60 56 39 36 53 70 69 50 77 88 94 99 98 99 96 99 98 93 98 98 93 97 88 86 86 98 98 92 97 92 95 97 76 62 75 73
58 63 68 66 61 25 14 27 35 39 48 58 61 51 59 75 73 76 71 99 91 79 79 94 82 95 98 87 81 97 97 95 88 88 79 78 93 98 99 100 94 82 84 79 66 73 59
80 63 69 68 66 51 24 10 27 34 34 44 56 55 62 75 72 74 99 100 99 88 91 77 70 81 93 88 85 86 87 92 86 88 74 76 73 100 97 94 88 82 78 66 58 56 55
94 73 68 70 70 72 26 20 11 28 30 33 44 57 57 73 76 82 95 96 97 86 76 64 71 67 73 82 89 86 78 76 80 84 83 76 68 94 96 93 92 92 84 68 53 68 72
89 82 73 71 68 69 66 25 17 10 28 28 36 53 57 63 63 70 85 82 82 75 66 66 72 75 70 79 81 83 76 70 91 86 82 75 69 91 100 94 95 93 86 81 69 55 57
87 81 77 75 69 69 81 27 24 14 11 31 31 45 62 61 58 66 70 76 74 71 68 65 67 66 66 77 68 74 79 82 77 76 83 75 63 59 60 63 72 88 76 84 83 77 66
90 79 78 76 74 73 73 70 26 21 10 18 30 32 50 61 70 70 70 68 69 73 70 70 71 67 66 66 69 71 80 80 74 85 94 81 68 66 66 67 68 77 75 69 71 71 66
77 77 79 76 75 74 73 75 54 27 19 7 33 31 40 63 68 75 80 82 70 67 76 76 72 73 73 71 71 67 79 74 74 74 96 88 75 76 73 71 71 68 70 72 77 71 62
84 80 82 81 78 75 73 71 86 27 26 17 12 39 38 60 61 72 76 83 84 82 77 70 77 77 77 78 82 85 76 73 73 68 85 88 82 85 74 73 77 74 59 60 58 55 54
81 84 87 82 79 76 76 75 90 27 30 25 12 25 45 53 64 63 65 69 84 78 80 85 87 88 88 90 88 88 89 91 88 85 88 86 93 87 78 75 93 67 89 77 63 74 79
88 88 89 83 81 77 81 80 94 79 24 30 27 15 28 52 60 64 69 69 70 81 79 80 85 89 90 94 95 96 90 96 94 89 88 94 88 85 83 99 62 71 85 89 86 89 94
91 91 90 86 83 79 84 86 92 92 77 23 29 29 24 13 38 53 62 69 72 72 73 83 92 98 99 96 91 96 89 86 88 85 86 91 96 96 99 95 97 94 96 97 92 99 99
97 97 91 86 82 83 84 89 89 90 91 43 20 26 31 28 25 16 58 72 74 76 75 72 89 95 97 97 93 93 89 89 94 98 100 95 100 99 95 93 72 69 97 94 97 98 97
100 95 91 88 83 86 88 95 92 96 89 96 47 22 22 26 30 30 24 40 86 89 92 84 86 90 96 100 99 94 90 90 99 93 98 86 92 99 95 94 86 72 97 94 99 98 97
96 96 93 89 87 84 89 99 97 91 95 92 90 82 67 51 36 29 30 25 28 100 100 100 92 81 81 93 92 91 84 94 95 91 96 92 81 80 73 81 80 83 84 98 97 94 89

GFSGBSN_700_rhum_048.txt.gz
RH
18 26 26 58 32 19 11 26 30 32 33 44 56 62 77 77 84 70 62 67 78 80 85 84 83 88 96 68 43 87 84 80 98 62 29 32 34 71 76 61 35 42 58 49 47 42 42
18 36 29 56 27 10 25 22 24 28 34 48 75 83 84 81 71 49 52 66 76 78 93 80 73 76 84 64 40 95 87 80 94 80 30 32 33 67 99 82 53 46 69 45 47 41 42
22 38 39 53 21 16 18 17 22 31 40 68 90 94 92 84 35 50 68 77 73 78 85 86 83 80 79 59 41 94 71 72 87 75 30 39 35 68 85 88 69 75 61 50 41 38 38
30 42 47 46 16 23 13 23 30 38 47 88 89 93 92 95 37 61 65 75 76 72 76 82 81 82 77 56 64 88 97 97 97 72 33 52 48 71 91 78 54 68 76 72 36 32 37
36 42 52 37 14 23 24 31 37 47 49 88 85 88 86 84 52 53 66 59 61 68 75 95 92 86 86 51 68 98 99 99 97 44 50 67 80 70 86 76 88 83 53 58 62 29 38
37 43 53 34 13 22 32 39 41 48 53 80 76 74 82 78 88 49 51 54 45 54 74 81 96 86 90 57 95 98 91 99 80 71 90 94 89 84 96 86 58 66 59 71 59 46 34
36 42 53 36 14 24 30 40 43 53 37 41 41 54 65 72 92 70 60 56 59 66 89 80 94 95 83 88 98 95 98 92 51 91 94 95 97 89 97 87 67 72 70 57 28 45 34
41 39 54 44 17 24 24 33 46 54 32 34 50 38 64 75 92 67 58 51 61 77 81 74 84 97 86 98 97 99 92 95 94 88 93 93 98 98 99 95 68 73 63 60 46 38 44
63 39 57 56 21 20 26 34 47 51 40 42 41 41 42 68 82 92 79 68 76 71 78 72 85 95 98 100 98 98 98 96 97 98 99 89 96 99 92 95 87 88 73 70 71 55 62
75 48 57 64 25 14 28 35 51 51 54 36 51 56 53 66 60 63 70 72 72 74 77 90 96 97 99 99 98 97 98 98 98 99 100 99 96 89 92 92 83 87 79 74 69 79 59
88 67 60 66 44 14 28 32 50 51 46 47 44 54 70 75 81 62 51 50 75 84 94 90 96 85 92 96 94 97 99 98 99 98 98 98 90 99 98 91 92 96 87 92 93 85 78
94 86 60 67 63 23 18 33 44 52 41 50 44 36 60 61 49 47 55 64 73 79 92 98 97 94 79 96 98 98 98 98 98 93 97 99 98 99 98 96 96 89 92 93 91 83 83
93 90 62 68 69 38 14 31 44 55 41 40 50 41 38 66 33 31 44 58 71 91 96 98 99 95 90 99 96 94 96 92 96 97 88 97 99 98 99 99 99 99 96 95 96 94 66
94 92 70 69 72 62 24 17 36 50 49 38 45 54 48 65 52 45 57 62 92 99 98 99 98 99 99 98 93 94 82 91 76 77 93 98 99 98 99 99 97 99 99 80 63 48 42
94 89 83 69 73 68 42 19 24 35 41 43 48 53 50 59 57 57 59 61 97 100 98 99 95 100 99 98 98 98 96 90 84 79 82 96 98 100 100 94 91 98 98 73 52 57 63
89 92 85 71 71 71 69 28 14 24 32 35 43 46 53 51 53 48 50 95 100 97 100 94 81 89 99 80 86 88 89 87 88 82 78 77 98 99 100 98 94 92 83 80 69 70 55
78 88 87 76 72 69 67 59 24 10 24 29 35 43 52 55 68 57 51 100 96 95 86 77 74 82 92 82 74 86 83 88 84 84 76 73 82 99 100 98 92 84 86 71 67 48 40
82 85 91 77 76 73 69 73 31 20 10 27 32 44 47 55 66 65 78 100 97 90 80 69 74 74 78 71 86 79 76 81 83 83 77 73 76 100 100 90 88 82 77 66 61 71 68
74 87 84 75 76 72 74 70 54 25 13 23 33 44 49 54 58 62 75 78 84 76 67 66 73 72 69 78 80 78 75 69 85 84 82 74 68 96 99 96 90 84 79 78 64 55 57
80 75 72 74 76 75 71 68 71 34 22 8 31 33 49 55 54 60 67 71 75 71 67 65 72 74 76 82 72 78 78 78 89 84 82 75 66 54 57 61 66 79 67 74 79 74 62
74 79 76 76 77 71 70 66 65 70 27 14 26 36 32 53 55 60 63 67 66 65 64 64 67 65 69 78 77 71 78 81 80 75 75 78 71 59 56 57 64 71 69 70 74 72 68
70 80 82 80 77 75 70 69 67 74 37 22 8 35 38 59 55 61 64 65 62 62 65 67 67 67 67 66 66 67 64 79 76 75 78 88 78 70 66 63 61 58 62 67 68 72 68
73 81 86 85 83 81 76 70 72 73 44 28 18 22 42 57 66 62 65 67 71 70 65 66 68 72 72 72 74 76 76 80 75 73 68 87 88 73 77 68 71 69 44 50 51 53 52
68 85 88 88 87 78 78 73 74 76 76 27 27 13 49 53 71 68 63 64 75 75 78 79 77 79 81 81 84 87 81 87 85 80 83 88 88 80 87 77 80 54 71 74 66 63 55
82 82 90 93 87 84 75 77 79 81 90 60 27 27 18 54 68 75 72 69 68 76 77 83 88 94 91 92 92 97 96 93 92 85 89 87 85 87 87 83 68 57 73 83 71 69 75
97 90 87 92 86 83 79 75 88 86 88 91 73 24 28 23 29 63 70 68 72 74 74 74 83 94 98 93 90 97 84 91 93 83 82 87 87 94 99 93 74 88 76 90 90 100 99
94 84 84 86 86 81 80 80 85 89 88 94 94 74 23 27 29 23 49 70 76 81 79 75 79 94 100 97 87 85 94 87 93 98 98 99 99 99 96 92 79 74 89 96 97 99 98
82 72 91 92 85 84 80 84 89 90 91 94 95 94 90 44 26 27 27 25 75 91 92 79 85 96 100 97 91 86 94 93 95 95 96 98 98 96 99 94 86 62 80 98 98 98 99
81 88 90 91 87 81 83 89 99 97 89 90 94 95 92 86 70 37 29 30 29 47 100 100 88 77 85 89 85 91 89 91 97 95 93 98 79 90 83 82 68 78 100 97 98 98 96

GFSGBSN_700_rhum_051.txt.gz
RH
69 36 45 54 35 12 12 18 28 33 42 46 65 92 93 91 91 79 59 46 55 70 68 69 68 88 91 92 69 93 74 90 70 94 52 33 84 64 96 82 60 68 65 64 68 54 43
67 42 48 55 30 14 16 30 37 41 44 46 90 88 96 96 96 62 47 58 70 71 81 74 75 82 93 91 86 99 78 51 91 96 59 51 58 87 97 97 87 82 74 78 73 55 47
67 44 49 55 27 16 18 37 42 46 36 53 94 93 82 90 95 44 62 59 75 66 77 75 80 86 89 85 81 98 99 60 77 75 76 65 91 96 98 97 98 95 74 81 72 67 51
66 44 48 56 27 17 18 35 46 44 26 42 87 84 66 82 93 42 60 55 58 69 76 74 79 85 82 71 64 98 94 80 99 95 92 57 94 99 98 92 96 88 85 77 68 52 50
74 55 47 59 33 15 23 31 48 48 32 35 51 31 56 59 76 58 57 53 47 48 59 81 84 82 87 70 58 94 98 83 76 99 91 64 67 92 97 97 96 89 62 62 54 56 61
81 69 48 62 43 13 26 35 48 55 36 42 50 58 52 63 72 79 45 51 43 48 64 72 89 88 81 72 66 74 97 100 99 99 66 88 82 80 99 82 65 62 57 44 42 63 52
87 81 55 64 60 17 25 40 50 56 46 42 55 63 50 69 92 89 43 55 51 72 80 90 93 82 83 74 99 54 69 99 99 91 67 88 94 89 85 73 55 48 51 39 46 51 58
92 87 63 64 64 26 20 40 47 55 64 43 50 65 61 59 86 70 53 56 56 61 88 71 80 91 83 91 98 98 98 99 98 89 86 100 96 93 85 73 68 67 52 50 54 60 53
88 91 75 63 65 40 13 36 48 54 68 52 42 57 60 57 56 63 62 61 63 59 96 79 93 75 99 83 98 95 98 100 97 99 98 98 89 95 93 81 72 65 58 48 56 59 53
90 90 80 67 67 59 21 26 49 48 70 60 36 44 37 55 50 40 47 50 55 74 91 91 93 96 99 96 97 94 98 99 98 99 100 99 95 98 97 85 69 62 69 64 82 70 43
93 94 86 70 66 65 30 14 47 46 52 63 57 34 28 49 65 58 70 75 77 84 86 85 95 99 98 99 95 98 98 88 99 98 96 99 98 96 94 85 71 76 70 90 87 74 76
90 89 88 74 63 68 48 19 29 45 42 62 59 52 42 27 52 59 71 74 83 84 91 98 98 97 98 98 98 95 98 98 99 97 99 98 98 99 91 82 85 86 81 90 87 82 76
86 83 87 78 65 67 64 30 14 34 35 49 57 62 40 45 48 66 60 64 92 91 94 98 100 96 98 98 98 98 98 96 94 98 97 99 99 100 98 88 99 92 92 85 90 96 60
76 85 86 82 66 65 63 60 25 13 34 34 54 56 30 36 50 62 55 62 87 99 92 94 98 93 99 96 95 92 98 99 95 90 94 98 98 98 99 95 92 98 89 68 63 63 52
76 88 79 84 71 66 66 64 45 22 18 30 43 52 42 30 34 46 48 66 90 87 84 87 92 94 95 89 81 90 81 99 98 95 90 97 98 98 99 98 97 94 98 84 56 47 44
69 82 81 81 69 70 69 65 68 26 10 28 34 51 52 48 37 34 41 89 96 93 90 99 89 91 89 95 95 95 89 82 84 79 72 90 97 99 98 100 99 99 95 90 75 75 50
74 63 74 67 64 67 69 64 60 42 19 22 30 48 62 58 51 35 44 78 100 92 82 92 95 86 89 94 92 90 93 82 86 78 70 78 85 100 98 98 93 87 90 82 81 61 46
53 63 63 62 65 67 63 59 54 65 26 10 31 47 54 60 59 50 53 68 82 82 74 68 77 98 89 93 88 84 92 92 74 74 80 72 98 98 97 92 86 89 77 72 63 68 60
61 68 64 64 68 64 66 61 57 56 61 19 34 44 51 54 78 57 58 60 68 70 64 62 65 66 77 90 83 85 75 68 77 77 85 74 77 96 96 90 83 85 82 80 71 56 71
65 64 66 70 73 64 63 62 58 56 64 30 14 36 46 56 60 74 69 70 67 65 61 60 63 68 66 77 69 82 74 67 73 78 79 75 67 72 67 70 75 80 74 81 75 75 60
65 64 66 70 78 71 61 58 57 58 58 55 18 36 40 56 60 63 66 63 69 72 63 62 62 64 82 82 81 81 76 72 73 82 82 80 74 66 52 47 53 58 62 73 78 74 64
68 66 69 69 77 78 69 57 52 58 59 65 26 18 40 48 59 62 65 62 62 58 64 72 70 66 66 73 71 76 80 86 86 76 77 73 72 71 66 59 56 54 57 70 65 64 71
75 81 84 78 70 74 68 64 52 58 61 66 37 22 36 54 68 70 98 86 63 64 62 64 76 87 83 86 66 64 74 82 90 89 82 75 79 76 84 69 65 72 37 38 44 45 44
82 92 79 75 71 70 64 67 59 62 68 72 52 28 18 54 75 92 71 72 74 71 76 66 68 90 83 75 74 74 77 75 77 70 93 96 92 84 92 76 81 57 46 49 48 54 47
96 83 72 64 64 68 67 68 62 71 75 75 82 47 27 22 71 80 77 73 72 79 74 74 74 77 85 86 98 96 98 95 97 87 86 92 86 91 83 68 62 54 47 60 74 75 55
71 73 78 66 82 78 75 67 64 73 78 81 82 88 56 35 42 46 89 82 79 100 94 84 84 83 91 87 86 97 86 76 89 91 82 84 91 88 90 82 66 86 72 76 84 94 74
86 77 78 74 82 81 77 67 72 73 79 84 87 90 91 70 36 26 30 78 91 90 95 96 84 92 97 83 94 91 89 82 83 84 99 98 92 92 88 88 76 70 76 85 97 100 95
71 76 73 78 78 79 76 71 80 84 81 84 91 90 90 83 82 45 27 24 51 100 100 100 88 91 97 97 94 89 79 87 87 87 94 94 91 88 89 94 83 62 81 94 99 98 98
40 73 75 75 79 81 74 71 82 84 80 79 87 90 89 83 75 93 71 30 25 31 95 100 99 99 99 100 95 91 84 94 84 85 98 91 83 80 83 80 74 65 87 94 96 92 95

GFSGBSN_700_rhum_054.txt.gz
RH
59 62 49 54 53 24 17 17 25 38 35 28 41 84 89 88 86 93 94 52 43 53 59 65 64 64 83 91 70 90 60 42 95 97 92 83 34 40 67 33 77 72 69 50 55 55 52
65 71 63 54 56 28 18 24 29 43 43 31 44 80 80 66 76 88 65 50 60 69 62 76 73 83 73 77 67 89 100 35 64 86 90 68 35 47 79 88 81 78 66 64 60 58 56
72 76 71 55 59 36 16 27 34 47 52 35 51 66 50 62 65 83 47 49 52 60 62 67 81 82 75 67 93 79 100 86 73 98 99 64 65 88 91 97 83 85 82 77 68 63 58
77 78 79 59 62 49 15 28 39 51 55 37 53 64 51 63 70 76 48 50 39 41 67 77 74 79 78 84 92 69 85 100 98 94 100 71 88 100 91 92 89 93 86 77 74 73 68
76 80 83 63 62 58 19 27 41 54 55 42 57 46 36 52 77 82 44 51 38 38 47 70 82 76 78 86 69 65 98 92 95 96 98 100 92 95 93 90 96 87 79 81 72 64 70
74 81 82 72 64 62 32 20 40 53 56 43 49 31 38 57 86 92 47 45 41 58 67 70 90 78 82 84 66 84 98 87 63 97 99 97 75 92 96 99 94 73 72 73 70 46 57
78 89 82 72 66 64 42 14 42 53 55 40 36 32 36 52 77 76 45 56 71 86 83 99 99 98 78 85 81 90 100 86 92 90 99 82 78 71 64 72 71 68 63 58 59 55 50
78 89 84 81 66 64 55 20 40 54 55 53 39 36 40 38 54 68 67 58 55 63 86 72 88 81 68 82 94 96 97 99 99 98 96 78 78 65 71 82 71 58 59 46 48 47 48
74 88 85 82 70 66 61 36 26 43 53 63 45 34 45 51 40 38 40 42 44 61 81 73 79 76 70 75 50 66 87 97 95 98 76 100 95 75 87 85 71 66 59 49 53 61 58
70 83 82 83 71 65 63 56 20 35 45 61 66 52 35 50 54 59 66 72 89 90 93 82 88 95 89 96 98 65 91 99 98 94 98 95 88 87 90 85 72 67 62 53 55 66 54
68 82 82 84 71 65 63 60 45 15 36 43 61 64 47 38 57 62 74 75 74 78 88 76 98 66 90 98 97 96 99 100 97 99 100 100 92 87 94 88 72 63 52 70 76 64 73
72 78 80 79 71 62 63 61 64 28 21 34 52 59 48 50 61 62 67 84 82 93 96 98 98 98 99 100 96 99 96 89 90 97 92 91 94 98 99 99 87 79 75 74 76 82 85
71 73 82 75 73 63 64 60 61 60 12 26 36 52 48 43 51 58 70 78 92 90 89 98 97 98 98 98 88 98 99 99 93 98 99 97 100 98 99 99 97 80 77 91 93 94 87
73 75 75 67 64 50 50 51 57 62 24 18 30 44 44 43 41 46 50 55 78 99 98 93 96 98 98 94 98 98 99 96 98 90 87 96 98 99 99 98 90 96 70 78 75 92 74
64 76 50 63 56 51 43 53 56 59 39 12 29 43 44 43 43 42 38 58 80 88 84 93 88 91 96 83 78 95 97 92 90 92 93 98 97 99 99 98 94 91 90 89 66 44 56
54 45 54 61 57 56 52 49 36 48 57 12 26 40 44 50 52 58 44 52 88 88 98 91 86 85 84 89 82 79 93 95 91 96 91 95 95 99 99 99 94 83 84 96 70 83 64
39 55 61 60 57 55 53 47 46 42 54 29 20 37 43 50 53 49 57 65 71 81 72 91 90 80 81 84 91 88 89 83 85 81 85 90 84 98 98 97 95 99 98 98 86 71 84
58 61 62 58 56 59 53 43 38 42 48 56 11 34 47 52 59 83 73 66 71 66 60 67 77 86 85 85 80 82 88 86 80 80 86 88 81 97 98 94 96 98 97 95 97 86 56
56 49 51 58 59 61 57 51 41 37 37 49 28 22 45 50 93 74 67 77 68 66 64 77 76 63 79 86 78 81 82 73 73 75 79 71 80 98 96 83 86 85 79 78 72 68 64
58 65 63 68 69 62 56 54 46 37 34 41 55 16 33 50 59 86 96 92 91 69 64 60 66 70 73 74 81 79 67 61 73 71 74 73 72 85 76 78 73 77 71 73 74 66 59
64 71 74 71 61 54 54 58 50 38 41 46 52 27 29 48 61 65 80 95 95 87 66 61 60 72 82 80 79 82 79 68 66 74 79 75 72 68 62 53 45 53 59 86 82 66 64
64 74 75 70 57 46 51 52 47 48 50 52 58 37 19 33 47 64 83 99 91 97 71 82 68 78 80 73 75 72 75 75 71 70 76 78 70 65 69 67 58 53 49 48 57 62 66
44 57 68 70 58 52 46 47 48 52 48 54 63 47 28 26 54 76 97 96 100 78 88 67 73 87 82 79 73 67 76 80 84 75 78 73 62 70 86 80 69 58 40 37 35 38 42
16 29 59 70 64 58 56 51 60 55 50 57 67 77 31 32 47 91 100 99 85 84 86 74 74 91 90 86 73 69 70 67 84 89 92 95 81 76 86 73 94 43 52 44 38 39 38
21 44 62 65 64 64 64 59 63 55 55 62 68 78 81 35 27 72 67 82 84 84 82 83 72 74 85 81 95 88 93 92 91 90 78 93 91 82 86 80 52 46 50 46 60 57 57
8 16 46 64 68 66 68 65 62 57 58 64 72 78 83 87 53 42 34 77 85 100 100 84 83 80 86 83 85 90 90 74 88 86 92 93 90 82 82 75 86 84 72 65 79 88 74
5 10 30 55 61 64 66 67 62 56 57 70 75 85 82 83 86 58 49 27 76 94 99 98 94 88 92 82 85 86 87 83 83 83 85 91 88 90 83 78 76 71 68 78 96 97 89
6 10 26 44 53 62 65 67 63 61 64 68 74 79 84 75 75 79 83 71 28 65 99 100 97 90 92 89 87 83 76 80 78 77 83 87 88 84 87 94 83 64 63 86 84 95 100
10 25 40 50 54 57 64 68 68 64 69 74 72 76 78 75 71 73 74 83 63 31 40 96 96 98 99 100 87 86 86 81 81 84 80 87 80 80 75 78 74 73 69 83 95 100 98

GFSGBSN_700_rhum_057.txt.gz
RH
64 70 76 75 61 53 49 18 29 38 45 40 34 35 46 47 70 66 84 90 57 44 54 54 61 65 72 72 72 98 77 60 48 50 85 74 36 43 40 55 58 53 58 47 76 80 78
64 70 77 74 67 60 53 19 29 43 48 35 39 26 25 30 63 73 73 52 55 54 52 61 73 74 75 60 73 94 85 42 89 82 90 80 39 50 58 77 58 55 70 72 67 66 60
66 76 82 75 67 63 55 19 30 44 49 34 29 28 27 33 56 65 50 51 35 37 58 66 71 77 74 62 79 82 96 88 79 98 100 87 57 40 60 72 57 78 72 90 73 65 58
64 78 86 78 68 61 56 29 32 44 47 34 28 35 30 35 71 66 47 49 38 37 44 70 73 75 69 64 87 75 93 71 82 98 100 84 51 72 75 87 85 89 78 90 70 76 66
58 81 89 79 71 55 58 36 26 48 50 45 30 41 36 28 61 76 43 44 41 55 59 60 84 79 81 81 71 88 95 70 95 89 98 83 86 88 92 94 85 87 82 81 78 69 58
49 71 87 76 74 54 60 49 20 43 44 60 37 44 44 32 48 52 38 37 48 73 61 89 94 81 97 99 80 75 94 96 64 77 98 96 97 93 89 89 90 79 75 67 69 68 55
49 65 81 75 78 52 57 62 33 31 38 61 58 39 48 54 30 44 50 48 47 64 67 71 89 94 93 94 99 60 92 98 96 98 97 94 92 82 73 92 72 66 73 73 68 67 60
53 54 73 82 77 54 52 57 49 16 35 46 66 54 37 52 57 44 38 39 54 75 84 92 80 76 66 84 86 86 98 97 98 98 98 100 95 82 82 63 71 71 64 66 70 67 61
56 54 73 70 74 62 61 51 64 38 19 36 57 54 39 46 56 58 73 79 77 83 90 93 72 65 69 77 100 93 90 98 100 98 97 100 89 79 84 76 70 78 68 64 63 64 64
57 53 66 74 53 64 60 56 52 60 18 29 51 45 54 60 56 58 57 70 80 88 94 90 94 54 77 69 74 97 98 95 99 92 100 93 74 73 84 75 80 73 59 62 57 62 64
59 57 62 64 45 46 44 41 43 59 34 17 36 44 56 50 48 53 61 67 79 78 86 75 91 90 90 94 69 84 98 90 98 98 89 100 98 75 85 74 82 71 63 60 59 61 68
58 49 58 43 40 42 36 37 45 55 43 12 29 42 42 46 47 42 55 65 78 82 96 94 98 98 97 98 94 99 99 98 99 98 93 89 100 96 77 67 85 84 68 72 74 70 82
46 41 41 33 46 43 47 44 34 44 52 11 25 40 43 41 43 39 36 51 63 93 93 98 99 97 92 98 97 98 100 92 87 97 95 98 100 97 99 87 99 97 70 89 91 93 90
27 38 24 41 44 43 44 42 38 32 56 18 20 37 47 44 36 38 35 34 79 89 97 100 97 99 90 99 98 95 90 86 94 95 93 92 99 99 95 99 98 96 79 65 85 98 84
28 25 32 43 44 42 42 38 35 37 46 44 13 31 48 48 40 41 35 34 73 76 79 88 93 95 90 92 98 98 98 88 86 81 73 86 97 98 98 98 97 98 82 73 70 53 69
29 24 35 44 48 48 43 39 35 31 35 50 18 23 38 44 43 41 42 41 65 74 77 89 87 82 91 85 82 95 96 94 87 85 76 83 91 97 100 98 98 93 85 82 84 90 70
25 29 39 44 46 53 50 43 38 34 30 30 48 17 38 45 50 54 56 62 67 62 65 81 82 74 81 89 86 86 88 96 92 75 76 79 91 100 100 99 96 99 96 87 80 78 88
31 38 46 49 49 56 51 47 47 39 30 29 42 17 30 45 78 67 73 78 70 64 65 71 82 84 81 72 78 81 90 85 87 91 92 96 88 98 98 94 96 95 81 87 82 82 66
31 34 45 49 51 56 47 42 51 41 30 27 40 41 26 38 78 98 75 71 70 62 57 64 73 79 82 83 78 76 82 84 84 82 89 81 77 97 98 98 98 98 93 89 88 79 73
20 26 38 49 55 54 50 44 41 34 33 40 45 43 35 44 56 88 96 96 80 77 69 62 62 66 82 82 80 71 67 71 78 74 77 72 71 78 72 70 73 88 90 94 92 96 73
10 22 43 42 46 50 53 47 46 40 38 43 50 44 31 43 54 69 79 99 98 96 88 69 65 68 79 79 74 71 68 64 69 74 78 76 68 69 67 61 51 50 66 81 82 78 68
7 9 10 19 35 51 44 36 37 41 45 45 51 56 42 24 44 71 80 99 98 98 95 86 76 76 82 77 77 76 71 65 64 68 76 78 70 69 68 67 65 58 45 42 65 72 73
4 5 6 15 31 40 43 39 40 42 44 44 48 64 62 39 46 95 96 89 99 85 98 72 80 85 81 78 77 75 77 79 76 73 74 78 74 60 68 75 78 66 41 47 40 34 36
3 4 8 12 20 31 37 39 46 47 46 45 48 63 73 47 49 100 100 96 100 88 90 73 76 87 90 86 82 75 66 72 83 87 85 84 78 67 83 84 85 42 49 46 44 42 39
4 4 7 9 23 31 34 41 49 52 51 49 47 59 72 78 43 50 81 85 97 97 90 79 75 88 93 84 80 83 83 76 72 74 92 94 92 76 77 85 50 42 45 50 48 42 42
4 4 6 9 20 29 37 46 50 56 53 51 51 64 71 75 78 66 48 28 73 100 100 90 90 80 84 86 89 88 83 75 86 78 83 93 91 85 82 79 88 86 74 66 64 63 56
4 5 6 6 15 23 34 40 47 55 56 56 54 59 70 76 79 84 86 59 37 96 100 90 84 88 92 90 88 86 86 81 86 82 81 93 87 93 80 88 75 61 71 68 87 63 70
5 5 5 5 7 12 23 31 42 55 58 58 62 66 71 65 66 75 82 84 72 42 92 97 100 95 97 90 89 81 75 84 83 77 73 84 83 83 79 92 83 63 73 75 74 84 90
6 5 6 6 6 8 15 24 42 51 58 64 67 66 62 60 69 74 67 70 78 89 41 90 100 81 98 96 94 94 86 80 78 82 78 81 71 76 69 64 61 71 70 64 76 97 100

GFSGBSN_700_rhum_060.txt.gz
RH
53 49 69 71 70 65 52 49 29 40 40 43 26 37 40 25 50 61 74 56 48 45 50 54 52 55 60 48 45 86 90 83 68 40 99 70 59 31 38 42 60 76 79 74 86 100 90
36 38 52 74 65 59 53 54 30 39 41 52 29 38 37 22 53 61 48 39 42 42 50 53 61 60 60 56 51 97 80 82 72 37 99 88 55 38 42 43 63 66 79 89 83 94 97
29 32 43 68 66 57 55 58 38 33 39 52 43 41 40 23 45 53 42 39 36 35 41 50 64 62 70 63 60 79 99 87 63 44 96 92 50 61 49 52 62 79 84 100 90 79 88
33 37 40 59 73 55 53 55 51 25 39 53 55 40 42 30 33 48 40 32 34 47 57 53 72 71 81 74 83 85 98 100 64 78 82 94 47 64 65 73 72 86 72 89 62 62 68
30 42 43 63 73 58 53 49 58 20 33 46 58 40 39 45 31 35 33 33 34 50 53 72 72 79 84 73 92 92 96 98 76 88 94 99 57 84 78 84 84 83 77 77 71 60 61
31 45 48 59 62 62 58 57 50 45 18 34 54 63 39 54 46 36 44 43 47 62 62 82 86 91 94 94 75 78 92 95 96 97 99 98 84 96 93 89 87 78 52 64 67 65 74
30 45 48 58 59 42 54 56 51 58 20 31 46 41 38 52 57 46 39 46 50 65 66 73 89 92 96 94 85 82 89 96 98 98 98 96 90 80 76 95 79 66 66 72 73 73 69
24 36 46 47 47 33 38 39 43 46 38 24 43 44 46 56 58 60 58 62 68 70 72 74 68 83 84 76 82 79 84 98 98 98 93 98 100 76 85 93 79 56 71 70 68 69 71
15 24 35 45 29 36 34 29 32 44 50 17 38 42 41 44 54 63 66 72 82 82 86 97 88 78 80 67 84 60 76 84 89 99 93 100 100 88 77 78 77 76 73 71 61 60 68
11 16 23 25 35 39 42 36 34 46 55 12 32 40 37 40 49 60 66 65 61 74 90 90 92 96 100 88 94 94 97 98 77 99 99 98 90 84 88 81 87 78 70 69 68 68 75
9 13 16 20 36 39 38 34 26 34 57 12 25 37 38 35 42 56 64 60 74 74 90 95 91 63 99 82 89 97 98 98 99 98 95 97 82 87 76 74 88 81 70 63 58 60 70
7 10 11 23 35 41 39 33 32 29 44 27 18 32 42 39 39 41 51 52 68 84 96 98 99 78 84 73 90 98 99 93 99 94 89 97 94 91 91 86 86 77 70 65 68 73 79
7 12 12 26 31 38 40 38 30 31 36 50 12 27 40 41 29 34 42 45 66 91 97 99 98 96 69 80 100 98 98 99 96 89 95 100 95 80 87 93 88 83 74 92 90 96 89
8 13 13 25 33 39 42 40 39 28 26 42 33 20 36 45 34 30 40 42 70 90 98 100 98 98 99 98 99 93 99 90 84 70 90 93 99 92 78 82 85 86 80 67 86 96 78
9 11 13 22 32 42 45 40 41 34 29 26 43 17 34 39 41 28 28 34 60 69 72 81 81 93 98 99 89 92 76 71 80 78 70 86 98 86 89 95 87 88 94 72 67 67 78
6 9 16 24 33 39 45 43 41 38 37 29 25 42 32 40 40 34 32 41 60 70 78 72 82 76 92 97 93 92 86 78 83 80 74 74 94 98 98 91 97 100 89 85 84 85 75
4 8 14 25 33 44 50 47 40 41 35 25 29 37 38 40 46 41 38 47 59 64 72 82 77 82 80 96 92 91 93 92 89 82 83 79 77 98 100 99 98 100 98 88 75 74 89
4 5 12 22 30 46 51 51 46 38 32 33 36 39 42 42 62 55 52 60 60 67 70 85 80 79 76 81 86 85 88 93 96 91 89 89 87 100 100 99 88 99 95 94 77 82 76
4 5 7 13 20 32 43 49 43 31 31 30 36 39 37 31 70 72 71 70 65 60 69 76 83 81 77 75 72 80 83 86 86 86 88 85 86 96 99 98 98 100 95 89 88 83 78
3 3 5 8 14 27 29 34 29 32 31 32 39 43 42 41 64 79 83 79 74 68 67 67 68 81 80 77 74 71 77 83 84 89 86 81 73 72 69 67 72 91 82 93 88 96 82
3 3 4 7 10 21 23 25 27 27 29 34 37 45 46 43 73 99 92 91 83 85 72 66 71 77 87 78 78 67 70 72 83 80 78 78 74 70 74 69 72 72 72 81 90 77 91
3 3 4 6 14 23 25 25 24 26 28 32 37 45 51 35 50 65 80 98 89 90 87 74 66 78 85 82 74 62 64 68 74 77 80 80 73 70 68 65 65 60 52 76 78 83 88
3 3 4 8 17 26 29 28 27 27 30 34 38 43 55 50 47 67 89 96 91 97 95 82 79 80 86 83 78 78 77 69 65 67 71 79 81 70 62 64 70 65 42 50 44 46 55
3 3 3 7 15 23 27 28 28 28 28 36 39 40 48 57 51 93 96 95 89 95 93 95 82 89 84 84 82 79 77 72 72 78 78 79 82 75 72 85 84 37 51 51 45 47 43
4 3 3 5 10 14 19 24 25 27 31 37 40 42 44 56 69 52 61 85 98 90 95 90 80 91 92 93 92 89 81 72 75 89 90 86 87 79 73 91 55 35 46 49 48 37 39
4 3 3 5 9 8 15 19 24 28 32 36 43 45 46 50 66 74 72 44 46 81 95 95 91 88 96 93 88 89 84 79 82 83 86 94 92 88 84 83 92 77 81 69 69 54 44
4 4 5 6 7 6 9 14 22 27 31 40 49 49 53 52 61 68 73 80 66 60 100 98 95 90 88 97 97 92 84 81 86 83 82 90 89 89 83 82 72 54 66 71 82 62 70
5 5 5 7 6 6 7 7 10 19 32 43 50 53 55 55 56 62 69 75 78 62 73 98 97 94 97 94 96 90 82 84 86 81 75 74 88 92 79 87 81 58 68 69 69 75 84
6 6 6 7 7 6 7 6 9 18 34 45 54 53 57 54 67 77 66 65 67 78 69 77 97 99 99 97 92 92 87 82 76 81 81 79 73 69 67 64 59 71 69 67 65 78 93

GFSGBSN_700_rhum_063.txt.gz
RH
12 15 21 34 47 55 48 48 56 28 34 39 55 36 33 34 18 45 32 32 30 31 36 46 46 46 39 32 31 58 51 91 99 94 82 97 82 38 34 51 82 99 86 97 100 84 88
11 14 26 41 49 53 49 46 57 33 25 32 58 42 35 38 21 41 30 30 31 32 42 38 41 50 51 47 48 68 82 80 99 80 70 93 89 44 50 67 75 99 100 93 89 95 95
12 15 28 41 44 50 54 52 48 50 19 33 51 51 35 46 23 36 32 32 32 39 55 52 56 60 55 69 56 55 96 81 94 76 86 99 83 59 56 74 69 93 93 90 89 97 95
18 16 27 37 43 25 40 51 52 58 23 29 50 48 39 53 28 35 35 34 35 48 55 74 73 65 74 75 69 47 86 80 75 67 85 99 88 64 62 74 73 83 96 89 87 84 84
14 14 23 32 27 24 31 36 42 50 42 25 44 37 40 54 38 30 40 44 46 62 66 78 71 77 78 78 80 91 97 90 85 61 85 98 84 79 73 64 73 98 85 91 94 90 68
14 15 16 25 19 28 28 24 30 40 51 20 39 42 42 53 53 41 43 47 62 63 61 76 79 83 82 84 82 91 95 97 100 87 98 98 80 80 85 78 85 72 56 65 75 70 69
13 13 12 15 22 31 35 28 30 50 56 16 37 42 46 52 60 57 61 63 69 90 79 76 87 89 96 87 91 93 92 99 96 96 95 98 72 82 71 72 60 66 64 75 82 60 57
10 10 10 12 22 35 33 34 25 44 60 13 31 38 42 48 58 65 71 82 82 81 98 86 72 78 80 86 88 91 83 93 96 96 95 98 85 87 85 89 85 71 73 67 78 74 72
6 7 8 10 23 33 35 31 28 29 55 17 23 37 38 40 55 61 74 83 79 76 94 80 89 77 69 70 71 74 74 94 96 80 98 99 89 90 88 92 84 80 64 64 71 75 81
6 6 7 10 22 29 35 32 27 31 42 46 15 33 40 41 47 52 67 77 77 75 90 93 90 89 92 94 94 95 76 85 98 79 97 99 99 92 99 94 90 88 80 71 73 74 79
5 5 6 11 21 26 33 38 32 26 32 49 14 29 42 33 36 41 58 62 76 83 89 94 93 74 90 83 89 78 79 96 98 99 97 94 80 80 84 78 87 82 74 72 72 66 69
5 4 6 9 19 24 34 40 38 30 27 38 42 19 40 34 34 32 48 62 64 73 95 93 99 69 64 62 82 96 99 93 96 98 98 91 95 95 81 88 88 79 74 69 66 68 82
4 4 6 8 12 18 33 43 40 34 29 28 33 26 30 37 30 33 44 55 69 86 94 99 96 98 91 98 100 100 99 87 94 98 94 84 96 98 91 96 92 95 74 91 91 92 91
4 3 6 6 9 13 26 44 44 39 35 31 30 33 22 37 35 33 38 46 71 86 88 98 100 94 99 94 98 97 99 98 86 83 98 96 100 93 94 87 89 81 75 71 86 96 81
3 3 4 4 8 13 23 41 45 41 38 37 32 34 32 39 35 30 35 41 65 74 79 84 95 96 99 95 94 98 90 82 77 72 65 87 94 91 87 84 84 88 88 71 62 72 81
3 3 3 3 5 10 21 31 46 41 36 31 30 34 36 36 39 35 37 41 61 68 74 72 82 82 98 97 83 76 79 80 74 67 62 65 79 84 75 72 92 92 92 92 76 81 80
3 2 3 2 4 8 16 25 37 39 31 29 34 38 39 39 44 40 48 47 60 68 76 79 79 81 83 88 84 79 87 84 80 75 69 70 69 95 99 99 85 97 89 94 83 77 80
2 2 2 3 4 6 13 20 24 26 29 28 32 40 36 40 46 44 56 60 61 62 66 85 82 81 87 86 84 83 76 85 79 79 75 78 78 100 98 99 99 100 98 97 82 88 80
2 2 2 2 3 5 12 22 28 28 27 27 31 37 37 38 50 58 64 68 63 63 72 82 81 83 82 84 81 86 80 87 80 84 84 85 91 99 96 100 99 98 99 99 92 84 77
2 2 3 2 4 8 13 15 20 21 24 26 30 37 38 42 42 60 67 72 75 71 67 69 80 83 84 83 79 84 85 87 89 81 88 92 82 77 73 70 73 87 77 98 98 99 85
2 3 2 3 5 10 16 20 22 22 22 24 30 33 36 40 48 44 74 80 81 82 81 69 74 81 87 86 82 78 80 88 90 94 97 96 83 77 79 72 74 76 76 75 87 84 93
3 2 2 4 5 10 15 22 24 24 26 31 34 33 34 42 40 47 73 92 90 94 91 88 69 81 89 83 79 73 68 74 89 94 88 86 77 72 71 73 70 65 62 65 78 85 88
3 2 3 3 4 6 8 13 20 24 27 32 34 36 36 42 46 41 56 78 89 82 96 88 83 77 85 86 81 79 79 76 74 75 79 83 82 80 70 68 71 69 50 56 52 49 64
3 2 2 3 3 4 5 7 11 19 19 26 32 40 41 47 51 50 57 82 88 85 87 88 87 90 85 87 85 82 81 81 77 76 77 76 78 82 70 70 88 41 41 41 42 42 51
3 2 3 3 3 3 3 4 6 9 14 23 33 40 43 45 56 65 65 76 90 91 85 90 94 86 95 94 92 90 86 83 76 72 78 84 85 83 76 89 63 47 40 45 51 41 46
3 3 3 4 4 3 4 4 5 7 9 18 35 45 48 47 58 65 76 66 46 81 92 88 97 88 99 92 95 93 78 80 80 88 97 90 89 93 90 86 91 64 77 68 66 53 64
3 4 4 5 4 4 4 4 5 6 9 19 35 48 54 50 57 63 60 68 77 58 59 86 88 99 99 97 89 86 88 82 82 85 89 91 96 95 85 80 69 55 60 71 77 66 74
4 4 6 6 5 4 3 4 4 4 9 22 37 44 45 44 56 60 64 65 73 79 60 91 98 94 98 97 92 86 87 83 90 84 79 77 83 90 86 91 82 63 63 65 73 66 79
5 6 7 8 7 5 3 3 4 4 12 20 37 40 44 41 38 48 63 70 68 66 77 67 92 98 100 100 96 94 86 83 81 87 84 83 73 71 71 65 61 67 73 75 72 74 80

GFSGBSN_700_rhum_066.txt.gz
RH
16 14 10 10 17 19 21 36 48 43 47 21 41 38 34 39 23 19 25 24 26 26 32 36 37 60 51 59 45 32 56 56 92 99 76 84 98 67 36 75 76 72 89 97 97 94 75
15 14 12 11 13 18 20 26 34 40 55 19 39 34 35 44 28 24 29 29 29 30 45 45 40 60 48 45 38 34 53 70 85 98 82 93 100 76 52 66 79 81 87 80 88 100 86
13 10 13 10 12 20 20 23 20 32 54 18 35 34 36 47 35 29 31 33 35 38 53 56 53 54 50 56 41 46 39 74 91 97 93 99 100 93 54 67 77 92 83 96 99 100 99
13 13 11 9 12 21 22 29 18 27 56 17 36 39 39 49 46 38 36 40 43 51 59 78 74 63 58 60 46 57 44 88 74 91 95 98 100 93 72 78 74 95 84 97 92 92 100
12 11 10 8 10 22 23 29 20 40 57 16 32 37 41 50 58 48 53 41 57 57 60 79 81 75 76 78 70 64 52 100 72 92 95 99 98 85 81 73 77 91 82 88 85 81 84
8 8 8 7 10 22 27 26 30 32 55 21 23 36 43 50 60 60 68 51 61 73 64 74 97 91 88 82 79 86 48 80 87 96 88 96 98 85 94 79 88 83 89 81 82 73 80
9 7 9 7 8 18 27 27 28 27 39 42 14 33 42 48 59 67 71 69 76 90 74 84 96 97 96 94 79 98 96 100 92 98 97 96 98 82 79 67 63 67 80 81 84 78 69
7 6 7 7 8 15 24 32 28 31 32 53 13 29 43 49 56 68 77 76 86 88 75 71 83 94 86 93 96 88 96 95 98 97 73 98 97 97 97 83 77 61 82 83 87 82 78
6 5 6 6 9 14 22 32 35 29 29 42 33 24 42 47 51 68 75 81 78 90 98 97 94 89 99 96 82 90 82 95 98 92 98 94 92 87 89 92 80 81 68 69 69 82 86
6 5 5 5 7 13 20 33 37 33 30 31 48 19 41 40 45 56 72 77 87 86 89 98 97 96 100 94 100 79 76 89 95 98 98 98 86 82 95 84 83 91 80 60 71 77 93
4 4 4 5 6 11 18 32 38 35 32 30 31 23 38 43 35 44 64 68 83 93 92 97 99 99 91 91 92 70 66 74 85 85 94 98 74 85 91 90 87 87 86 77 81 82 82
4 4 3 4 6 11 14 24 35 37 34 36 34 33 23 39 41 42 55 72 75 77 85 92 99 99 100 100 75 58 61 60 97 84 98 97 93 88 92 90 95 81 72 78 81 78 83
3 4 3 4 4 11 12 21 35 37 38 38 40 29 32 34 46 36 40 61 73 90 83 92 92 98 98 96 83 82 82 76 98 98 99 98 99 94 89 93 92 80 72 88 90 91 92
3 3 3 3 4 6 11 15 26 34 36 37 33 27 27 29 39 44 33 45 73 86 99 97 99 96 96 98 99 99 99 96 99 90 99 98 99 99 86 88 86 92 73 71 86 96 82
3 3 3 3 3 4 6 10 15 29 37 34 28 28 27 33 32 41 40 47 74 86 84 94 94 91 99 91 99 100 85 81 83 82 75 90 99 100 100 96 89 98 88 75 61 75 80
4 3 3 2 3 4 5 6 11 15 20 24 28 31 32 34 30 40 44 44 68 77 83 82 87 90 93 99 95 92 95 90 92 81 70 76 95 100 99 89 92 85 79 81 74 82 82
3 3 2 2 3 3 4 5 15 22 23 24 27 32 34 35 34 42 44 43 68 79 78 80 86 92 81 74 79 76 74 86 86 72 70 68 70 100 96 94 96 94 93 87 81 73 78
3 3 2 2 2 3 4 6 13 21 25 23 26 33 37 37 44 44 50 54 63 70 73 78 84 93 92 86 77 74 72 70 73 73 69 72 78 98 100 82 82 86 95 95 95 88 85
3 3 2 2 2 4 6 8 11 13 18 22 22 30 35 39 43 53 51 57 61 67 75 82 84 82 85 85 86 86 83 76 72 72 70 71 85 98 99 95 88 89 90 93 100 88 84
3 2 2 2 4 5 7 9 12 14 16 20 23 30 36 42 47 55 61 69 66 66 68 72 78 86 86 89 83 89 88 89 90 89 85 83 76 71 74 67 72 86 91 100 98 99 89
3 2 2 2 4 6 7 10 12 16 18 22 24 28 38 39 49 45 65 75 72 77 73 68 75 82 84 89 86 82 90 93 98 94 95 92 88 78 79 80 78 72 86 81 97 91 98
3 2 2 3 4 4 5 7 8 11 18 23 23 28 37 41 45 47 71 87 88 90 88 88 74 82 87 91 83 75 73 83 92 97 99 98 87 79 76 77 77 74 74 82 83 82 92
2 3 2 3 3 3 4 5 5 7 10 14 17 25 34 42 44 47 55 74 89 91 95 93 91 82 84 90 83 80 80 78 81 89 91 93 88 84 80 72 72 74 50 56 60 57 57
3 2 2 3 3 3 4 4 4 5 6 9 14 22 34 38 42 51 56 67 87 94 87 99 98 94 86 90 89 84 82 85 82 78 79 80 84 89 82 75 82 49 48 46 48 46 49
3 2 2 3 3 3 4 4 4 4 5 10 16 23 32 36 41 47 54 60 86 91 92 97 96 98 100 96 95 88 88 85 81 79 78 84 86 85 81 83 66 43 50 55 47 39 50
3 2 3 3 3 4 4 4 4 4 5 12 18 28 31 34 41 47 52 59 68 68 94 94 95 95 100 95 99 96 84 82 79 88 82 89 86 92 92 86 90 55 79 78 71 62 80
3 2 3 4 4 4 3 4 4 4 5 12 22 29 34 37 38 44 56 63 63 76 56 73 96 90 98 95 90 90 86 83 78 83 86 92 92 96 94 94 76 62 63 63 69 70 77
3 3 4 4 4 4 3 3 4 4 4 11 21 29 38 37 38 38 50 63 66 64 75 69 84 90 98 97 98 91 80 86 88 84 79 77 86 90 93 95 82 65 69 67 76 72 67
4 4 6 6 6 4 3 3 4 3 4 8 17 28 39 44 46 46 56 58 60 63 67 75 81 97 100 97 95 91 84 90 84 89 86 84 73 70 68 64 60 64 70 74 72 78 80

GFSGBSN_700_rhum_069.txt.gz
RH
11 8 6 6 8 15 18 21 12 16 38 43 27 23 25 32 41 44 30 24 26 28 30 45 42 78 55 89 83 46 45 44 55 87 95 84 76 97 91 79 77 79 98 93 97 90 86
10 10 7 6 7 15 20 21 17 17 43 41 26 26 32 39 49 49 40 32 34 37 38 59 47 67 54 44 53 51 44 42 56 75 94 92 83 95 100 68 82 82 96 94 94 92 99
14 7 7 7 7 15 21 22 22 23 43 52 20 30 33 40 53 52 53 40 45 46 46 59 75 64 52 49 41 37 25 52 63 98 88 99 97 98 79 73 79 99 84 92 90 92 99
12 7 6 6 7 11 23 23 24 22 30 57 16 30 36 42 52 59 64 46 50 51 52 73 70 60 53 52 50 44 31 46 60 95 93 98 96 96 73 72 76 85 85 87 87 89 95
25 13 9 6 7 10 19 26 28 26 26 45 31 20 37 44 51 63 65 55 62 64 59 70 79 70 73 72 59 46 42 45 65 92 94 85 99 98 75 62 82 90 91 87 91 98 89
34 24 9 8 7 9 15 24 30 30 27 30 52 15 35 48 53 63 68 66 73 68 66 72 80 76 77 84 72 72 45 45 57 98 99 98 98 98 74 67 92 87 83 96 87 94 99
58 19 7 8 8 8 14 22 30 32 31 27 47 17 35 48 54 57 72 68 78 72 58 72 90 94 93 90 80 87 46 46 92 98 98 89 98 99 73 72 70 65 83 84 83 77 80
23 17 6 7 8 8 13 21 31 34 32 29 31 30 31 48 47 50 70 74 74 87 84 71 70 87 99 97 98 94 64 80 84 99 98 98 96 94 88 89 78 77 80 83 82 85 83
80 19 5 6 7 7 11 18 31 34 33 32 30 39 21 46 41 48 64 78 79 80 97 97 88 94 87 95 96 97 100 94 83 99 75 90 95 95 93 98 76 91 74 86 82 85 81
73 21 5 5 6 6 10 14 22 28 35 35 35 32 31 35 42 44 62 70 80 80 90 99 99 98 95 94 98 81 86 93 98 99 78 75 98 89 88 91 87 88 81 60 60 69 90
41 6 4 4 5 5 8 9 16 26 38 39 38 37 29 28 43 42 60 70 79 78 85 82 93 93 94 97 100 98 78 86 97 100 90 96 89 88 88 79 88 83 74 73 69 78 79
14 4 4 3 4 4 6 8 12 17 33 37 36 35 29 34 43 45 53 65 85 74 91 81 92 97 99 100 95 97 81 79 88 92 98 99 93 85 90 80 81 83 86 89 86 87 85
30 4 4 3 3 4 4 6 10 13 23 36 34 32 29 32 38 45 43 53 78 83 83 92 97 98 99 99 100 95 88 81 92 97 99 100 92 91 93 95 97 78 87 89 87 89 87
99 5 4 3 3 3 3 4 7 10 12 23 25 31 33 30 38 44 43 47 72 87 100 94 98 96 99 99 100 99 96 99 88 84 98 98 98 98 94 88 89 83 74 69 89 92 82
76 5 3 3 2 2 2 3 5 9 14 17 22 32 37 31 40 41 48 51 76 77 91 93 93 85 97 99 100 100 89 99 97 88 83 86 99 94 100 98 80 72 79 70 64 78 74
67 8 3 3 2 2 2 3 4 9 14 18 25 33 36 34 39 42 51 49 69 80 81 84 91 90 93 99 96 94 98 89 96 88 73 77 97 92 95 94 88 80 77 77 75 80 76
80 11 3 3 2 2 2 4 5 7 12 18 25 33 34 37 39 48 57 56 79 81 82 81 90 95 97 91 90 86 87 95 88 82 72 70 73 99 92 99 92 95 92 84 75 73 74
95 16 3 3 2 2 3 4 6 6 9 16 20 31 33 38 41 52 64 74 80 82 80 82 89 91 96 89 85 78 77 82 80 74 70 67 72 94 94 96 97 96 84 76 80 84 83
98 8 3 2 2 2 4 5 6 7 10 14 18 24 33 38 41 53 70 72 72 74 81 87 85 80 86 86 84 84 82 80 82 81 75 71 87 98 97 99 98 94 81 82 82 89 89
79 4 3 2 2 3 4 5 7 8 9 16 21 26 30 36 41 48 73 76 75 76 71 82 85 86 84 80 86 87 89 86 88 87 90 84 75 70 69 73 70 73 61 69 83 94 88
56 3 3 2 2 3 4 4 5 5 9 17 19 24 30 30 40 49 61 77 83 86 81 73 72 85 89 87 87 84 87 88 98 97 98 94 87 79 79 78 76 76 72 74 93 95 97
42 3 3 3 3 3 3 4 4 4 4 8 10 22 27 35 39 44 57 74 90 92 88 86 77 79 83 90 86 77 78 81 92 93 98 98 93 83 77 75 78 80 76 74 80 91 100
33 3 3 2 3 3 3 4 4 4 4 5 8 13 25 31 39 42 50 64 81 92 95 91 87 84 84 93 88 80 77 76 85 91 91 97 96 88 82 75 72 65 49 51 57 58 64
14 3 3 2 3 3 4 4 4 4 3 6 11 16 22 26 35 41 48 58 62 78 99 100 98 92 92 91 91 84 82 84 83 87 91 88 94 96 84 82 86 53 54 50 48 46 54
24 3 3 3 3 3 4 4 4 3 3 8 14 22 26 28 31 39 46 56 62 74 99 97 97 90 94 95 95 94 88 87 87 86 82 82 84 82 81 84 66 48 50 60 58 54 58
60 5 3 3 3 3 3 4 4 2 3 7 12 21 28 30 32 36 45 51 57 62 81 96 91 98 96 95 96 96 84 84 83 85 81 82 88 90 91 90 88 60 79 77 76 76 82
80 4 3 3 3 3 3 4 3 2 3 6 10 20 26 30 35 38 41 51 56 59 69 61 93 96 97 95 98 94 88 82 78 81 80 94 99 97 95 87 70 63 64 63 66 72 78
92 6 3 3 3 3 3 4 3 3 3 5 10 18 26 31 36 43 47 49 53 57 59 71 64 85 100 99 99 92 84 80 84 81 81 80 85 88 96 96 86 64 71 69 74 75 76
21 8 4 4 4 3 3 4 4 3 4 4 7 16 28 32 40 47 52 54 53 57 61 72 81 88 88 96 96 94 84 85 84 88 86 84 77 75 71 65 62 63 70 75 78 77 79

GFSGBSN_700_rhum_072.txt.gz
RH
32 11 8 6 6 6 13 26 22 21 28 45 35 24 27 31 40 49 51 41 35 37 45 36 49 38 49 80 93 82 81 71 59 50 88 85 76 73 80 62 74 91 99 100 98 81 83
40 30 8 6 7 7 12 23 27 24 23 26 51 17 30 35 40 51 55 48 43 43 46 41 52 55 46 45 86 50 56 56 48 53 95 87 82 77 80 92 83 95 93 98 97 81 89
54 64 10 8 6 8 13 20 30 28 27 28 41 24 21 38 42 54 59 52 51 47 46 48 56 56 49 41 42 53 34 42 43 63 95 94 94 87 54 76 81 81 89 80 95 79 92
100 91 26 10 6 7 10 19 27 32 33 29 28 48 16 35 44 56 62 58 50 48 53 56 66 54 49 42 36 33 27 36 45 67 96 100 91 92 87 93 71 84 96 97 97 87 92
100 99 22 12 6 6 9 17 24 33 35 32 28 49 18 38 47 56 64 62 53 45 53 57 71 68 60 60 41 34 25 22 52 70 79 98 98 96 87 88 91 98 77 89 89 88 94
93 92 44 12 6 5 8 14 22 31 36 34 31 33 24 39 48 52 66 63 65 50 51 56 61 73 80 68 64 36 31 31 66 66 94 98 99 98 96 97 76 70 72 83 87 80 91
89 87 55 30 6 4 6 10 20 27 37 36 33 30 36 32 44 48 67 68 72 71 66 56 64 74 93 72 76 69 37 40 89 78 98 98 98 98 98 88 58 60 72 94 95 88 78
91 93 28 26 11 4 5 7 16 23 33 38 38 35 32 27 44 47 66 70 72 77 88 84 68 81 92 92 95 92 45 67 87 93 97 98 97 99 98 94 83 82 76 82 99 81 92
97 98 52 32 7 4 4 6 11 18 30 38 40 38 35 31 37 44 65 69 77 79 81 99 95 94 99 98 94 99 64 85 91 97 87 98 94 97 98 81 88 78 68 82 79 82 98
98 88 64 26 4 4 4 5 9 13 20 34 40 38 35 30 40 51 60 70 76 78 84 90 87 77 94 94 98 98 82 70 78 98 98 96 99 94 100 83 82 85 81 86 72 86 68
100 85 35 8 4 4 4 4 6 10 12 27 39 35 31 30 36 54 53 70 78 74 84 73 92 78 90 86 100 94 90 91 92 99 81 81 94 97 99 87 84 84 77 86 80 68 74
98 87 25 24 4 4 4 4 5 7 9 18 26 30 28 32 37 46 53 60 82 74 93 82 90 98 91 96 99 67 90 96 96 93 73 75 97 86 97 80 78 63 80 83 76 73 71
98 89 49 67 8 3 3 3 4 5 8 17 18 21 29 36 34 39 51 54 78 90 87 86 95 100 93 98 98 98 98 94 98 99 100 94 93 95 88 79 83 82 79 87 81 86 58
98 98 96 65 4 3 3 3 3 4 7 16 18 23 29 37 36 38 45 55 80 84 99 94 92 93 95 94 96 95 100 92 92 94 100 96 98 98 96 88 86 91 68 62 62 62 49
97 96 87 31 3 3 3 3 3 4 6 12 15 21 31 33 38 40 44 57 79 86 87 91 92 90 94 98 95 96 99 96 88 96 95 96 98 95 98 92 85 91 86 64 70 70 60
95 97 92 19 3 3 3 2 3 4 6 10 14 19 30 36 37 45 50 58 75 82 86 90 94 90 94 98 93 95 99 98 89 87 82 84 97 99 90 88 91 76 78 75 73 75 58
99 96 90 21 3 3 3 3 4 5 6 9 13 18 27 35 37 47 57 64 74 82 82 86 90 90 94 98 91 91 96 99 98 81 76 78 87 97 95 93 98 88 87 78 73 71 50
100 94 84 27 3 3 2 4 4 5 6 9 12 19 24 32 42 45 65 72 77 82 80 85 96 84 93 91 91 84 94 94 96 81 69 68 88 99 98 88 78 81 92 83 71 77 77
100 96 86 27 3 3 2 4 4 5 6 8 11 16 22 32 41 50 64 70 72 73 76 88 91 81 85 87 88 81 79 84 89 79 76 68 80 96 98 96 89 95 92 85 88 75 90
100 93 84 14 3 3 3 4 4 5 6 8 13 16 20 30 39 48 72 72 73 75 74 81 86 81 80 81 82 85 83 79 83 91 82 76 74 74 66 67 78 90 82 83 88 91 74
100 96 85 10 3 3 3 4 3 4 4 5 8 14 17 25 37 47 64 77 80 79 75 69 81 87 82 79 80 82 86 86 90 86 88 87 84 78 72 69 72 71 67 63 69 55 81
100 100 87 8 3 3 4 3 3 3 3 4 5 8 13 23 38 43 54 66 82 85 82 80 74 79 92 91 88 85 79 86 88 95 92 87 88 85 80 76 75 71 71 70 69 68 81
98 100 80 5 3 3 4 3 3 3 2 3 7 11 13 20 33 42 47 60 78 93 90 86 87 80 86 91 89 84 76 75 88 97 92 92 92 84 91 77 74 68 50 52 52 51 59
100 100 75 5 3 3 3 4 4 2 2 4 7 11 15 20 29 38 46 50 65 86 96 97 95 88 86 89 93 85 84 83 87 95 98 94 96 97 93 83 82 60 53 52 52 51 52
100 100 65 5 4 3 3 4 3 2 3 4 6 11 18 24 29 34 41 48 54 64 84 100 89 86 92 96 90 90 90 94 91 87 86 88 91 86 87 82 67 52 54 62 61 64 59
100 100 44 7 5 3 3 4 3 2 3 4 5 10 17 25 30 34 38 43 48 56 73 94 95 94 85 99 96 95 80 84 87 86 88 89 89 87 85 83 66 61 68 65 57 71 78
100 100 63 8 4 3 3 4 2 3 3 4 4 10 15 26 33 37 38 40 46 52 58 65 83 88 97 88 98 96 86 78 80 89 83 98 98 98 89 84 73 62 62 64 69 71 72
100 100 48 7 4 3 3 4 2 3 3 3 4 10 17 23 34 41 45 46 46 47 53 58 63 85 90 89 95 95 82 76 78 77 78 91 92 98 100 95 79 66 69 71 76 76 75
99 100 88 8 4 3 3 4 3 3 3 2 4 10 18 20 26 39 46 46 45 48 52 61 64 68 81 86 83 88 90 80 78 84 79 85 83 87 78 81 61 64 71 74 81 76 73

GFSGBSN_700_rhum_075.txt.gz
RH
98 65 41 70 26 11 8 7 18 24 27 24 24 34 33 18 35 41 47 55 51 45 39 40 42 50 46 54 97 95 96 97 70 63 83 85 76 71 93 76 93 94 99 95 95 100 83
76 72 91 93 61 18 9 8 13 23 28 30 27 25 48 16 32 44 51 56 54 40 40 47 52 55 46 89 71 92 90 88 66 62 94 92 86 81 89 76 75 80 97 82 95 70 84
94 80 85 99 95 20 11 10 10 23 26 29 31 26 47 19 35 46 55 58 55 39 40 52 58 52 44 57 39 59 55 65 57 69 100 98 97 94 96 78 79 83 77 90 83 76 100
100 100 89 92 76 36 15 10 11 19 26 31 32 29 33 24 38 50 55 60 58 44 40 47 56 57 85 49 40 47 39 53 52 64 90 100 98 89 94 86 85 93 78 94 87 100 92
87 100 100 89 71 41 22 12 12 15 24 32 35 32 30 33 34 44 54 63 65 52 44 50 56 58 95 62 47 32 31 49 47 65 78 100 97 98 91 88 92 92 70 78 72 93 98
94 100 99 85 76 18 17 16 9 12 19 28 34 36 34 32 29 44 53 66 67 66 66 60 65 81 84 74 50 41 29 28 60 54 71 98 100 100 95 98 72 69 59 67 59 92 100
94 95 95 84 97 24 36 14 7 12 14 25 37 39 36 35 30 45 54 65 71 70 82 87 70 74 82 65 60 55 38 35 79 62 71 97 100 92 87 89 53 44 46 60 56 88 93
96 98 97 97 87 26 24 8 5 10 12 23 36 38 39 35 31 43 51 67 76 74 82 96 96 84 83 64 67 77 42 71 73 94 76 98 99 94 93 91 93 54 49 63 69 95 91
100 92 100 87 87 12 7 6 4 8 10 19 30 36 36 31 29 42 50 69 77 79 78 96 80 85 80 79 82 63 45 73 67 74 87 99 93 85 94 98 84 58 45 74 77 92 98
94 94 99 91 92 19 12 5 4 6 8 12 23 31 35 26 32 40 52 66 77 75 82 97 89 81 88 94 82 62 66 83 68 70 80 99 92 98 97 89 69 73 57 62 65 86 70
96 100 100 100 92 29 27 8 4 5 7 9 20 19 26 28 27 43 52 59 80 69 82 89 87 71 80 85 90 95 97 81 85 98 99 93 84 96 100 87 74 66 71 72 81 76 49
100 96 99 100 92 53 43 10 4 4 5 7 21 19 25 29 32 38 50 54 81 84 87 82 96 85 84 92 94 91 95 97 98 93 97 85 84 98 94 88 85 76 74 80 75 60 59
100 96 100 100 92 58 65 10 4 4 4 6 17 20 25 29 30 38 47 54 88 97 71 90 91 75 87 95 86 98 98 98 89 100 96 93 98 98 98 83 72 75 72 71 69 76 59
100 99 99 100 91 96 51 6 3 3 4 6 13 18 22 29 32 34 45 60 98 85 88 83 92 86 94 83 86 93 92 98 96 93 92 95 99 99 90 88 78 79 60 52 54 52 42
98 100 100 100 86 94 27 4 3 2 5 7 11 16 20 25 33 34 45 70 93 77 82 84 91 100 99 89 93 98 94 96 98 94 80 85 98 94 94 92 82 87 79 70 61 55 44
93 100 100 100 87 90 30 3 3 3 6 6 10 14 19 24 32 33 47 60 78 76 82 92 99 95 98 89 93 100 86 82 95 99 86 92 98 94 89 86 80 88 84 62 73 68 46
91 99 100 100 99 96 27 3 3 3 6 6 11 13 20 24 33 38 47 59 79 81 78 98 94 89 89 94 94 97 97 86 100 90 85 92 86 99 94 91 84 82 83 78 70 66 51
89 98 100 100 100 90 23 3 3 4 6 7 8 15 16 24 36 38 52 64 75 80 77 83 90 99 95 96 88 90 98 99 93 92 94 87 98 99 95 96 89 86 82 67 65 61 57
87 93 100 100 100 96 22 3 3 4 5 7 9 12 16 24 35 49 54 67 79 79 77 89 87 82 91 95 88 94 92 89 94 91 91 74 95 97 92 96 86 84 87 84 69 75 84
99 85 100 100 100 83 10 3 3 4 4 5 7 11 15 23 34 49 74 82 74 70 76 85 88 80 86 88 84 88 83 79 93 92 80 74 85 85 68 75 73 89 83 84 89 95 69
100 76 100 100 100 76 6 3 4 4 3 4 4 8 12 16 29 40 48 85 98 75 69 80 87 85 84 83 86 94 90 80 85 86 84 82 81 73 66 64 64 76 94 92 96 89 82
100 86 100 100 100 54 5 5 4 3 3 4 4 6 11 14 24 38 46 65 100 83 75 74 85 79 83 86 91 90 96 96 96 84 88 89 85 80 78 73 74 74 77 91 91 92 92
100 88 100 100 98 21 4 4 4 3 3 3 5 8 12 17 24 39 70 88 77 79 84 79 73 84 98 88 86 81 79 77 92 99 96 93 87 84 85 78 74 72 57 58 66 61 82
99 88 100 100 73 20 4 4 4 3 2 3 4 8 13 17 24 35 37 46 72 88 86 85 81 92 78 85 90 88 81 77 82 90 98 98 94 94 94 79 80 62 57 50 58 66 60
100 92 100 100 88 32 5 4 3 4 2 3 4 8 15 19 23 27 38 46 64 80 96 85 90 82 82 87 94 85 92 90 84 79 85 93 99 98 92 74 63 61 45 47 50 52 53
100 97 100 100 41 11 6 6 6 5 3 3 4 9 14 20 23 30 35 43 57 65 77 89 88 82 82 90 97 83 73 71 88 91 82 80 88 95 88 77 59 64 54 57 57 56 62
98 100 100 100 50 14 7 5 4 6 3 3 4 8 15 21 26 33 36 40 44 52 73 67 90 87 82 82 93 92 78 78 72 77 97 100 98 92 88 89 70 67 65 61 66 73 74
100 99 100 100 42 14 6 4 4 7 3 3 6 9 15 19 27 35 39 40 42 46 54 48 71 82 92 100 100 96 83 82 78 74 86 86 89 90 90 98 78 71 71 70 92 77 70
99 96 99 99 44 10 5 4 3 4 2 4 6 9 11 17 25 36 39 40 43 45 46 50 51 56 71 83 84 90 88 84 77 73 75 80 80 87 77 81 79 62 76 76 74 74 71

GFSGBSN_700_rhum_078.txt.gz
RH
95 85 93 99 98 78 79 58 21 10 14 23 26 28 28 40 33 23 39 40 53 53 36 38 44 48 45 70 84 85 96 94 98 97 99 93 92 68 74 57 87 93 94 79 83 98 81
99 88 96 100 100 100 93 66 22 14 12 21 28 29 30 28 33 29 43 44 55 51 36 39 45 48 39 97 54 90 96 97 96 83 97 100 95 79 75 87 83 84 96 80 82 98 84
91 86 87 94 100 100 94 56 19 22 10 18 29 31 32 30 32 31 41 45 57 52 41 42 48 53 42 45 38 76 91 94 98 69 98 100 84 94 90 90 73 76 74 77 97 85 92
85 91 84 99 100 100 95 82 32 38 10 16 27 33 34 34 31 31 39 48 60 59 56 52 52 57 90 54 33 50 62 76 79 73 93 98 90 74 82 83 76 78 88 97 96 85 75
85 84 90 100 98 98 93 88 62 35 9 17 25 33 35 36 36 31 40 51 63 66 71 68 61 70 97 66 32 36 38 99 76 67 96 98 99 78 90 94 88 84 93 84 94 85 80
78 86 90 90 89 98 92 89 43 13 8 15 21 32 34 37 36 32 40 55 64 69 72 69 74 86 98 81 37 26 34 40 82 67 87 98 99 95 97 90 93 86 75 79 73 78 91
73 93 83 90 100 95 97 91 24 9 8 13 15 26 34 32 33 31 43 55 67 72 75 89 100 86 93 81 42 28 29 23 46 52 86 97 99 98 94 98 78 66 56 59 58 71 72
62 81 85 92 83 99 99 100 42 24 8 12 13 22 31 32 30 34 44 53 69 76 80 88 74 96 75 59 58 55 27 44 70 78 58 85 97 98 98 82 95 92 58 55 56 67 84
63 61 81 88 92 100 100 100 51 42 9 10 11 19 23 27 28 32 43 50 73 79 74 95 79 81 88 71 63 39 28 70 77 87 65 70 89 82 94 86 90 89 78 55 80 81 70
62 82 65 89 87 99 100 100 80 58 14 8 10 19 20 26 31 30 40 49 75 72 91 91 81 74 86 71 69 30 45 55 48 88 58 96 99 76 77 74 92 80 62 50 78 80 64
90 93 76 86 88 100 100 100 89 80 21 8 8 20 22 29 32 32 41 49 75 70 96 100 80 71 75 60 60 72 73 80 68 67 65 85 94 70 73 66 90 70 76 73 73 59 65
99 100 92 69 96 96 100 100 83 98 23 6 7 18 22 29 34 31 40 49 75 92 88 95 83 73 92 96 95 92 89 87 81 77 76 99 81 94 91 96 96 90 79 92 83 74 74
97 100 94 63 98 98 100 100 82 84 16 5 8 16 21 28 32 30 39 52 90 90 77 90 91 70 88 82 99 98 94 92 98 98 100 99 97 95 91 92 84 87 95 79 81 79 77
99 100 99 80 97 100 100 100 100 45 10 5 9 14 21 29 32 32 41 58 95 99 85 94 82 75 99 82 90 96 98 89 89 92 91 86 92 98 92 89 70 79 61 64 66 79 66
100 98 99 80 92 100 100 100 100 33 7 5 10 13 19 28 32 34 44 75 95 73 80 96 85 95 90 89 90 95 98 100 82 83 88 90 94 97 98 97 77 76 69 71 65 50 53
98 100 100 88 92 100 100 100 98 29 6 6 10 12 18 26 32 33 43 76 92 78 85 98 99 95 87 81 87 92 97 93 86 93 80 86 86 95 84 78 88 76 84 70 61 71 49
74 100 100 97 94 100 100 100 97 19 5 7 8 12 19 24 32 36 37 50 83 75 77 95 95 92 81 80 90 94 93 83 89 87 76 89 81 98 90 86 76 89 84 76 63 64 79
72 99 100 100 98 100 100 100 90 12 5 8 10 13 18 25 32 34 40 51 68 76 79 81 91 94 89 83 86 88 85 85 94 89 83 89 98 93 97 92 86 88 79 82 71 70 59
92 99 100 100 99 100 100 100 93 7 6 10 10 14 15 24 34 47 44 55 70 74 77 93 92 91 96 94 92 84 98 93 78 83 97 89 88 97 98 94 86 88 74 71 69 64 70
100 92 96 99 99 100 100 97 84 7 8 9 8 11 15 24 32 58 83 62 69 64 69 81 94 80 90 94 91 87 75 87 93 82 85 76 86 82 78 80 76 72 63 71 84 89 76
82 96 99 99 100 100 100 98 24 8 9 7 7 9 11 16 25 38 82 92 94 64 68 78 85 85 92 90 85 94 92 77 91 89 88 80 82 78 75 70 65 67 71 74 79 68 83
92 94 99 100 99 100 100 96 9 8 7 5 5 6 10 15 19 32 47 66 94 88 65 74 87 87 78 95 89 98 91 95 85 87 93 90 86 76 73 70 68 70 70 74 79 80 81
85 98 98 100 99 99 97 93 6 11 5 4 4 6 11 17 22 33 47 64 92 92 76 89 82 74 89 79 82 85 83 86 93 90 93 95 92 86 88 81 79 77 56 58 60 65 75
100 99 95 99 99 99 83 48 8 11 4 3 4 8 13 17 23 38 70 52 61 69 80 78 79 82 83 80 83 86 84 78 81 85 89 99 98 90 95 82 94 60 62 59 68 68 82
71 97 99 98 100 99 74 11 9 6 4 3 5 10 15 21 28 30 41 42 41 64 75 76 81 75 77 80 90 85 87 85 86 75 93 91 95 93 94 94 68 67 62 52 51 49 56
98 99 99 99 98 99 60 9 7 4 8 4 8 11 16 22 26 26 30 39 48 65 83 88 87 81 78 86 93 90 86 75 90 83 81 84 94 97 97 86 75 62 59 52 51 67 76
99 95 99 99 99 99 27 10 6 15 14 5 9 12 17 22 23 29 34 39 38 59 68 72 74 84 81 87 93 89 82 80 79 81 79 88 95 90 90 88 67 71 69 66 57 89 83
85 95 99 99 99 97 19 15 34 42 13 6 10 12 16 23 25 30 32 36 39 45 46 51 80 80 82 84 94 82 92 86 71 74 86 79 76 82 87 88 88 69 71 68 83 91 81
99 99 99 99 99 79 13 38 40 35 18 7 9 13 19 25 28 35 36 37 40 40 41 43 56 64 72 86 94 95 90 83 73 72 78 79 84 87 77 79 76 78 66 65 70 82 75

GFSGBSN_700_rhum_081.txt.gz
RH
98 94 95 94 87 85 100 100 100 90 44 32 11 15 18 26 29 30 28 42 46 56 53 38 37 40 42 42 40 44 90 92 85 84 70 97 88 94 74 66 88 99 93 99 96 92 85
92 99 96 96 87 97 100 100 100 92 64 80 13 14 18 25 31 31 30 44 49 59 54 52 49 46 46 37 31 52 94 96 98 66 77 89 100 92 59 72 98 79 90 73 97 99 95
99 98 95 89 86 89 100 92 98 96 45 37 13 14 17 25 33 34 31 45 53 62 60 64 61 50 63 51 30 41 96 95 98 72 93 95 100 97 79 85 80 88 86 79 96 96 100
72 95 91 90 86 81 86 88 93 95 58 17 12 13 15 26 34 35 32 46 59 64 65 69 69 59 71 70 37 42 87 98 97 96 98 98 94 93 82 76 68 81 78 86 95 99 93
70 77 72 84 96 90 83 89 99 99 98 52 10 11 14 26 31 32 33 46 63 66 65 69 76 68 85 77 36 36 58 82 82 94 98 81 94 98 96 82 78 86 94 96 92 99 98
51 69 82 73 87 91 86 90 93 100 100 67 14 10 13 24 28 29 34 49 60 70 69 63 70 81 84 92 36 33 34 44 59 73 86 98 88 92 89 79 91 93 92 90 86 92 100
16 53 85 92 81 86 92 87 89 100 99 83 29 10 13 20 25 27 39 51 61 71 68 63 73 88 75 56 35 30 34 24 52 54 83 100 98 85 73 82 99 91 84 73 83 70 80
3 20 80 100 100 77 80 91 96 100 100 97 66 9 14 17 24 30 39 50 61 69 61 72 80 77 75 46 30 25 32 26 50 46 59 95 97 85 82 88 91 86 74 85 77 86 92
2 2 39 100 95 99 70 96 100 99 99 100 95 9 15 19 25 32 40 52 63 70 70 90 71 80 64 47 27 21 29 25 41 50 49 66 97 99 90 91 92 77 67 63 69 85 98
2 2 2 61 100 97 84 90 100 99 100 100 99 13 14 21 26 33 43 50 68 68 85 90 68 71 71 54 37 23 36 50 44 71 46 61 77 87 85 95 90 87 65 66 77 79 80
9 3 2 6 100 87 100 80 99 98 100 100 99 16 13 21 28 33 37 48 74 72 91 90 62 74 76 54 56 44 66 68 61 65 60 72 88 82 83 86 85 80 72 74 72 88 86
11 7 2 2 98 99 96 90 98 95 100 98 97 13 14 22 28 32 41 49 76 91 85 95 80 74 84 83 95 88 97 93 66 75 58 99 95 69 77 89 84 85 85 80 79 94 87
20 16 4 2 79 100 100 100 96 99 100 100 85 10 14 20 29 33 40 54 86 92 85 94 77 90 93 96 99 94 97 90 78 79 73 99 98 98 92 92 98 99 87 98 98 93 78
27 24 23 9 43 100 100 100 99 99 100 100 66 9 15 19 27 33 41 64 96 94 85 97 80 88 96 100 94 88 100 80 93 99 98 97 98 100 90 91 95 81 76 65 84 90 67
43 55 57 55 35 100 100 100 100 96 100 100 60 10 16 19 28 34 47 75 87 79 76 86 83 97 92 93 94 96 89 92 98 84 91 89 97 96 97 85 82 97 80 71 60 55 64
82 87 76 67 57 99 100 100 100 90 100 100 38 13 18 19 27 36 49 60 86 83 86 86 90 81 79 82 89 95 98 81 94 94 90 79 93 99 81 81 77 79 81 68 60 68 61
95 93 88 100 97 99 100 100 99 97 100 100 16 16 20 20 25 38 46 55 67 79 84 99 94 95 76 77 94 94 84 90 81 88 79 80 69 96 92 86 80 71 78 66 64 68 82
97 96 98 98 98 99 100 100 88 99 100 86 11 19 22 22 24 34 34 52 72 79 82 84 79 80 76 80 92 95 78 86 77 87 94 84 81 99 92 89 83 86 71 78 67 65 62
94 98 98 91 97 99 99 100 94 100 100 41 15 20 25 19 20 32 42 55 81 83 81 81 83 93 83 90 86 89 87 86 81 82 82 77 84 93 100 93 77 82 77 73 67 70 66
96 98 97 98 96 98 100 100 100 100 99 12 18 17 20 20 24 33 48 59 77 79 78 80 83 87 96 92 92 87 80 82 90 84 74 70 81 82 72 71 70 75 68 74 80 77 68
95 96 98 96 96 99 100 100 99 100 86 9 15 12 10 14 20 34 64 76 65 75 73 77 79 87 96 91 89 88 85 84 90 90 81 77 81 82 85 78 75 76 65 68 74 70 71
94 98 99 98 96 99 99 99 100 97 52 11 14 11 12 14 18 47 76 86 70 70 65 74 75 89 89 89 88 89 86 82 90 93 96 89 85 80 75 70 68 65 64 63 70 80 82
71 95 98 81 95 99 99 99 100 98 27 10 9 9 10 15 20 32 40 70 91 74 68 63 83 88 86 88 88 95 91 84 86 86 89 92 93 88 82 87 83 76 56 54 52 56 63
74 100 92 55 98 99 99 99 86 57 21 13 15 11 12 15 20 27 45 63 89 84 67 64 69 75 79 83 87 87 86 90 91 89 93 92 94 93 93 91 94 61 63 60 57 60 64
90 98 97 53 99 99 99 98 100 46 15 12 12 10 15 19 25 34 65 66 76 69 67 66 66 75 80 82 92 88 88 83 79 77 94 90 90 96 97 90 73 64 65 64 54 61 64
95 99 54 96 99 99 99 91 100 18 17 11 10 13 17 22 26 42 44 55 51 52 58 72 73 77 81 86 88 84 84 78 93 87 85 83 94 94 99 95 85 65 62 58 52 59 66
88 100 82 94 99 99 99 98 79 17 10 9 11 14 19 24 28 31 33 37 39 53 59 66 74 80 82 84 88 84 82 82 82 80 81 93 97 95 94 93 75 69 72 70 65 79 85
91 100 76 97 99 99 98 79 30 15 11 10 12 14 22 27 30 32 32 35 36 38 40 49 70 68 80 81 97 88 89 84 75 77 77 73 76 82 92 94 84 78 81 78 76 78 90
98 100 98 99 97 98 99 57 24 28 16 9 14 20 26 28 29 35 36 41 42 41 42 38 48 52 63 72 79 83 86 86 74 72 79 79 75 76 78 85 89 89 86 77 84 98 94

GFSGBSN_700_rhum_084.txt.gz
RH
92 95 90 90 96 95 98 98 100 92 98 92 68 17 8 11 16 26 33 31 35 44 56 58 56 58 50 45 43 29 38 89 84 91 92 62 98 93 83 44 79 97 100 97 98 94 83
41 81 96 95 88 96 100 100 100 100 100 97 99 60 10 10 15 24 34 32 37 47 59 61 63 63 50 53 44 36 46 91 96 81 87 69 96 94 84 59 73 85 87 93 90 99 89
8 28 57 81 100 92 97 100 100 100 100 100 97 88 21 10 17 24 30 31 41 54 62 64 59 63 57 62 41 41 80 95 85 73 76 49 96 98 84 80 69 96 96 87 88 99 100
3 5 23 81 90 98 98 92 100 99 100 100 99 98 54 10 16 25 28 28 45 59 64 63 57 63 68 72 42 42 81 94 98 63 75 89 95 88 95 79 70 97 98 99 99 98 98
2 2 3 17 100 98 94 96 100 97 100 100 100 96 91 10 15 24 25 29 48 61 64 58 58 58 59 68 37 41 61 74 97 90 95 99 97 96 86 84 86 88 99 99 99 90 99
2 2 2 2 16 99 100 96 92 99 100 100 100 98 98 18 15 22 25 34 50 67 67 59 61 61 56 47 26 38 28 68 87 98 99 96 96 98 98 92 95 90 94 93 86 84 92
2 2 2 2 2 17 99 100 99 100 100 100 100 86 98 53 15 22 26 36 50 68 68 57 57 64 38 23 30 37 27 39 60 86 94 86 96 97 99 84 80 71 72 70 75 80 100
3 2 2 2 2 2 33 100 99 100 100 100 100 95 99 89 15 22 29 38 51 66 65 55 59 47 30 32 32 31 37 31 54 56 71 96 96 88 98 93 80 66 64 81 84 73 94
5 4 2 2 2 2 3 85 100 98 97 100 100 98 96 96 16 23 30 37 47 68 59 56 62 54 33 34 27 29 44 21 44 46 63 92 96 95 97 97 90 91 90 84 74 97 97
11 11 12 6 3 3 2 36 100 87 97 100 100 100 95 96 14 27 32 37 53 66 79 63 64 64 45 34 30 23 48 42 55 53 72 80 98 97 85 95 84 89 96 96 76 90 97
24 24 22 16 11 5 3 5 95 83 100 98 100 95 95 90 14 28 32 40 66 68 90 68 62 72 73 63 52 29 48 48 55 61 63 93 90 90 91 85 80 97 86 78 85 93 84
69 60 34 28 19 11 6 6 91 99 98 100 100 90 92 74 16 29 33 45 71 92 85 90 78 65 89 94 96 86 89 57 45 70 90 95 74 95 82 87 93 100 73 74 90 99 98
70 58 73 62 41 19 8 9 83 100 100 100 100 86 83 63 17 29 36 48 81 99 82 83 61 67 96 99 94 96 99 80 63 75 100 100 83 92 94 88 91 94 77 98 98 98 83
82 71 55 62 49 48 19 6 67 99 100 100 100 90 81 38 19 32 41 59 93 81 78 88 73 82 85 96 97 99 99 80 66 60 99 97 99 92 86 98 99 98 79 78 89 92 70
84 72 60 76 86 74 70 20 43 100 100 100 100 97 95 31 21 36 45 61 67 70 76 95 82 85 87 93 100 90 95 96 83 77 90 83 99 91 97 97 93 100 86 73 63 62 62
82 65 73 90 93 78 64 30 72 99 100 100 100 98 92 31 24 40 53 41 65 77 80 76 77 81 79 88 95 88 80 84 88 91 96 86 98 100 99 96 90 84 82 68 60 71 65
72 69 89 93 96 97 54 58 98 98 100 99 100 83 91 20 27 47 55 40 55 84 78 85 91 90 82 82 98 88 94 79 83 97 88 79 80 95 91 85 84 84 79 66 63 68 74
56 74 88 93 94 97 90 89 98 99 100 99 99 87 75 18 33 44 36 40 54 83 84 86 88 79 72 84 94 95 85 89 80 93 86 75 71 90 85 82 82 76 74 67 59 66 64
58 63 84 93 96 99 97 98 99 100 99 99 87 80 39 26 34 31 40 50 62 85 83 85 80 80 78 85 94 99 91 94 88 87 76 70 79 92 94 88 76 79 72 71 59 73 67
55 51 65 97 100 99 96 97 100 99 99 100 71 77 28 32 30 34 50 59 73 88 80 74 76 89 81 87 90 86 92 94 94 90 88 85 79 72 71 70 71 75 66 68 71 80 70
27 43 50 95 100 77 95 97 98 99 100 96 98 30 13 22 24 36 55 61 72 86 79 83 79 88 90 92 94 85 81 87 93 93 90 85 80 85 85 84 79 75 68 71 72 62 77
30 43 71 95 99 95 97 99 99 99 99 97 94 21 12 16 30 46 64 54 68 72 67 73 76 91 95 91 89 77 81 80 86 87 83 74 77 80 78 75 69 64 63 62 68 74 76
38 48 60 93 98 97 97 99 99 99 99 99 61 14 17 19 23 39 41 56 70 62 67 70 79 81 89 87 89 86 82 78 84 83 82 84 81 81 82 77 74 71 57 58 56 57 57
46 55 63 97 98 91 97 98 98 99 99 90 46 20 13 19 26 32 56 70 77 67 55 73 80 78 81 87 92 95 99 92 90 79 83 87 85 84 87 89 92 67 65 64 62 64 67
46 65 88 99 91 88 96 98 98 99 98 89 30 23 19 18 25 48 55 71 87 84 86 65 74 72 76 86 93 94 94 90 87 95 91 87 91 88 93 91 71 58 65 66 61 58 60
50 68 91 98 78 92 98 99 99 99 97 29 30 27 22 22 30 41 58 59 70 81 88 82 82 77 77 80 89 86 88 83 87 85 91 96 91 98 98 96 87 66 62 62 59 57 58
48 59 97 100 89 98 98 98 98 99 75 28 22 19 21 27 35 45 64 73 76 69 78 71 79 83 81 73 88 82 82 78 81 85 95 100 97 95 98 87 75 69 70 68 67 56 54
46 63 97 93 95 99 98 98 98 99 46 24 21 18 24 31 39 45 53 61 53 52 48 57 79 82 84 79 87 78 86 84 80 77 76 74 88 93 99 92 84 66 75 76 67 63 67
32 73 98 60 96 98 98 99 99 68 30 18 18 20 29 38 38 42 49 52 52 50 56 53 55 58 63 64 68 76 88 87 78 78 80 77 67 69 71 74 71 67 69 72 70 68 72

GFSGBSN_700_rhum_087.txt.gz
RH
4 4 6 20 55 84 97 92 98 100 100 96 100 100 100 93 74 12 12 24 30 30 36 48 59 60 60 53 52 56 30 25 62 79 88 75 42 74 88 83 74 76 69 73 100 86 67
5 4 3 4 8 54 82 95 97 97 100 98 100 100 100 97 86 28 11 22 29 33 42 55 61 60 60 61 69 45 24 69 95 96 97 93 45 73 91 85 81 75 68 94 94 93 77
4 4 4 3 3 4 59 85 97 99 97 100 98 100 100 96 90 46 12 20 26 36 45 59 61 54 61 66 69 25 64 83 94 94 85 90 70 85 94 90 80 89 66 94 99 97 100
4 3 3 2 2 2 3 26 97 78 91 96 91 100 100 93 98 71 14 20 26 40 51 60 55 55 50 63 45 36 83 92 86 74 91 87 87 98 98 91 78 84 96 98 96 98 100
3 3 2 2 2 2 2 2 24 100 98 83 100 100 100 100 99 71 18 21 26 43 58 62 50 51 40 39 22 36 42 71 97 69 76 88 95 98 100 89 78 91 79 97 99 96 98
4 4 4 3 2 3 2 2 4 34 100 87 95 97 100 100 99 61 30 23 27 43 65 59 53 45 31 20 28 35 33 50 89 86 82 92 98 97 100 93 91 84 81 98 99 99 97
3 3 3 3 3 3 2 2 2 25 82 96 99 94 100 100 99 81 36 24 30 44 65 55 48 36 24 18 30 37 31 51 68 92 98 98 88 98 100 92 83 54 88 99 96 98 99
5 5 5 6 5 3 4 3 2 3 52 92 82 97 100 100 99 94 29 25 28 41 67 52 46 23 20 19 20 35 37 53 70 78 89 85 85 86 93 87 81 74 64 82 94 97 95
7 8 8 9 9 9 4 5 6 3 21 80 95 100 100 100 100 89 28 24 29 46 68 53 55 45 33 20 16 28 34 56 66 57 63 84 98 74 98 87 80 85 74 70 58 89 94
12 14 18 20 20 17 12 5 6 8 10 87 100 97 100 100 99 90 25 25 29 53 71 60 62 67 41 18 19 19 33 48 73 71 58 77 99 85 95 99 90 82 87 74 74 88 97
26 34 46 44 36 25 20 14 9 10 8 84 100 99 100 99 100 92 34 28 31 61 93 67 61 72 70 57 31 24 37 44 65 71 64 84 99 95 97 98 90 94 78 94 88 83 91
58 69 69 62 47 41 29 24 13 11 10 31 100 100 100 100 100 78 30 31 35 74 93 84 65 72 86 82 90 79 71 52 62 81 98 87 95 90 96 98 99 86 98 99 100 99 97
84 82 81 81 70 56 44 34 28 19 12 12 99 100 99 100 100 70 33 32 42 97 70 78 59 76 93 96 95 96 88 55 77 96 99 92 86 92 96 92 82 92 90 98 98 98 87
88 86 85 95 90 64 48 49 48 60 20 12 95 100 99 99 100 61 37 31 61 65 66 73 63 84 87 93 90 90 74 71 70 94 94 88 86 99 96 79 87 99 73 77 93 95 77
92 92 89 81 70 65 70 90 99 76 40 93 98 98 99 99 99 40 44 29 36 58 68 84 77 84 90 91 94 89 92 71 69 75 91 91 97 86 98 100 92 87 69 69 61 69 68
94 93 92 73 67 76 86 96 90 62 49 99 98 98 100 99 88 40 51 22 40 72 73 82 74 79 80 92 94 97 88 87 74 96 94 92 96 95 99 99 98 84 67 63 60 74 61
96 94 67 68 77 93 93 94 94 91 62 97 98 98 99 99 85 54 41 19 37 70 78 76 89 82 76 83 98 81 80 76 91 100 97 86 80 92 94 93 93 82 78 67 63 69 74
98 87 60 80 83 92 95 95 96 98 48 98 98 98 98 99 90 63 26 16 50 82 85 83 93 83 71 83 87 82 84 84 92 97 92 84 86 96 93 82 80 83 79 68 57 69 64
97 65 73 61 84 90 95 97 98 87 93 98 98 98 98 99 82 46 16 22 52 88 88 89 93 79 76 78 88 94 87 87 87 89 79 70 67 89 92 92 84 82 72 72 66 63 64
88 65 63 35 94 93 95 97 100 96 98 98 98 98 98 99 77 26 18 34 65 91 90 91 81 85 78 89 94 90 84 88 82 87 84 79 74 68 66 67 73 78 71 72 73 67 61
85 65 20 40 86 96 98 99 69 93 98 99 98 98 86 84 73 20 22 56 99 96 95 90 80 84 78 94 97 94 88 82 86 86 86 78 71 76 73 80 76 73 69 66 67 69 71
73 65 29 56 93 97 98 91 83 97 98 99 100 98 91 62 20 25 30 53 65 93 89 85 76 83 80 85 82 81 82 88 96 89 90 85 83 84 81 79 76 69 70 70 69 72 71
69 21 40 68 95 92 83 91 98 98 95 98 98 99 60 33 13 26 28 48 62 80 78 76 79 84 92 79 84 84 87 87 88 92 90 87 80 79 80 77 75 69 59 59 58 56 56
29 27 49 54 97 97 95 88 96 98 99 99 99 99 27 16 18 19 40 60 66 75 62 73 88 88 87 86 87 85 87 88 92 85 86 89 85 80 80 81 88 64 62 65 63 62 59
21 42 58 44 96 90 96 95 98 99 99 98 98 44 24 14 25 48 75 79 80 79 73 74 85 90 88 87 88 92 96 92 93 90 84 88 87 84 92 91 72 58 66 66 63 58 54
29 51 58 77 97 93 95 98 96 97 98 99 53 36 24 17 34 55 83 85 81 86 82 80 86 88 88 88 84 79 84 81 81 85 91 91 93 92 99 98 84 66 63 57 56 58 50
44 46 49 98 99 97 98 97 99 98 99 94 42 27 24 20 35 62 60 87 94 90 86 82 83 84 87 89 86 81 76 78 76 86 97 99 93 93 92 89 71 63 68 67 66 54 54
35 41 64 92 93 95 99 98 99 99 97 57 26 24 23 27 38 52 54 72 75 88 84 78 90 90 92 87 83 72 76 74 81 79 76 90 94 92 87 94 80 63 67 68 64 63 61
71 81 92 81 91 97 89 98 99 92 68 24 26 19 25 33 39 50 59 81 80 77 77 68 63 69 77 73 66 70 78 83 79 77 80 81 74 73 69 69 67 68 69 69 72 71 68

GFSGBSN_700_rhum_090.txt.gz
RH
7 6 6 5 4 4 4 4 16 57 74 83 83 100 98 99 100 100 87 26 18 21 21 31 42 54 51 49 52 58 56 27 70 93 95 82 96 56 63 79 80 98 71 78 86 85 94
5 5 4 4 3 3 3 3 3 6 24 52 71 84 90 96 100 100 94 34 20 24 25 36 51 52 46 50 53 54 22 72 99 100 99 81 99 58 60 87 97 83 84 73 78 72 66
5 4 4 4 4 3 2 2 2 4 5 39 79 71 77 97 100 100 99 34 23 26 31 39 53 47 39 44 42 26 50 98 100 91 99 98 100 56 54 91 92 77 86 65 74 72 87
9 7 6 5 4 3 3 2 2 2 12 23 80 81 70 100 100 100 98 35 26 29 36 41 54 46 40 26 20 37 44 86 99 76 76 96 98 55 82 98 79 74 96 96 83 71 98
10 8 6 5 5 4 4 4 4 4 3 12 86 81 95 99 100 99 99 51 31 30 41 47 54 42 31 20 26 37 37 58 98 72 77 93 87 68 83 97 92 73 99 98 93 91 98
8 5 3 3 3 3 3 3 4 5 4 4 77 98 86 93 100 100 100 94 32 33 46 55 50 37 28 19 32 36 31 46 98 83 64 85 91 93 97 85 93 85 92 89 79 88 99
3 2 3 3 4 5 5 5 4 6 7 4 31 91 78 95 100 99 100 99 37 37 44 53 43 30 19 18 28 38 29 38 57 83 91 94 97 97 96 83 88 61 54 72 98 93 100
2 3 5 7 8 9 10 12 10 8 8 8 6 71 100 100 100 100 99 99 36 40 55 58 45 34 16 19 22 32 29 34 54 80 96 94 97 87 98 90 91 65 66 98 81 98 98
4 8 12 18 21 22 25 26 21 13 10 10 7 25 99 100 100 100 100 94 38 53 60 65 50 47 33 29 21 26 30 38 55 72 80 82 82 87 89 91 86 91 62 75 76 79 78
8 10 17 29 41 47 48 42 37 27 12 15 12 11 71 100 100 100 100 92 59 61 70 71 55 60 49 34 24 19 22 26 48 69 66 75 98 95 97 89 91 79 78 69 63 63 83
11 19 45 85 95 82 71 66 52 38 21 13 14 12 13 84 99 100 99 91 72 76 80 75 61 72 73 67 40 19 24 33 52 70 66 97 98 95 97 98 96 93 79 74 77 77 67
32 63 92 90 89 81 74 71 70 53 32 20 16 16 15 45 99 99 98 89 72 82 69 70 59 73 90 98 96 61 41 46 63 85 100 98 99 97 99 98 94 99 86 91 87 77 92
29 66 90 92 89 82 77 78 69 47 35 29 28 22 16 33 100 98 99 88 88 85 53 73 62 77 97 97 98 85 73 62 84 94 98 90 93 96 92 94 99 91 99 99 98 98 92
58 88 92 92 94 95 89 72 69 68 50 39 52 31 15 15 98 98 97 93 91 40 65 62 59 83 98 95 86 87 67 60 78 94 84 81 87 97 98 90 83 98 96 95 94 96 94
94 93 96 95 96 92 78 75 83 83 74 78 66 30 34 30 98 98 97 95 40 32 51 59 69 81 100 88 80 80 74 74 93 93 90 85 92 100 100 89 91 90 74 66 69 72 78
93 94 95 93 93 77 70 80 92 93 92 74 76 99 100 82 98 97 97 81 47 40 66 66 63 79 90 77 82 89 83 71 77 96 92 84 90 97 100 100 93 82 70 63 57 80 65
82 91 92 98 88 68 71 88 93 96 95 78 94 99 100 98 98 97 99 94 53 47 67 68 74 81 90 68 83 82 81 86 93 94 89 90 82 99 95 98 87 80 70 66 66 68 73
94 94 89 90 75 65 68 77 87 90 96 96 99 98 96 97 96 95 99 84 51 59 70 72 83 92 82 79 85 97 85 87 96 95 89 84 82 95 100 95 85 78 72 64 55 69 63
96 94 92 86 69 49 64 86 96 95 97 100 94 99 97 98 96 92 98 75 58 68 72 72 87 90 78 78 82 92 88 87 96 94 90 75 79 95 84 80 75 77 75 71 64 59 61
97 96 90 85 41 26 57 95 98 97 95 98 94 99 98 98 95 94 97 55 71 74 72 76 91 87 82 82 89 85 83 93 98 98 92 81 73 69 74 68 75 74 72 68 68 61 53
84 57 76 71 22 50 92 97 98 67 65 87 98 94 86 96 98 96 76 68 77 75 74 90 91 89 82 92 90 90 87 85 78 86 81 79 75 73 79 81 79 73 69 70 69 69 66
63 61 71 25 53 94 98 95 98 66 36 80 88 94 80 97 92 97 61 80 79 74 63 89 82 82 92 80 75 72 75 80 80 86 79 84 82 89 87 84 78 73 74 69 67 67 66
52 38 28 41 90 98 98 96 97 76 68 92 86 94 91 94 76 86 66 89 92 72 74 78 77 77 93 92 88 83 80 82 79 78 78 84 77 79 75 75 70 62 61 62 60 57 55
23 40 51 86 97 97 96 91 96 69 84 91 95 95 98 81 81 38 54 76 63 69 64 76 86 94 95 89 93 86 86 94 92 90 91 88 90 84 72 72 78 63 64 62 59 59 57
44 50 57 99 100 94 100 98 74 66 54 95 97 100 79 38 32 48 51 68 60 80 78 71 87 94 96 93 92 95 100 98 96 88 92 95 90 81 89 83 65 59 62 66 64 59 58
45 41 59 76 90 95 98 99 73 80 83 97 97 97 40 34 36 42 47 53 63 75 74 82 93 96 97 96 86 78 83 82 86 90 94 94 98 89 98 93 78 67 66 66 58 57 57
42 39 69 95 92 96 98 89 92 98 88 100 98 70 38 33 28 45 47 61 75 74 72 86 94 96 93 91 86 73 68 74 69 79 95 99 89 90 80 80 73 68 68 65 63 63 60
34 82 78 86 66 90 95 94 86 83 81 94 96 41 32 21 31 44 58 72 74 70 65 79 94 96 93 95 88 72 66 68 76 76 76 89 85 84 83 80 76 56 59 73 67 65 66
88 83 71 70 78 97 82 93 86 87 98 83 48 37 33 29 36 50 63 82 83 76 81 69 69 71 82 82 72 70 68 71 70 75 75 76 69 69 64 62 60 57 57 62 67 66 68

GFSGBSN_700_rhum_093.txt.gz
RH
17 14 11 9 8 6 5 4 4 3 2 3 6 22 59 76 82 94 89 97 100 66 21 24 34 48 56 48 38 34 27 31 43 77 79 90 80 96 88 73 50 66 50 60 71 78 85
22 21 19 15 9 6 5 4 4 3 3 2 4 10 30 67 98 99 100 99 100 73 30 26 40 53 60 47 37 17 19 48 78 92 99 85 87 95 98 73 58 67 67 78 78 82 83
27 24 22 19 17 14 10 6 4 4 4 4 3 6 25 80 79 98 100 98 96 99 43 32 51 58 55 46 21 20 42 50 82 71 66 87 97 98 96 54 64 88 89 80 89 73 91
29 26 22 19 15 11 7 5 4 4 4 4 4 4 22 88 53 99 86 100 99 100 58 34 56 64 57 39 18 34 38 46 87 72 78 75 93 98 84 63 89 94 99 99 80 68 77
31 24 18 12 7 4 3 3 3 3 5 6 6 5 5 19 99 88 100 94 98 99 84 40 56 73 51 26 22 36 30 43 98 75 82 96 95 95 69 81 97 95 96 88 89 68 62
34 26 14 6 4 4 4 6 6 6 5 6 8 8 5 28 83 84 99 100 100 99 76 49 60 73 48 22 23 33 23 42 83 93 79 90 97 93 77 93 97 87 95 96 81 73 83
36 22 10 4 4 6 10 14 17 16 12 10 13 12 8 7 88 100 99 100 100 98 64 64 70 68 47 23 20 32 26 33 79 92 100 97 93 80 88 95 99 76 62 94 99 100 96
32 12 4 5 8 12 19 42 56 36 32 18 23 18 13 8 33 90 90 99 99 98 69 59 74 76 52 22 20 26 29 35 70 92 96 87 90 91 97 81 98 80 72 93 96 99 85
22 5 4 10 17 26 52 81 91 74 61 35 28 24 17 18 19 69 99 99 98 96 81 66 78 78 64 36 16 21 27 43 60 80 90 79 87 94 99 86 95 87 67 84 90 84 71
16 4 10 31 46 96 96 96 91 78 80 50 30 30 22 18 91 60 92 100 98 95 90 73 81 82 68 35 22 17 26 31 49 66 72 88 96 94 98 94 95 86 77 80 62 64 75
6 10 22 62 99 84 90 89 95 92 78 65 49 34 29 25 60 88 68 99 98 94 94 81 80 75 74 56 49 19 33 46 58 73 83 96 96 100 93 98 97 84 86 81 75 63 47
7 13 36 81 89 88 90 91 90 94 82 92 64 38 33 33 33 84 65 98 95 97 91 82 72 84 88 90 83 58 41 52 61 94 98 99 100 99 92 100 96 96 91 87 85 74 85
10 44 82 85 89 94 94 96 92 91 85 81 55 44 35 32 22 37 98 98 93 90 63 87 73 86 94 83 98 82 44 60 84 92 93 93 99 98 97 98 99 95 86 98 92 89 91
33 78 81 82 95 96 93 96 83 84 88 82 80 59 65 29 20 31 100 97 96 49 66 82 74 90 92 80 88 75 42 73 82 92 83 84 88 96 95 97 98 98 86 86 91 92 98
70 64 82 92 95 94 95 89 71 78 84 92 78 68 47 28 26 38 100 95 91 45 62 61 88 88 82 99 70 54 56 83 91 95 92 87 98 98 100 89 90 76 77 69 73 83 83
63 74 87 96 95 95 87 73 76 83 93 92 78 57 51 57 82 100 100 96 94 76 67 72 71 80 70 82 60 71 75 71 84 99 95 90 94 99 100 100 87 76 72 63 59 78 75
78 88 95 94 89 97 89 73 75 90 95 95 84 71 98 98 98 99 98 96 92 88 77 75 76 69 71 69 62 83 88 82 96 99 94 90 90 100 99 94 86 77 67 59 64 66 65
97 97 95 92 95 92 80 70 72 94 97 79 97 89 98 97 100 100 100 96 91 86 83 87 93 65 72 69 73 87 87 97 98 97 93 90 92 98 100 95 85 77 70 60 51 66 60
78 74 74 75 85 96 68 34 69 97 97 92 97 74 98 100 100 93 93 95 84 92 85 90 92 70 80 82 87 91 85 96 98 96 90 80 81 94 78 79 78 72 69 65 56 55 57
75 91 78 74 87 65 29 56 98 98 97 96 96 83 98 99 98 94 96 96 75 98 92 97 92 74 83 89 85 79 83 91 98 99 92 78 75 63 69 73 75 68 68 65 61 50 56
61 56 47 35 28 48 92 97 98 98 99 93 96 82 98 98 100 96 96 97 66 100 100 98 96 74 74 90 89 86 83 81 91 88 82 76 73 75 79 82 78 72 64 64 63 63 57
32 45 62 81 94 98 90 97 97 72 47 97 93 81 79 92 85 95 97 95 69 100 100 98 91 84 80 74 79 73 79 82 78 80 82 82 86 80 78 77 73 72 71 68 67 67 65
40 49 59 91 94 82 96 92 79 74 59 50 54 63 74 80 96 96 95 64 99 100 100 95 80 80 87 81 80 78 77 79 82 78 79 77 77 78 78 73 67 66 66 66 64 59 56
41 42 48 88 97 93 93 90 94 76 94 98 85 78 88 86 87 96 93 78 100 98 95 96 79 82 93 88 82 82 80 81 81 81 82 82 78 76 72 69 73 69 65 64 60 61 60
36 36 58 81 99 88 77 77 74 86 96 97 92 95 96 68 67 94 86 86 93 100 96 82 79 90 96 96 88 91 98 91 86 87 86 84 85 80 82 70 65 63 63 64 64 64 60
33 44 94 100 99 89 74 57 56 60 56 75 93 92 90 32 33 42 60 100 100 97 88 77 88 98 97 99 90 85 89 87 91 88 87 89 91 84 72 79 65 62 61 64 64 58 57
37 83 94 98 65 74 62 50 42 34 40 50 81 82 48 31 36 41 73 99 100 91 74 77 93 97 92 94 87 73 68 74 74 82 97 96 92 86 80 79 66 64 64 62 62 57 48
72 74 92 88 68 72 65 46 42 40 53 77 70 58 24 31 39 54 68 83 83 85 61 73 96 100 96 98 92 75 66 68 69 70 86 94 89 87 85 77 66 54 60 66 59 57 57
78 76 75 89 73 73 77 78 66 67 68 64 72 70 32 33 46 68 76 74 76 72 67 70 76 79 93 85 77 71 63 67 68 68 69 77 66 64 60 56 53 53 53 57 65 63 65

GFSGBSN_700_rhum_096.txt.gz
RH
31 32 30 29 27 25 22 17 12 9 7 6 5 4 3 4 13 52 69 100 95 100 85 81 92 55 25 40 43 39 25 17 40 56 71 74 84 98 97 87 99 87 74 82 74 79 92
34 35 35 33 30 27 23 18 11 6 4 4 4 5 4 3 11 54 78 94 100 95 100 96 96 27 28 48 37 29 17 42 50 60 64 72 75 94 96 96 96 92 94 86 81 82 88
40 40 40 37 33 30 24 20 11 5 3 3 4 4 4 4 5 57 84 91 94 87 98 100 83 41 39 52 38 19 32 41 49 77 64 67 73 98 96 97 93 84 96 80 91 65 88
47 48 46 40 32 21 16 6 6 4 4 6 6 6 5 6 5 47 75 83 99 94 93 99 86 36 44 49 30 22 35 35 49 67 64 67 97 93 91 90 81 58 92 98 75 68 78
54 52 49 43 28 11 12 9 34 22 24 10 14 9 9 9 6 36 68 99 97 93 100 99 83 53 46 42 22 27 34 31 55 67 90 84 77 80 94 93 85 76 97 94 97 71 89
60 58 53 43 25 27 50 87 88 99 97 92 28 17 15 15 10 28 94 97 92 96 98 100 83 59 53 50 20 30 34 31 64 96 85 100 97 99 73 69 79 95 94 85 88 86 88
65 64 50 18 60 100 100 100 98 99 99 98 89 31 29 24 15 10 69 96 96 99 98 97 86 59 63 51 25 25 34 32 66 91 98 100 98 98 98 89 91 97 98 82 96 89 90
74 71 46 32 12 42 84 94 92 91 84 82 88 52 39 28 18 13 20 100 95 95 98 96 86 73 82 49 23 25 34 45 58 93 100 94 92 99 98 98 94 100 96 95 99 100 91
90 93 91 41 25 66 96 84 82 75 68 83 91 74 56 40 32 89 77 99 97 86 98 96 91 81 84 64 34 24 37 47 53 85 90 89 85 95 100 86 95 100 77 100 94 99 93
95 96 94 77 77 97 79 79 88 93 89 92 85 84 71 56 36 86 93 100 93 97 96 83 76 80 83 67 32 24 32 34 44 70 77 94 92 97 92 100 93 87 80 95 90 98 80
96 95 78 61 86 88 83 87 94 91 90 85 88 99 75 76 45 25 96 91 82 96 94 84 83 84 71 46 45 27 31 39 54 74 88 90 89 97 94 97 95 96 78 72 67 93 81
93 95 35 68 78 80 86 90 96 88 86 89 92 100 92 75 53 36 67 98 85 94 93 93 89 84 86 86 86 57 29 47 73 95 93 87 88 97 94 98 98 87 80 75 87 89 73
96 57 54 80 84 91 95 97 94 99 77 88 94 97 93 76 65 76 29 99 100 96 73 94 84 83 96 96 99 61 30 78 92 99 94 89 95 88 99 99 97 86 93 83 76 83 84
88 57 89 94 97 94 97 97 90 88 84 87 98 99 87 67 50 76 42 98 98 86 84 100 80 96 89 96 89 62 46 84 87 88 89 96 93 97 94 98 95 91 90 79 66 67 80
45 86 90 86 95 88 98 96 78 72 89 81 94 94 74 57 39 48 88 99 97 92 82 95 94 92 98 87 91 62 52 79 91 96 100 98 99 97 98 98 98 92 90 75 75 73 61
48 75 86 84 89 94 92 79 85 77 96 95 88 78 64 49 37 80 99 87 96 84 95 84 94 97 98 96 91 69 73 81 93 96 99 94 98 95 94 99 94 85 69 71 66 65 71
29 77 77 72 82 95 89 88 85 80 96 88 90 78 56 96 83 99 95 88 96 90 98 81 84 90 77 82 84 74 79 75 97 99 97 98 98 97 95 95 87 77 77 61 63 67 46
22 48 50 58 80 92 96 77 72 82 90 83 82 95 97 97 98 97 99 88 97 92 98 85 94 82 70 71 80 82 85 96 95 98 97 94 96 96 88 89 78 69 61 59 57 58 56
26 47 56 44 42 43 38 43 73 87 84 88 78 94 98 97 96 100 93 96 91 98 96 96 99 85 59 76 91 87 93 88 89 94 84 80 80 89 80 81 74 70 60 53 49 50 64
26 48 73 97 100 94 91 96 95 91 87 80 71 89 98 98 94 91 96 95 94 99 96 99 95 86 74 84 75 76 86 94 95 86 79 69 60 63 69 79 75 72 67 59 47 60 56
27 43 48 95 100 100 93 98 98 98 96 73 85 89 93 86 90 94 96 96 88 99 95 93 94 84 76 87 75 72 70 86 89 81 77 74 76 69 78 78 73 67 63 60 52 56 64
24 37 41 95 97 82 96 92 74 76 76 60 64 76 93 78 90 96 96 96 72 92 91 93 95 83 77 78 78 67 64 68 75 75 69 73 80 78 78 74 70 67 63 63 59 58 61
21 34 44 71 98 91 89 63 45 52 46 31 49 64 74 94 96 96 96 94 74 94 90 93 97 81 77 82 79 74 73 69 63 67 67 69 66 65 70 63 61 63 63 62 60 58 60
19 27 70 90 100 76 65 52 74 92 85 66 49 58 81 90 86 90 94 100 95 93 93 92 93 93 85 82 83 79 77 77 74 75 76 75 70 67 67 62 64 60 59 61 61 57 58
16 58 80 100 90 66 45 70 82 83 74 54 56 82 92 86 60 92 100 100 98 88 94 98 82 83 88 87 84 91 92 85 89 85 82 81 75 70 79 74 62 58 57 59 55 52 50
36 66 82 70 50 37 26 51 58 63 72 77 84 77 79 36 27 55 74 100 98 99 100 92 91 91 96 94 85 86 84 84 83 82 82 80 79 76 70 71 57 62 59 63 62 57 50
52 72 75 61 42 32 9 20 26 38 46 70 79 72 54 22 22 28 46 90 98 100 99 94 99 99 89 94 88 75 73 75 85 94 98 92 93 85 80 75 59 57 58 61 58 54 48
53 60 63 69 64 46 27 28 31 24 28 49 64 27 17 21 23 31 46 96 99 91 88 81 99 97 87 95 91 79 66 67 68 68 89 89 87 88 86 82 65 52 59 59 53 48 49
49 56 57 71 74 70 48 42 36 36 44 58 58 32 20 29 29 36 44 52 76 72 72 74 70 73 79 81 76 74 61 58 60 73 63 88 69 79 68 67 42 47 48 48 49 55 55

GFSGBSN_700_rhum_099.txt.gz
RH
42 42 44 45 45 44 41 38 34 25 16 9 6 5 4 5 5 4 9 65 85 77 98 87 91 89 92 39 32 33 34 23 15 35 48 62 57 77 96 99 99 88 79 80 77 76 74
51 52 53 53 51 49 45 40 34 28 19 8 5 5 4 4 5 5 10 55 84 94 70 98 68 91 79 40 42 37 33 17 33 42 50 68 55 75 99 97 95 96 97 85 80 80 77
58 60 61 59 57 54 49 36 35 40 46 19 13 8 8 7 6 5 9 72 97 100 99 97 98 85 88 50 41 40 21 25 35 40 58 63 61 100 99 89 88 96 100 90 86 80 78
67 68 68 66 63 61 54 52 57 98 98 95 84 33 13 14 10 7 13 64 92 84 100 92 99 86 75 47 50 40 18 30 34 40 55 68 61 90 100 95 100 99 97 87 74 79 87
75 74 75 81 84 72 98 98 87 87 86 92 96 89 32 18 18 12 36 51 99 76 98 98 97 94 84 63 45 24 23 32 26 45 66 72 83 95 99 90 100 84 85 84 83 89 84
83 86 92 86 90 96 94 95 96 95 95 91 88 92 73 36 30 18 36 99 97 100 98 99 79 96 82 60 50 21 28 32 26 80 89 92 97 98 100 99 74 79 92 86 98 83 83
93 89 86 82 86 93 96 96 94 94 95 93 87 83 90 53 36 21 19 73 98 80 98 96 99 94 76 64 53 21 25 34 34 81 93 97 99 100 99 99 98 95 98 96 98 96 88
95 88 91 90 91 80 86 92 92 93 98 96 79 82 97 67 34 24 19 87 91 87 89 90 100 97 88 78 45 19 24 36 47 90 96 94 92 90 98 96 99 100 98 93 96 95 96
98 99 96 99 82 74 92 99 98 96 88 92 97 94 96 79 59 94 84 63 44 94 98 97 99 98 90 78 48 27 24 36 54 100 94 98 95 98 98 92 92 99 98 90 98 91 96
97 98 98 79 54 74 92 94 90 89 92 96 95 96 96 87 64 76 98 94 98 99 98 99 96 86 82 75 62 27 23 34 35 82 100 97 100 93 98 98 99 95 82 98 92 98 97
98 97 83 46 79 94 94 93 85 92 95 97 89 93 92 83 66 37 64 96 95 77 95 97 90 85 81 78 51 26 26 31 71 100 92 96 96 92 95 98 91 96 85 94 82 93 99
96 92 30 72 84 81 88 96 96 97 96 87 94 96 96 80 64 45 84 83 99 98 95 99 96 81 80 56 62 35 27 39 72 85 93 85 92 92 99 94 96 96 72 91 96 99 96
98 37 65 75 80 78 92 94 93 90 92 81 84 98 99 62 61 68 39 100 96 97 93 98 97 96 99 87 99 70 55 88 100 99 96 95 99 91 99 94 96 96 83 93 94 89 94
39 22 56 65 65 77 77 88 94 82 82 81 91 92 86 57 66 87 61 98 97 100 97 94 92 91 98 100 97 95 94 91 82 98 93 88 96 89 92 100 92 99 98 97 66 81 91
26 32 46 51 68 75 74 84 82 74 80 79 86 89 64 47 51 66 100 96 97 95 89 97 87 100 94 98 95 89 87 96 99 94 98 91 97 87 98 97 95 96 93 76 63 56 55
21 40 52 51 58 82 88 84 83 72 77 86 87 83 91 86 55 94 100 96 96 87 95 79 94 96 86 82 84 95 92 90 99 90 89 96 97 92 97 98 91 89 74 84 74 61 63
20 40 56 77 55 49 61 59 69 73 82 88 88 72 66 80 70 95 97 97 96 99 82 100 93 86 70 76 96 82 89 72 88 94 96 96 98 99 97 93 100 93 74 66 62 60 41
21 42 42 91 92 95 89 70 64 89 75 85 96 87 61 78 77 95 97 94 96 95 76 83 89 95 80 86 86 86 93 92 89 95 98 97 100 96 86 75 76 90 80 66 52 48 50
22 37 39 89 85 99 97 91 71 70 77 86 96 98 85 88 98 91 97 95 96 95 83 96 95 94 95 93 90 96 97 86 88 85 88 79 81 94 82 71 79 87 77 66 52 59 65
18 32 38 70 92 86 93 97 74 58 45 69 87 97 95 96 78 83 95 96 95 84 91 96 95 84 92 94 85 96 98 81 86 76 66 72 93 94 79 92 80 87 70 47 60 55 48
16 24 66 84 97 87 90 98 87 57 37 61 64 70 80 76 77 90 96 94 90 84 89 96 87 93 88 88 89 96 73 73 81 74 69 84 72 72 79 72 67 69 73 62 56 61 63
16 30 77 66 57 54 51 44 47 34 27 46 58 70 67 63 79 93 92 88 99 81 89 98 98 94 92 88 95 86 71 88 89 64 60 66 73 74 79 62 59 58 62 68 72 66 62
15 57 69 44 48 39 18 13 13 16 23 37 59 79 80 79 82 91 94 94 91 84 91 90 92 92 93 76 68 67 60 62 61 74 56 61 61 79 76 58 72 62 62 60 55 68 68
42 67 66 47 51 36 17 14 20 29 38 47 68 74 84 78 80 88 85 75 83 83 88 86 91 98 78 74 76 71 68 68 66 63 64 75 65 59 73 57 65 58 58 55 56 53 55
53 57 43 27 30 28 33 31 27 32 41 63 72 69 71 78 66 80 86 83 84 82 88 88 86 87 84 78 95 88 85 80 68 70 72 67 76 78 74 58 56 51 52 52 53 49 50
50 46 25 23 29 35 40 48 53 56 56 60 64 73 56 34 27 60 78 87 80 82 87 89 80 92 91 84 90 81 66 85 83 78 72 74 70 74 76 68 54 62 46 49 50 56 45
41 62 32 13 23 35 26 41 45 52 58 57 60 25 19 21 23 29 51 66 78 86 90 84 86 97 92 96 87 79 69 67 73 78 87 86 85 79 68 68 58 42 45 48 56 57 45
29 53 61 24 13 19 28 32 31 37 51 58 32 19 16 19 22 22 32 57 72 75 92 74 93 91 84 97 88 82 70 76 68 70 83 75 75 77 73 72 62 45 46 51 49 42 43
24 44 57 57 26 30 36 35 31 33 40 58 53 35 17 18 22 28 35 45 63 73 79 76 90 85 88 88 76 70 78 54 73 57 53 69 74 69 75 64 56 37 47 46 45 43 45

GFSGBSN_700_rhum_102.txt.gz
RH
57 58 63 65 65 64 62 60 58 55 50 45 37 22 13 7 5 4 5 6 15 100 70 92 80 91 84 82 84 47 35 36 30 17 23 34 31 42 78 69 93 82 56 72 78 73 60
64 66 70 71 71 74 79 78 76 74 64 79 78 54 30 15 7 6 6 6 42 95 85 91 82 85 80 87 72 62 46 37 24 22 34 38 38 61 53 49 68 61 73 82 81 83 82
72 78 81 85 92 88 72 63 72 84 88 90 97 89 71 39 17 11 7 7 34 98 81 81 95 99 89 92 75 65 43 38 20 34 36 47 44 56 50 60 80 71 75 83 74 81 80
87 92 91 83 85 83 73 67 73 78 94 90 95 92 91 70 27 18 11 8 36 95 89 98 75 98 100 80 70 48 48 24 27 33 35 48 58 51 54 75 65 85 86 92 56 67 81
90 77 82 81 81 79 83 80 57 61 94 99 95 96 89 76 52 30 21 33 41 63 75 93 80 100 100 84 78 63 43 23 30 26 41 58 64 60 75 75 81 83 92 89 82 85 94
97 98 98 99 97 90 88 80 81 99 97 97 98 96 96 78 67 38 54 100 98 96 97 95 96 98 94 83 61 40 23 30 30 27 73 76 79 82 97 92 92 92 99 92 84 80 92
98 98 98 98 100 97 94 60 77 88 97 96 94 96 91 72 82 44 37 56 98 98 99 91 98 100 98 89 71 56 23 35 30 31 92 94 86 87 83 80 88 91 95 91 75 82 97
96 97 97 96 98 60 64 73 79 88 95 94 86 82 85 73 85 51 30 94 82 94 94 96 98 100 99 86 70 39 26 34 39 82 100 100 74 91 91 85 97 95 93 92 86 94 78
98 91 97 96 60 43 63 71 79 90 82 85 85 87 92 94 78 65 56 39 99 87 90 98 98 99 98 93 78 34 25 35 71 100 94 93 76 82 92 96 99 99 97 91 96 92 93
97 98 36 22 35 58 56 66 79 89 83 75 80 91 97 89 72 72 97 94 100 43 96 96 96 98 97 85 74 44 26 43 69 55 87 84 72 87 99 98 93 96 94 97 97 97 98
98 49 22 29 46 58 52 71 79 81 70 80 85 90 97 81 77 75 71 96 91 96 98 100 97 99 90 81 70 38 25 35 58 95 92 83 99 97 85 93 92 81 77 97 91 96 98
85 29 39 41 52 56 52 74 61 77 68 66 85 88 82 64 60 76 86 94 98 94 97 97 96 98 83 76 57 30 28 31 55 77 89 74 85 92 99 98 92 79 82 78 83 99 99
46 25 50 80 82 72 77 82 68 52 58 79 87 92 73 70 76 89 70 89 96 98 97 95 92 84 99 87 99 65 32 59 90 93 96 86 88 100 86 87 86 86 94 96 98 98 98
31 24 44 91 59 78 79 63 68 67 64 74 84 73 46 53 95 82 78 95 97 97 97 97 89 93 98 98 92 81 94 81 92 94 93 88 98 94 90 95 98 96 91 98 96 97 98
31 32 45 94 53 54 71 69 62 68 77 82 72 68 58 51 96 87 91 94 98 98 98 90 96 86 84 92 92 84 80 96 95 97 97 95 99 95 92 94 94 98 99 86 98 96 97
18 38 46 82 78 86 55 61 59 65 66 76 84 88 92 51 56 74 85 97 96 91 92 98 92 81 78 79 71 87 84 94 94 88 83 96 97 93 93 95 82 80 77 79 80 96 96
18 35 50 85 71 65 68 62 61 62 65 57 64 60 74 37 43 72 94 95 98 85 87 98 92 76 65 58 84 97 93 79 88 99 98 97 98 98 94 92 92 77 73 68 65 55 71
22 40 89 84 70 65 60 47 50 59 48 39 37 48 49 44 63 81 94 92 96 75 85 82 93 76 77 78 93 90 88 89 94 96 98 97 97 92 84 81 86 80 72 65 64 60 60
22 74 87 81 72 71 58 42 54 54 49 34 24 31 36 63 79 86 91 100 95 98 99 96 84 83 84 92 88 93 87 93 86 84 79 86 78 92 81 81 76 79 65 56 54 54 54
34 70 63 62 45 50 50 37 44 45 42 46 49 62 76 78 78 86 87 82 100 88 93 85 71 61 92 88 84 91 78 80 75 74 84 86 92 93 90 84 84 78 61 56 52 59 71
40 59 46 44 26 24 37 35 40 41 40 47 55 65 80 88 97 86 86 74 96 87 90 78 82 96 92 85 86 80 71 79 70 68 66 72 72 79 74 74 67 77 62 60 61 63 74
43 36 31 23 18 14 19 28 38 46 50 50 45 61 68 78 90 84 75 84 94 80 96 96 94 81 91 78 92 90 94 91 70 75 64 70 70 76 65 64 66 62 65 63 60 63 67
35 38 35 24 12 10 12 25 41 55 68 76 65 58 62 76 82 87 82 82 72 80 91 92 88 92 74 69 72 64 62 65 56 53 51 60 63 70 61 54 65 64 54 56 66 65 67
28 40 37 30 18 17 20 27 36 46 57 70 83 54 77 71 80 79 62 65 66 77 77 82 86 82 76 68 66 65 57 53 51 50 55 72 74 63 60 61 78 59 54 52 56 65 67
34 18 40 42 19 22 27 36 44 58 65 58 50 45 67 55 66 73 56 64 60 67 70 76 78 79 74 71 84 82 73 77 68 53 53 53 71 75 78 59 51 45 47 50 49 51 51
33 28 19 42 48 39 35 42 58 64 68 47 13 19 35 47 41 65 67 57 62 55 67 71 69 80 81 72 86 80 76 76 75 68 58 57 60 71 72 71 63 58 45 44 47 49 47
24 38 18 34 47 51 52 59 63 63 58 28 16 18 21 23 25 42 53 43 39 54 58 57 59 77 79 85 87 79 70 64 75 74 79 83 77 77 75 70 59 50 42 44 45 52 48
10 38 45 17 20 27 33 43 54 59 51 34 30 19 20 21 21 27 28 38 43 50 58 54 61 65 73 77 76 84 70 71 60 65 61 77 74 78 74 72 69 45 44 46 45 44 37
6 27 42 50 22 18 29 34 31 40 54 49 44 28 17 23 20 26 30 41 44 45 46 42 56 70 73 78 81 71 74 70 57 59 62 48 66 67 69 65 57 52 36 43 42 39 38

GFSGBSN_700_rhum_105.txt.gz
RH
73 80 85 91 96 96 96 96 97 95 93 86 90 94 94 94 96 41 12 6 6 37 94 100 79 99 86 70 85 74 80 48 39 35 23 18 23 25 27 23 31 42 28 44 48 44 41
73 87 96 96 94 89 94 89 82 78 67 60 67 94 91 96 94 83 23 12 6 68 73 99 97 71 79 80 73 73 71 61 44 32 20 29 27 31 31 32 40 36 40 35 38 42 51
98 93 92 94 96 96 96 90 86 58 56 45 77 83 97 99 96 84 39 14 7 16 79 62 99 86 97 99 88 82 74 59 44 24 26 30 35 39 37 38 41 47 38 32 34 47 48
94 96 92 91 94 98 85 93 96 91 59 84 87 98 100 98 91 68 52 16 8 51 61 95 98 100 97 98 94 93 70 52 39 23 32 38 46 48 39 45 48 53 56 44 45 66 72
93 95 96 97 89 100 100 99 85 65 77 85 93 98 98 96 96 65 34 73 22 66 90 98 99 96 100 99 95 80 64 56 26 31 33 47 56 55 48 54 52 60 70 72 54 63 85
93 98 96 98 87 57 97 59 67 72 84 88 87 97 97 96 96 60 30 94 75 96 99 100 93 89 91 98 93 83 68 32 27 60 86 68 72 68 62 60 61 74 90 82 78 60 86
98 97 88 36 28 29 29 38 49 71 90 92 97 97 96 96 85 76 45 81 98 99 99 98 91 95 91 96 80 52 32 26 35 87 92 100 92 58 77 82 76 76 80 74 63 71 92
90 98 56 28 42 42 41 37 57 84 86 91 85 89 87 85 73 77 59 36 80 97 98 96 98 96 98 95 84 71 44 29 38 59 100 92 79 79 83 92 97 91 98 90 69 78 89
100 56 28 46 69 57 46 51 72 87 88 75 68 73 85 84 80 77 68 35 97 72 92 98 98 98 100 98 94 54 30 44 98 96 94 92 64 84 86 92 96 83 93 82 88 93 89
98 29 22 48 78 63 62 77 65 74 85 76 85 72 81 87 76 69 94 51 65 83 94 99 100 100 98 97 96 48 34 44 57 55 76 86 90 90 90 100 96 99 84 99 99 100 97
30 21 35 63 62 73 77 61 44 58 64 67 67 76 72 74 81 82 93 73 72 64 96 97 96 98 99 95 88 60 33 34 45 81 100 77 93 92 88 84 99 91 84 83 89 97 99
23 28 45 77 49 70 63 55 47 42 61 66 62 64 62 62 76 69 81 81 98 94 97 97 96 98 98 70 78 34 28 29 55 66 80 71 75 79 84 87 88 93 88 87 86 96 98
19 35 69 78 67 59 64 60 53 52 76 74 69 63 63 69 81 55 79 74 88 96 96 96 93 84 84 85 87 30 32 60 90 91 92 94 80 88 97 93 95 96 100 94 98 98 98
25 50 70 72 84 54 65 61 56 58 65 67 60 50 60 64 40 51 70 91 93 96 94 86 95 98 90 87 88 60 83 84 88 93 94 95 87 95 96 94 100 95 98 98 96 97 98
47 74 72 62 58 55 56 61 64 58 54 63 57 41 50 37 65 86 92 92 98 96 95 86 86 86 95 92 60 75 82 94 98 94 92 97 96 91 89 99 97 99 99 99 98 98 97
54 70 66 55 45 51 56 58 52 52 48 51 45 34 26 25 82 89 86 97 100 100 93 98 86 75 74 74 75 88 84 94 98 94 99 94 94 97 95 91 88 87 97 98 93 97 96
44 58 61 56 34 42 50 43 38 43 42 38 37 23 17 46 76 73 88 99 96 96 93 89 78 72 55 80 93 96 94 93 96 97 96 97 98 96 84 82 79 81 76 83 72 70 84
31 44 54 54 41 34 33 36 29 28 28 28 27 21 25 62 70 70 80 85 93 86 93 89 81 77 84 92 98 99 99 95 96 99 98 98 90 85 88 83 81 73 67 62 69 62 64
22 32 37 45 42 31 22 20 26 24 23 23 19 30 55 65 72 84 84 72 98 79 75 71 75 75 83 92 91 93 90 91 84 92 86 84 83 89 79 66 62 65 59 54 56 62 74
11 17 23 33 35 27 25 20 29 21 19 30 50 63 65 66 71 79 78 77 86 80 63 64 88 93 92 84 82 80 78 82 83 88 85 82 86 84 91 87 80 64 61 48 47 64 80
6 7 12 19 29 30 29 27 28 42 46 53 57 63 66 68 64 71 67 76 85 80 74 78 94 87 84 88 74 70 83 83 71 75 66 68 79 75 73 72 70 66 63 60 54 64 63
10 6 8 13 23 30 36 42 40 39 45 50 58 69 71 62 65 65 64 75 76 74 71 84 87 83 73 70 79 71 72 65 59 54 57 68 77 65 63 65 59 62 66 67 65 64 72
26 7 12 11 15 33 52 61 67 69 63 60 61 62 77 70 62 48 55 64 72 66 70 69 74 75 60 62 53 50 54 50 49 44 47 53 56 62 54 55 62 52 64 69 71 72 66
20 23 7 20 23 22 32 47 60 68 77 61 70 75 78 78 54 44 41 50 58 63 60 63 69 64 66 63 54 55 62 53 49 48 47 51 53 60 54 61 80 51 53 66 68 71 68
8 37 12 12 21 31 38 38 52 58 77 64 38 47 64 70 68 44 48 50 57 57 56 54 63 61 63 63 63 73 70 68 60 50 49 47 53 61 71 66 55 46 50 49 60 67 74
11 28 25 20 26 30 36 49 62 58 37 30 29 29 39 49 62 41 54 53 53 55 58 54 56 55 60 65 66 72 71 60 61 52 56 53 56 58 64 69 65 53 44 45 47 46 46
26 8 38 22 39 38 45 53 61 58 30 16 21 29 31 29 41 53 41 51 55 52 52 57 54 62 63 67 70 72 72 64 51 57 53 53 63 61 66 72 58 53 50 45 47 40 40
33 9 24 43 21 30 28 41 54 59 48 35 21 17 30 35 32 38 39 50 54 47 51 44 43 55 60 70 71 79 65 60 59 51 57 48 66 64 71 73 60 46 49 45 40 40 40
39 22 9 35 46 18 18 26 32 34 56 54 52 22 15 27 33 41 39 43 58 64 61 45 46 58 54 64 74 74 72 61 54 43 50 49 39 63 57 50 42 44 37 38 39 39 36

GFSGBSN_700_rhum_108.txt.gz
RH
96 96 97 95 94 93 94 97 99 98 100 98 91 88 82 82 91 87 88 92 82 20 8 16 77 60 98 91 96 82 69 78 65 39 39 32 22 20 23 22 25 27 25 29 24 20 18
91 90 88 92 97 96 97 97 96 85 94 91 73 94 80 84 82 93 95 85 74 69 38 38 58 77 99 99 98 72 75 73 58 53 41 27 22 22 27 28 31 28 30 29 29 30 36
94 93 98 85 91 82 66 88 60 100 91 76 72 81 75 98 89 87 92 74 62 52 44 96 98 96 99 98 91 77 82 77 66 47 32 24 24 26 30 35 33 29 28 38 35 49 38
95 88 90 100 65 31 41 40 33 43 44 59 73 72 85 99 92 91 87 62 49 37 43 98 87 82 98 98 100 94 93 83 61 42 27 27 29 37 40 41 37 42 45 45 44 56 61
97 87 96 35 32 59 57 50 41 44 51 62 86 86 71 77 93 97 90 52 51 26 39 97 97 78 97 92 95 100 98 73 56 31 30 30 36 42 47 48 48 56 64 70 60 56 56
100 99 47 24 47 77 75 61 44 62 67 83 95 97 98 88 92 100 71 97 84 45 92 93 92 97 99 96 93 98 78 68 44 35 46 36 36 53 58 67 63 73 80 62 58 49 58
70 40 26 54 87 67 66 67 57 74 76 86 88 94 96 97 97 87 89 78 96 98 98 98 98 98 92 97 97 90 84 61 44 75 72 57 53 47 76 88 90 82 82 83 60 55 67
33 26 42 88 67 75 82 68 67 63 80 89 80 90 90 85 80 84 80 90 98 98 98 98 93 95 96 97 78 54 40 41 36 47 50 66 51 71 88 85 90 97 90 73 62 74 95
21 34 74 58 70 65 56 43 56 66 84 78 65 77 76 80 78 85 68 55 86 98 97 98 96 97 98 98 92 77 50 35 46 46 52 71 62 77 73 75 99 100 100 78 90 85 85
30 49 82 67 57 59 52 47 75 64 74 81 73 87 84 73 68 72 48 59 96 85 95 97 97 98 98 96 88 47 40 53 66 53 69 78 81 84 90 86 100 100 100 98 99 96 98
58 69 75 79 52 54 49 48 84 79 70 80 76 74 80 84 88 87 37 42 75 92 93 98 97 94 96 94 72 46 36 41 48 71 84 68 85 99 99 86 98 96 100 92 88 93 99
52 60 64 61 49 50 46 51 69 73 64 61 66 62 68 70 71 78 43 29 57 83 96 98 95 98 85 82 70 40 29 37 34 45 73 66 79 82 74 90 98 92 93 86 93 100 99
31 41 52 43 52 48 46 46 40 61 59 54 66 70 49 46 62 66 68 62 79 92 96 98 93 86 66 54 30 27 32 50 75 88 95 93 87 80 92 94 89 98 98 93 94 98 95
19 29 42 29 41 37 45 37 32 45 39 35 40 39 36 44 52 68 87 80 88 96 84 80 81 79 87 88 59 50 67 86 92 94 97 98 90 98 99 98 99 100 100 98 96 97 97
13 18 34 21 18 22 25 30 28 39 33 26 23 54 63 63 68 74 78 82 96 98 98 96 99 92 96 81 69 84 89 96 100 96 95 100 95 95 96 94 97 98 99 99 98 97 98
10 13 20 22 15 15 16 20 24 27 29 23 18 38 53 67 64 60 58 90 87 82 85 85 83 68 80 80 81 86 86 98 98 98 95 96 96 94 90 86 96 97 96 98 98 97 96
7 11 11 22 14 14 12 14 21 22 20 18 19 35 62 66 64 62 81 98 100 93 87 82 65 64 87 96 87 91 90 94 96 98 96 98 98 93 86 82 82 92 97 95 96 90 96
5 10 18 12 18 14 14 13 14 18 18 17 20 51 64 65 61 62 84 91 90 76 79 83 75 84 89 90 97 97 95 94 97 97 96 92 85 86 74 68 72 85 84 83 65 87 79
11 6 25 28 14 13 14 12 13 14 16 19 37 58 61 54 56 63 67 73 75 75 71 74 88 91 92 88 84 84 89 88 88 89 91 86 75 82 70 58 68 71 58 58 64 61 88
12 6 12 37 39 21 18 20 18 19 30 51 55 62 59 50 54 66 71 64 66 69 84 86 86 88 84 78 74 89 88 85 76 80 79 79 84 82 82 86 80 68 54 46 52 63 76
12 13 9 25 42 46 33 26 37 46 50 56 58 58 60 61 62 65 65 65 54 67 82 74 82 80 73 78 76 78 74 64 65 61 60 64 68 73 73 70 74 70 64 58 48 58 61
12 17 7 18 33 45 47 52 42 42 48 58 66 69 65 47 54 63 63 66 53 52 65 66 67 72 76 55 58 60 60 52 46 54 57 63 66 59 57 56 69 69 65 58 53 55 58
26 12 10 15 28 35 45 36 35 36 44 51 60 64 65 60 50 58 61 64 66 56 57 58 56 53 60 51 52 50 42 49 47 46 46 47 48 49 48 54 54 56 63 56 56 54 50
42 10 20 7 21 32 41 47 41 24 24 25 43 50 62 69 60 58 60 64 69 64 62 55 57 54 49 50 51 50 44 46 40 41 43 46 47 46 50 58 64 48 68 66 63 62 62
56 22 13 13 13 25 37 47 53 41 15 14 18 28 37 55 62 42 56 64 68 64 63 56 57 55 52 49 46 44 46 50 49 43 43 44 46 48 58 62 46 42 48 64 68 60 64
58 35 10 29 14 27 37 42 53 55 31 14 12 15 25 36 39 40 45 55 63 66 65 60 60 56 52 51 50 52 52 50 48 39 44 42 47 48 54 59 64 40 38 44 57 59 49
63 43 22 16 30 24 37 45 49 50 52 41 29 12 14 16 26 25 36 48 58 60 56 62 62 61 58 60 57 55 55 56 47 46 45 48 61 56 57 54 33 37 44 42 52 30 30
70 52 34 11 31 32 21 29 39 45 52 48 49 48 13 14 17 22 26 41 51 59 62 58 56 53 64 65 67 70 73 54 52 41 34 41 50 58 67 65 45 32 41 42 33 29 32
88 61 45 26 12 38 42 16 20 28 34 39 41 55 46 15 14 16 19 22 27 43 54 70 58 62 67 69 77 76 71 59 52 40 33 42 32 46 38 36 31 32 33 31 32 32 36

GFSGBSN_700_rhum_111.txt.gz
RH
91 97 93 90 87 72 68 47 43 76 97 96 95 99 82 75 87 79 86 70 82 95 34 20 96 99 99 85 94 82 74 68 49 33 29 30 33 30 24 21 20 18 19 19 17 16 16
87 85 93 71 24 23 34 49 46 80 73 65 76 74 71 78 77 77 84 70 83 83 88 27 38 76 92 93 99 99 96 85 74 71 50 45 37 28 25 22 23 24 20 18 16 16 22
89 93 31 25 64 80 82 91 93 73 53 48 65 75 58 61 64 73 84 84 81 74 84 52 71 98 85 85 98 99 94 86 76 65 54 39 28 26 29 27 26 23 20 20 22 26 29
57 23 31 65 80 69 86 79 60 59 67 79 74 72 82 71 64 82 88 87 78 67 50 94 94 86 98 95 99 96 95 90 79 69 48 31 27 28 26 28 31 27 29 29 35 39 45
32 35 63 65 67 62 69 70 65 65 74 82 77 90 95 80 73 94 91 86 78 56 36 97 98 98 97 98 98 98 100 99 84 62 44 31 29 30 30 35 40 46 46 40 35 42 53
45 57 63 48 46 47 39 58 70 60 80 75 81 97 96 98 90 95 96 84 84 49 87 98 98 98 94 97 94 100 99 96 71 56 41 33 32 34 44 44 62 72 73 54 41 44 70
38 54 54 40 28 32 38 75 61 75 79 68 81 94 96 98 100 95 85 97 98 85 94 97 97 97 97 98 98 98 97 76 68 53 41 53 45 43 67 74 81 80 89 86 45 60 98
21 38 39 33 27 26 34 60 57 57 57 60 78 84 78 89 87 86 82 91 96 97 98 98 96 94 98 97 93 96 88 77 47 54 55 55 44 56 76 90 84 100 100 98 64 70 96
11 22 28 27 25 26 36 51 55 65 59 60 68 70 60 68 64 59 95 95 97 96 97 98 98 97 99 96 77 61 47 42 38 39 43 43 63 79 76 72 76 86 99 100 100 85 79
9 9 16 24 25 23 26 46 42 62 60 56 56 62 61 59 57 46 96 97 92 95 95 98 97 98 96 98 85 73 48 48 40 51 55 52 78 78 86 64 95 95 83 100 99 97 90
8 6 7 12 20 21 20 39 43 46 55 57 59 70 72 74 42 49 86 94 87 76 91 94 96 90 97 88 72 52 43 40 43 57 76 73 79 86 92 81 97 88 97 90 96 96 100
11 5 5 7 9 14 18 29 30 37 46 45 45 51 70 64 29 31 51 65 76 62 97 94 94 98 90 72 57 29 30 40 43 52 61 60 70 69 64 71 86 90 89 91 100 99 97
11 8 6 6 7 9 16 19 23 27 33 35 32 35 38 54 29 40 48 74 70 89 97 98 89 73 76 59 48 35 30 45 82 86 86 82 80 76 82 87 85 94 96 94 87 100 92
8 16 7 6 6 8 13 15 17 19 32 64 72 70 69 68 54 48 63 60 83 100 96 89 72 88 85 47 33 47 78 90 89 87 94 94 79 89 95 99 99 98 99 98 96 100 95
8 23 16 8 6 8 11 14 16 17 34 55 60 64 54 47 53 58 56 68 92 92 84 82 93 92 89 74 76 84 89 93 96 88 86 100 91 90 96 100 99 98 99 99 98 95 98
12 13 33 14 13 8 9 13 14 17 24 26 41 64 56 51 48 40 26 75 89 83 81 78 73 58 65 69 74 77 82 91 95 94 96 96 94 89 94 89 97 98 99 99 98 97 96
12 7 27 38 20 18 9 10 12 14 15 23 46 56 55 54 53 39 46 93 99 97 75 72 65 87 90 95 86 90 92 90 95 95 94 92 98 84 85 81 95 98 98 100 100 93 96
15 14 10 39 39 26 23 10 12 14 17 32 45 50 61 65 52 65 85 86 77 66 65 75 87 94 97 96 97 97 99 94 97 93 92 92 86 73 66 72 88 97 94 97 98 85 82
31 14 9 21 42 36 31 37 31 23 26 39 42 50 56 54 58 65 78 74 72 74 74 90 97 90 86 88 85 94 96 90 84 86 85 76 69 73 61 57 69 78 81 81 88 75 80
44 14 16 15 34 38 30 30 40 44 43 44 41 45 50 45 57 61 71 68 81 86 85 83 87 82 74 77 85 88 93 87 77 73 74 74 75 77 80 82 84 78 68 60 78 66 77
51 16 18 13 26 38 31 16 25 39 44 44 39 31 38 43 57 55 60 69 75 80 79 77 79 76 71 75 72 71 74 73 69 66 64 65 62 65 67 74 77 74 68 61 64 61 59
57 30 14 12 23 32 43 27 10 19 36 36 36 35 33 41 46 54 50 60 67 71 74 74 70 71 66 63 56 53 48 46 53 62 62 60 54 55 57 68 66 66 57 51 51 51 54
67 42 14 16 15 29 40 44 16 11 14 27 20 26 28 33 40 47 49 49 53 61 71 75 63 64 64 54 53 51 47 43 44 45 50 53 52 52 44 50 58 50 54 52 51 47 42
75 56 27 14 10 20 36 43 38 15 12 14 18 24 26 23 30 37 41 41 52 62 58 62 66 60 56 53 49 50 46 45 46 45 46 44 46 47 45 49 53 36 52 54 52 54 55
80 67 44 15 18 14 28 41 42 39 27 14 14 17 21 22 23 27 32 35 39 46 56 55 56 59 60 62 53 43 44 44 51 48 44 40 39 41 43 48 34 35 37 43 52 52 52
90 77 62 34 11 18 32 39 46 46 43 43 27 12 15 17 20 21 24 31 33 38 40 44 51 55 55 53 53 53 42 46 45 42 42 44 43 46 47 47 49 24 30 37 46 40 30
97 86 70 53 20 20 21 38 41 47 48 45 47 47 21 12 16 16 18 20 27 32 32 40 41 48 55 57 63 64 58 58 51 39 42 42 38 47 57 52 24 22 32 36 44 25 23
98 92 83 66 40 12 30 29 27 28 36 41 40 48 48 15 12 14 16 17 19 24 27 33 40 46 41 53 65 68 73 62 53 44 43 42 41 43 64 61 42 28 37 33 27 26 25
97 98 91 75 62 32 12 38 44 19 23 32 36 37 50 37 14 13 14 16 16 19 25 28 33 28 27 41 50 58 72 66 60 49 40 40 42 41 44 29 23 26 28 32 36 33 27

GFSGBSN_700_rhum_114.txt.gz
RH
35 40 55 50 56 53 59 79 88 90 96 89 94 94 92 85 93 82 92 95 94 79 87 64 28 38 59 98 98 86 79 77 65 54 56 46 37 30 25 26 26 22 22 20 20 20 18
19 36 37 37 36 36 41 69 66 62 79 69 66 66 61 70 49 62 68 83 91 86 89 55 58 73 86 96 98 99 75 85 58 39 35 33 31 31 32 28 27 26 24 22 20 17 14
17 24 24 24 26 23 32 54 67 51 62 73 76 67 62 54 60 48 58 72 89 88 89 54 59 98 98 98 98 96 96 90 82 74 67 57 47 41 34 28 27 26 25 22 18 16 20
10 10 18 20 19 19 45 62 58 58 70 64 65 77 86 96 70 58 70 78 90 87 78 74 87 97 98 92 90 87 98 94 82 76 65 54 41 33 32 31 29 28 26 22 25 28 33
6 7 12 19 19 18 39 52 65 79 74 65 72 70 75 75 75 60 72 91 86 78 77 84 93 97 98 98 91 98 97 97 86 77 66 49 39 37 32 28 27 31 30 26 23 29 30
5 5 7 13 13 22 36 46 50 70 62 67 81 78 80 92 79 87 93 90 91 73 79 95 97 98 97 98 98 96 95 84 91 77 53 44 38 33 28 24 35 45 46 40 36 34 51
4 4 5 8 12 23 34 42 48 46 58 66 64 69 82 95 92 96 89 95 91 72 97 97 98 98 96 98 98 98 98 95 86 62 52 47 41 38 35 39 53 63 77 89 28 57 60
5 4 5 7 11 20 25 35 46 45 51 67 67 62 66 87 81 77 92 84 87 95 97 98 97 98 98 98 95 98 98 87 71 58 45 36 35 41 55 64 72 82 69 42 47 65 88
8 4 4 6 11 15 21 25 36 41 43 75 73 66 62 58 96 90 91 97 97 97 97 98 98 97 98 97 97 96 84 55 47 40 32 30 60 61 65 70 69 67 68 60 92 95 96
14 6 5 5 9 12 18 20 24 38 42 52 67 70 60 59 87 94 92 96 94 87 90 98 96 97 96 88 81 57 47 50 38 42 31 33 40 59 74 64 86 82 78 97 100 94 92
21 8 7 5 7 11 13 18 17 18 27 45 57 42 39 83 87 91 94 81 71 63 87 94 97 96 96 88 76 65 53 46 44 34 36 53 70 72 65 75 87 75 97 85 92 94 100
20 20 9 6 6 8 11 15 27 42 43 38 45 30 29 36 65 59 56 52 53 56 96 95 100 98 88 65 52 36 38 39 33 30 39 59 63 55 59 69 79 85 79 80 92 94 99
9 34 12 21 6 7 9 15 31 43 38 44 47 41 32 32 42 56 63 54 59 92 97 93 85 75 67 48 31 29 29 37 70 78 83 76 71 77 83 76 80 89 94 91 85 99 92
12 23 33 16 22 7 9 11 19 33 30 42 39 41 40 34 39 56 50 53 83 99 100 72 74 47 32 26 30 58 78 84 85 82 93 96 77 73 81 93 94 92 98 98 97 98 92
15 9 40 29 27 24 8 11 17 18 20 42 43 42 44 52 54 53 46 57 100 85 68 80 78 64 59 58 72 86 87 92 95 86 83 98 78 82 87 94 99 98 99 98 98 96 98
42 13 20 41 30 30 30 14 12 15 24 43 43 46 44 42 43 40 21 80 88 78 85 84 74 67 74 79 80 83 82 88 94 91 94 98 92 85 90 94 98 99 100 99 98 97 96
60 13 11 33 34 28 32 36 30 27 36 40 39 38 54 38 33 25 46 88 92 84 82 84 86 93 95 98 92 85 89 84 89 98 99 98 100 88 90 84 98 98 100 99 99 97 96
75 34 13 20 40 24 20 31 28 30 34 38 38 37 48 36 29 48 81 100 87 80 83 90 94 96 96 96 97 100 98 95 95 93 96 97 99 89 73 79 82 82 89 99 98 98 91
83 58 13 15 30 36 13 16 30 23 26 34 34 31 35 36 33 43 62 74 79 87 90 92 96 93 92 91 93 97 97 98 96 95 94 91 90 81 61 61 72 81 86 79 98 84 82
86 68 23 13 25 39 23 10 17 26 18 21 30 29 33 36 44 44 54 62 78 81 82 84 90 82 78 82 84 83 82 83 81 81 78 81 77 83 83 79 80 79 77 64 93 81 84
88 73 49 15 16 33 38 12 9 16 19 17 20 21 27 37 40 45 46 61 66 70 75 77 78 68 68 75 70 65 66 71 72 71 69 68 62 62 66 72 73 70 65 63 78 68 65
87 83 59 18 12 26 41 27 9 9 12 15 18 18 20 32 38 37 44 49 55 59 67 68 70 66 63 64 60 52 49 50 52 55 57 57 57 50 46 61 63 63 60 59 61 57 53
76 90 73 42 16 14 34 42 20 9 9 11 15 16 19 20 23 33 36 37 39 44 54 57 55 59 56 53 52 51 53 51 48 46 48 56 54 51 40 39 43 41 54 54 50 49 50
76 86 87 60 19 15 20 39 42 28 10 9 11 16 17 17 19 23 26 32 33 34 44 47 47 46 48 45 44 45 45 49 51 47 47 49 52 53 46 42 59 27 39 46 47 46 46
85 85 83 84 46 16 19 29 42 45 41 19 9 10 16 17 17 16 20 23 24 31 35 39 39 37 39 37 35 30 35 43 47 45 51 52 56 52 46 43 23 21 25 32 40 36 39
82 88 79 90 69 28 23 25 37 46 45 45 39 17 11 12 14 15 16 19 26 24 26 30 32 33 38 37 37 40 41 40 45 43 38 45 47 52 52 50 34 17 24 29 33 28 30
73 99 91 85 90 56 19 28 29 38 45 43 42 49 41 12 13 12 11 16 17 25 30 28 30 32 35 40 47 48 52 52 50 39 35 35 41 45 51 52 24 22 27 35 45 24 22
71 98 98 84 92 80 51 17 36 31 24 29 38 38 44 47 14 12 13 12 14 15 22 30 31 29 35 36 42 47 52 45 38 29 27 30 33 34 56 70 45 23 27 34 30 29 27
76 98 99 94 87 93 73 46 17 37 45 21 24 31 34 40 45 18 14 15 15 13 17 20 27 30 28 26 28 29 31 32 36 34 27 28 21 24 23 12 14 14 16 22 24 28 33

GFSGBSN_700_rhum_117.txt.gz
RH
5 5 6 9 13 20 38 63 52 47 64 76 78 74 80 96 96 96 94 97 97 94 91 93 64 92 99 98 98 86 92 83 78 59 67 61 55 50 42 36 30 24 23 23 23 21 20
5 6 6 10 15 21 31 38 44 69 68 69 61 66 63 62 60 77 83 85 97 97 90 90 67 63 87 99 98 97 99 97 90 68 56 58 48 36 31 28 26 25 27 26 23 22 21
5 6 8 12 15 22 31 36 49 52 51 58 66 68 64 60 56 41 40 59 89 94 85 91 58 99 92 97 96 97 99 76 56 43 40 39 36 32 30 31 31 31 28 25 23 21 18
5 7 8 12 16 22 31 35 41 42 58 74 68 78 70 58 75 62 52 51 71 94 85 78 97 98 100 78 86 98 96 84 81 71 64 59 54 46 41 35 31 29 27 25 25 23 22
5 6 9 12 17 22 30 34 40 47 60 64 89 92 79 71 85 70 71 66 85 83 73 84 67 98 96 98 98 98 99 96 87 66 62 60 52 41 38 37 33 29 28 25 23 20 18
8 5 8 11 15 20 27 30 33 39 40 49 67 86 96 91 81 72 86 89 93 78 79 93 86 97 98 98 98 91 97 99 95 71 61 58 49 43 38 33 28 27 28 25 20 24 26
13 6 6 10 12 16 18 33 41 51 56 52 52 63 88 95 88 90 86 69 70 85 86 94 90 97 95 98 98 98 95 83 78 79 60 53 45 37 32 27 24 28 30 27 26 30 27
11 10 6 8 11 13 18 18 28 49 64 57 49 59 90 84 77 67 61 74 85 97 98 97 97 97 98 98 93 98 95 87 83 64 54 42 31 29 27 29 32 32 39 32 38 50 73
14 16 6 6 9 14 30 36 27 33 42 46 59 60 78 90 88 78 88 93 96 94 94 98 98 98 98 97 96 94 93 80 59 43 32 25 39 30 34 41 42 43 51 55 78 75 76
31 12 11 6 6 14 34 40 47 49 31 55 68 64 76 81 88 91 89 90 87 82 89 97 96 97 97 97 93 78 55 51 42 30 27 26 25 28 36 50 62 55 64 72 82 96 96
35 25 17 8 7 10 24 32 38 44 44 34 68 65 71 70 72 73 64 63 63 59 88 94 97 96 92 83 66 56 52 41 32 30 32 46 52 57 58 67 65 64 74 79 92 99 100
15 39 20 19 9 9 14 20 21 27 50 36 28 40 54 59 62 65 52 51 52 58 96 96 98 87 75 64 56 39 37 34 26 29 40 53 55 51 54 65 76 83 80 87 96 98 98
17 33 34 22 22 11 12 14 16 35 49 49 42 33 34 36 51 51 49 50 54 90 98 89 82 68 36 31 30 31 30 48 61 70 76 74 69 69 78 84 83 89 87 91 82 97 89
42 13 40 28 27 32 27 22 28 37 42 47 48 48 50 50 51 51 49 51 81 93 71 58 52 36 30 34 49 64 74 78 74 82 82 79 65 74 85 90 93 88 89 99 97 92 86
65 15 26 32 28 29 33 26 29 32 30 36 43 30 30 37 37 35 33 50 93 80 80 75 58 56 52 60 76 82 78 77 79 89 91 99 83 84 88 93 94 98 99 98 98 100 99
79 36 14 40 13 22 24 21 21 26 23 25 30 25 22 23 19 20 20 54 80 78 77 71 64 67 71 74 70 72 78 93 100 100 99 99 93 84 88 93 97 100 99 98 98 98 92
86 59 15 29 36 11 16 19 16 19 24 21 23 18 22 24 31 34 45 74 80 83 84 85 85 93 97 95 99 94 97 97 100 98 99 98 96 79 88 86 97 97 98 99 98 98 94
76 75 31 17 38 16 9 13 15 14 17 18 17 19 20 23 28 36 62 76 84 88 92 94 91 84 90 92 95 96 97 98 97 96 96 94 97 92 75 84 88 88 95 95 98 98 97
85 81 59 15 29 36 8 9 11 13 12 16 16 18 23 25 31 39 60 75 88 83 79 85 88 87 80 82 87 89 88 87 86 85 84 85 88 86 63 70 80 83 86 88 91 100 86
79 82 81 42 14 36 27 8 10 12 13 12 15 21 25 27 30 38 47 60 70 80 78 69 74 75 75 79 77 75 79 78 78 80 78 77 73 76 80 72 74 72 80 67 86 96 79
65 82 85 74 20 18 38 24 8 10 12 11 13 17 24 28 30 34 38 46 54 61 68 68 61 54 55 60 59 55 57 62 68 70 74 77 64 60 55 63 66 66 68 68 72 75 70
61 70 88 82 59 14 26 39 24 8 10 12 10 13 17 25 30 32 33 37 44 50 56 56 57 54 48 41 39 37 37 41 46 56 61 66 65 54 35 43 50 45 58 59 65 66 57
67 66 82 89 80 33 13 34 40 28 9 10 10 10 12 15 19 28 30 32 33 36 46 49 48 46 43 42 42 39 36 36 34 35 39 46 50 53 41 36 33 33 28 50 52 48 47
77 72 71 96 83 77 18 18 39 42 37 13 10 11 11 12 13 17 21 25 28 30 35 40 40 38 40 38 34 32 30 30 34 44 41 39 46 47 44 33 47 21 25 42 46 44 42
80 74 78 79 95 85 53 18 27 42 43 44 32 12 11 13 14 13 16 18 21 24 27 30 33 38 35 34 33 27 29 31 34 42 54 54 52 46 50 50 22 15 20 26 39 33 38
72 76 77 78 98 91 82 30 22 32 42 43 42 44 35 13 10 14 14 14 16 20 21 21 24 24 29 32 34 35 30 35 37 40 39 47 54 58 61 51 40 16 18 22 29 26 23
64 74 77 83 83 95 96 69 23 25 31 38 40 40 41 45 21 13 12 13 15 15 18 23 24 27 30 34 41 42 43 43 38 36 32 42 45 50 56 52 18 15 20 24 38 19 20
54 60 69 71 85 99 96 93 62 22 29 34 28 26 34 37 41 32 15 14 16 18 17 25 30 26 33 40 39 37 41 36 36 30 27 28 28 30 47 61 37 10 15 18 16 21 26
61 55 68 69 99 100 95 97 90 60 22 26 43 38 21 25 30 36 43 28 12 16 21 20 25 31 32 30 34 40 41 44 43 36 32 38 27 26 21 14 15 18 18 16 16 16 18